GEFSNGP_prec_meanprecacc_054.txt.gz
Total_Precipitation_Accumulation
0.00 0.00 0.01 0.02 0.04 0.03 0.02 0.01 0.04 0.03 0.03 0.02 0.00 0.00 0.00 0.00 0.00 0.00 0.00 0.00 0.00 0.00 0.00 0.00 0.00 0.00 0.00 0.01 0.01 0.02 0.03 0.04 0.04 0.04 0.04 0.05 0.06 0.09 0.10 0.11 0.12 0.18 0.25 0.27
0.00 0.01 0.02 0.03 0.05 0.03 0.01 0.00 0.00 0.00 0.00 0.00 0.00 0.01 0.01 0.01 0.02 0.01 0.01 0.02 0.02 0.02 0.02 0.03 0.03 0.03 0.03 0.04 0.04 0.05 0.08 0.10 0.08 0.09 0.09 0.09 0.10 0.11 0.11 0.13 0.16 0.19 0.21 0.24
0.00 0.00 0.01 0.04 0.04 0.01 0.00 0.00 0.00 0.00 0.01 0.01 0.02 0.03 0.05 0.07 0.08 0.08 0.08 0.08 0.07 0.07 0.05 0.04 0.03 0.03 0.03 0.03 0.03 0.04 0.07 0.12 0.13 0.13 0.13 0.10 0.10 0.12 0.14 0.18 0.22 0.24 0.25 0.27
0.00 0.00 0.03 0.04 0.01 0.01 0.01 0.01 0.01 0.03 0.05 0.08 0.12 0.14 0.17 0.22 0.22 0.16 0.10 0.07 0.04 0.03 0.01 0.01 0.01 0.01 0.02 0.02 0.03 0.03 0.05 0.12 0.17 0.18 0.17 0.15 0.17 0.20 0.22 0.25 0.28 0.30 0.31 0.34
0.00 0.00 0.02 0.01 0.01 0.01 0.02 0.03 0.05 0.10 0.17 0.22 0.26 0.26 0.21 0.16 0.12 0.08 0.04 0.02 0.01 0.01 0.01 0.01 0.01 0.02 0.03 0.04 0.04 0.06 0.08 0.13 0.18 0.25 0.26 0.25 0.27 0.31 0.34 0.37 0.35 0.35 0.37 0.40
0.00 0.01 0.03 0.01 0.02 0.05 0.06 0.13 0.18 0.21 0.21 0.16 0.12 0.11 0.08 0.03 0.01 0.01 0.01 0.00 0.01 0.01 0.01 0.02 0.03 0.04 0.05 0.07 0.09 0.12 0.13 0.17 0.23 0.31 0.36 0.35 0.36 0.40 0.42 0.46 0.44 0.42 0.39 0.42
0.00 0.01 0.02 0.03 0.05 0.10 0.17 0.22 0.18 0.13 0.10 0.08 0.07 0.06 0.03 0.01 0.01 0.01 0.00 0.00 0.01 0.01 0.03 0.05 0.08 0.12 0.16 0.18 0.21 0.21 0.22 0.25 0.30 0.36 0.42 0.42 0.44 0.46 0.49 0.49 0.50 0.50 0.49 0.47
0.00 0.04 0.07 0.06 0.06 0.10 0.10 0.08 0.06 0.05 0.04 0.03 0.02 0.01 0.01 0.00 0.01 0.01 0.00 0.00 0.01 0.03 0.03 0.05 0.11 0.18 0.24 0.26 0.26 0.28 0.32 0.33 0.36 0.42 0.44 0.43 0.54 0.60 0.65 0.66 0.63 0.60 0.63 0.60
0.01 0.04 0.03 0.02 0.02 0.03 0.03 0.03 0.03 0.02 0.02 0.01 0.01 0.00 0.00 0.00 0.00 0.00 0.00 0.00 0.01 0.02 0.04 0.06 0.10 0.16 0.22 0.24 0.26 0.28 0.31 0.33 0.38 0.47 0.53 0.57 0.63 0.67 0.76 0.80 0.77 0.72 0.72 0.76
0.04 0.04 0.04 0.02 0.01 0.01 0.01 0.01 0.01 0.00 0.00 0.00 0.00 0.00 0.00 0.00 0.00 0.00 0.00 0.00 0.01 0.03 0.06 0.07 0.09 0.12 0.17 0.24 0.31 0.35 0.36 0.36 0.40 0.47 0.54 0.66 0.76 0.76 0.78 0.81 0.83 0.82 0.79 0.75
0.02 0.03 0.03 0.01 0.00 0.00 0.00 0.00 0.00 0.00 0.00 0.00 0.00 0.00 0.00 0.00 0.00 0.00 0.01 0.02 0.04 0.08 0.10 0.10 0.10 0.11 0.13 0.20 0.32 0.39 0.39 0.38 0.42 0.48 0.55 0.68 0.81 0.84 0.75 0.75 0.78 0.75 0.69 0.66
0.00 0.00 0.00 0.00 0.00 0.00 0.00 0.00 0.00 0.00 0.00 0.00 0.00 0.00 0.00 0.00 0.00 0.01 0.02 0.06 0.10 0.13 0.14 0.13 0.13 0.14 0.15 0.21 0.33 0.42 0.43 0.40 0.43 0.48 0.56 0.66 0.79 0.84 0.69 0.56 0.54 0.54 0.48 0.43
0.00 0.00 0.00 0.00 0.00 0.00 0.00 0.00 0.00 0.00 0.00 0.00 0.00 0.00 0.00 0.00 0.00 0.02 0.06 0.12 0.19 0.21 0.20 0.19 0.20 0.20 0.21 0.26 0.41 0.55 0.51 0.46 0.48 0.50 0.55 0.61 0.70 0.82 0.84 0.67 0.49 0.43 0.34 0.26
0.00 0.00 0.00 0.00 0.00 0.00 0.00 0.00 0.00 0.00 0.00 0.00 0.00 0.00 0.00 0.00 0.02 0.06 0.12 0.21 0.27 0.28 0.27 0.28 0.28 0.26 0.26 0.30 0.36 0.60 0.69 0.59 0.50 0.50 0.56 0.62 0.68 0.75 0.84 0.88 0.78 0.59 0.37 0.22
0.00 0.00 0.00 0.00 0.00 0.00 0.00 0.00 0.00 0.00 0.00 0.00 0.00 0.00 0.00 0.02 0.06 0.11 0.19 0.31 0.39 0.38 0.35 0.35 0.35 0.31 0.30 0.31 0.33 0.42 0.62 0.66 0.58 0.52 0.57 0.64 0.68 0.72 0.80 0.84 0.90 0.85 0.60 0.31
0.00 0.00 0.00 0.00 0.00 0.00 0.00 0.00 0.00 0.00 0.00 0.00 0.00 0.01 0.02 0.04 0.08 0.14 0.24 0.40 0.58 0.61 0.52 0.47 0.43 0.37 0.34 0.35 0.35 0.39 0.47 0.46 0.46 0.53 0.59 0.65 0.70 0.73 0.76 0.83 0.86 0.85 0.71 0.45
0.00 0.00 0.00 0.00 0.00 0.00 0.00 0.00 0.00 0.00 0.00 0.01 0.02 0.03 0.06 0.10 0.18 0.27 0.35 0.44 0.56 0.61 0.58 0.57 0.50 0.41 0.37 0.38 0.40 0.42 0.48 0.42 0.32 0.43 0.57 0.62 0.68 0.73 0.73 0.77 0.80 0.77 0.65 0.40
0.00 0.00 0.00 0.00 0.00 0.00 0.00 0.00 0.00 0.01 0.02 0.03 0.05 0.08 0.12 0.22 0.39 0.52 0.57 0.61 0.61 0.54 0.51 0.54 0.45 0.36 0.33 0.33 0.35 0.39 0.50 0.50 0.36 0.39 0.52 0.57 0.60 0.72 0.73 0.71 0.70 0.68 0.56 0.34
0.01 0.01 0.01 0.01 0.01 0.01 0.01 0.01 0.01 0.02 0.04 0.07 0.12 0.16 0.20 0.30 0.47 0.60 0.66 0.77 0.84 0.76 0.61 0.51 0.40 0.32 0.29 0.24 0.23 0.31 0.43 0.48 0.39 0.37 0.47 0.45 0.51 0.66 0.67 0.63 0.63 0.61 0.47 0.34
0.01 0.01 0.01 0.01 0.01 0.00 0.00 0.01 0.03 0.05 0.08 0.13 0.22 0.27 0.32 0.38 0.49 0.61 0.63 0.71 0.84 0.87 0.72 0.54 0.36 0.29 0.23 0.18 0.18 0.26 0.37 0.45 0.38 0.30 0.34 0.42 0.49 0.56 0.59 0.54 0.52 0.51 0.41 0.31
0.01 0.01 0.00 0.00 0.00 0.00 0.01 0.02 0.06 0.10 0.13 0.19 0.28 0.36 0.44 0.44 0.46 0.55 0.68 0.76 0.71 0.74 0.73 0.63 0.42 0.27 0.19 0.18 0.20 0.27 0.38 0.44 0.35 0.25 0.25 0.32 0.41 0.49 0.50 0.46 0.43 0.40 0.33 0.29
0.00 0.00 0.00 0.00 0.00 0.00 0.01 0.03 0.07 0.10 0.15 0.25 0.33 0.40 0.49 0.48 0.48 0.47 0.51 0.64 0.68 0.76 0.71 0.64 0.52 0.36 0.23 0.18 0.18 0.24 0.33 0.37 0.32 0.21 0.18 0.22 0.31 0.38 0.38 0.36 0.35 0.32 0.28 0.26
0.00 0.00 0.00 0.00 0.00 0.00 0.01 0.03 0.04 0.07 0.19 0.32 0.39 0.45 0.51 0.47 0.51 0.61 0.56 0.46 0.52 0.65 0.58 0.50 0.49 0.40 0.27 0.20 0.17 0.21 0.30 0.36 0.34 0.21 0.15 0.18 0.23 0.25 0.26 0.25 0.23 0.22 0.23 0.20
0.00 0.00 0.00 0.00 0.00 0.01 0.02 0.03 0.03 0.06 0.17 0.29 0.29 0.35 0.41 0.42 0.43 0.46 0.47 0.46 0.49 0.56 0.46 0.39 0.38 0.36 0.32 0.27 0.24 0.25 0.30 0.34 0.31 0.21 0.15 0.15 0.16 0.17 0.19 0.19 0.17 0.18 0.19 0.16
0.01 0.01 0.01 0.01 0.02 0.03 0.05 0.04 0.04 0.07 0.20 0.33 0.28 0.29 0.30 0.33 0.43 0.45 0.43 0.39 0.42 0.45 0.39 0.34 0.32 0.30 0.28 0.31 0.35 0.33 0.30 0.28 0.26 0.19 0.14 0.14 0.13 0.14 0.16 0.17 0.16 0.15 0.15 0.16
0.01 0.01 0.01 0.01 0.03 0.04 0.05 0.05 0.05 0.08 0.24 0.46 0.42 0.34 0.31 0.29 0.32 0.37 0.41 0.39 0.37 0.40 0.34 0.28 0.24 0.24 0.25 0.33 0.37 0.34 0.28 0.25 0.25 0.22 0.18 0.17 0.17 0.16 0.16 0.18 0.17 0.16 0.14 0.16
0.01 0.01 0.02 0.02 0.02 0.03 0.04 0.06 0.07 0.09 0.23 0.49 0.55 0.40 0.32 0.30 0.31 0.35 0.40 0.40 0.35 0.32 0.29 0.23 0.17 0.16 0.18 0.22 0.23 0.24 0.24 0.25 0.27 0.26 0.22 0.19 0.17 0.16 0.15 0.15 0.15 0.14 0.15 0.16

GEFSNGP_prec_meanprecacc_060.txt.gz
Total_Precipitation_Accumulation
0.00 0.00 0.01 0.02 0.04 0.03 0.02 0.01 0.04 0.03 0.03 0.02 0.00 0.00 0.00 0.00 0.00 0.00 0.00 0.00 0.00 0.00 0.00 0.00 0.00 0.00 0.00 0.01 0.01 0.02 0.03 0.04 0.04 0.04 0.04 0.05 0.06 0.09 0.10 0.11 0.12 0.18 0.25 0.27
0.00 0.01 0.02 0.03 0.05 0.03 0.01 0.00 0.00 0.00 0.00 0.00 0.00 0.01 0.01 0.01 0.02 0.01 0.01 0.02 0.02 0.02 0.02 0.03 0.03 0.03 0.03 0.04 0.04 0.05 0.08 0.10 0.08 0.09 0.09 0.09 0.10 0.11 0.11 0.13 0.16 0.19 0.21 0.24
0.00 0.00 0.01 0.04 0.04 0.02 0.00 0.00 0.00 0.00 0.01 0.01 0.02 0.03 0.05 0.07 0.08 0.08 0.08 0.08 0.07 0.07 0.05 0.04 0.03 0.03 0.03 0.03 0.03 0.04 0.07 0.12 0.13 0.13 0.13 0.10 0.10 0.12 0.14 0.18 0.22 0.24 0.25 0.27
0.00 0.00 0.03 0.04 0.01 0.01 0.01 0.01 0.01 0.03 0.05 0.08 0.12 0.14 0.17 0.22 0.22 0.16 0.10 0.07 0.04 0.03 0.01 0.01 0.01 0.01 0.02 0.02 0.03 0.03 0.05 0.12 0.17 0.18 0.17 0.15 0.17 0.20 0.22 0.25 0.28 0.30 0.31 0.34
0.00 0.00 0.02 0.01 0.01 0.01 0.02 0.04 0.05 0.10 0.17 0.22 0.26 0.26 0.21 0.16 0.12 0.08 0.04 0.02 0.01 0.01 0.01 0.01 0.01 0.02 0.03 0.04 0.04 0.06 0.08 0.13 0.18 0.25 0.26 0.25 0.27 0.31 0.34 0.37 0.35 0.35 0.37 0.41
0.00 0.01 0.03 0.01 0.02 0.05 0.06 0.13 0.18 0.21 0.21 0.16 0.12 0.11 0.08 0.03 0.01 0.01 0.01 0.00 0.01 0.01 0.01 0.02 0.03 0.04 0.05 0.07 0.09 0.12 0.13 0.17 0.23 0.31 0.36 0.35 0.36 0.40 0.42 0.46 0.44 0.42 0.40 0.42
0.01 0.01 0.02 0.03 0.05 0.10 0.17 0.22 0.18 0.13 0.10 0.08 0.07 0.06 0.03 0.01 0.01 0.01 0.00 0.00 0.01 0.01 0.03 0.05 0.08 0.12 0.16 0.18 0.21 0.21 0.22 0.25 0.30 0.36 0.42 0.42 0.44 0.46 0.49 0.49 0.51 0.50 0.49 0.47
0.01 0.04 0.07 0.06 0.06 0.10 0.10 0.08 0.06 0.05 0.04 0.03 0.02 0.01 0.01 0.00 0.01 0.01 0.00 0.00 0.01 0.03 0.03 0.05 0.11 0.18 0.24 0.26 0.26 0.28 0.32 0.33 0.36 0.42 0.44 0.43 0.54 0.60 0.65 0.66 0.63 0.60 0.63 0.60
0.01 0.04 0.03 0.02 0.02 0.03 0.03 0.03 0.03 0.02 0.02 0.01 0.01 0.00 0.00 0.00 0.00 0.00 0.00 0.00 0.01 0.02 0.04 0.06 0.10 0.16 0.22 0.24 0.26 0.28 0.31 0.33 0.38 0.47 0.53 0.57 0.63 0.67 0.76 0.80 0.77 0.72 0.73 0.77
0.04 0.04 0.04 0.02 0.01 0.01 0.01 0.01 0.01 0.00 0.00 0.00 0.00 0.00 0.00 0.00 0.00 0.00 0.00 0.00 0.01 0.03 0.06 0.07 0.09 0.12 0.17 0.24 0.31 0.35 0.36 0.36 0.40 0.47 0.54 0.66 0.76 0.76 0.78 0.81 0.83 0.82 0.79 0.76
0.02 0.03 0.03 0.01 0.00 0.00 0.00 0.00 0.00 0.00 0.00 0.00 0.00 0.00 0.00 0.00 0.00 0.00 0.01 0.02 0.04 0.08 0.10 0.10 0.10 0.11 0.13 0.20 0.32 0.39 0.39 0.38 0.42 0.48 0.55 0.68 0.81 0.84 0.75 0.75 0.78 0.75 0.70 0.67
0.00 0.00 0.00 0.00 0.00 0.00 0.00 0.00 0.00 0.00 0.00 0.00 0.00 0.00 0.00 0.00 0.00 0.01 0.02 0.06 0.10 0.13 0.14 0.13 0.13 0.14 0.15 0.21 0.33 0.42 0.43 0.40 0.43 0.48 0.56 0.66 0.79 0.84 0.69 0.56 0.54 0.55 0.49 0.44
0.00 0.00 0.00 0.00 0.00 0.00 0.00 0.00 0.00 0.00 0.00 0.00 0.00 0.00 0.00 0.00 0.01 0.02 0.06 0.13 0.19 0.21 0.20 0.19 0.20 0.20 0.21 0.26 0.41 0.55 0.51 0.46 0.48 0.50 0.55 0.61 0.70 0.82 0.84 0.67 0.49 0.43 0.35 0.27
0.00 0.00 0.00 0.00 0.00 0.00 0.00 0.00 0.00 0.00 0.00 0.00 0.00 0.00 0.00 0.01 0.02 0.06 0.12 0.21 0.27 0.28 0.27 0.28 0.28 0.26 0.26 0.30 0.36 0.60 0.69 0.59 0.50 0.50 0.56 0.62 0.68 0.75 0.84 0.88 0.78 0.59 0.37 0.23
0.00 0.00 0.00 0.00 0.00 0.00 0.00 0.00 0.00 0.00 0.00 0.00 0.00 0.00 0.01 0.02 0.06 0.11 0.19 0.31 0.39 0.39 0.35 0.35 0.35 0.31 0.30 0.31 0.33 0.42 0.62 0.66 0.58 0.52 0.57 0.64 0.68 0.72 0.80 0.84 0.90 0.85 0.60 0.32
0.00 0.00 0.00 0.00 0.00 0.00 0.00 0.00 0.00 0.00 0.01 0.01 0.01 0.01 0.02 0.05 0.09 0.15 0.25 0.40 0.59 0.61 0.52 0.47 0.43 0.37 0.34 0.35 0.35 0.39 0.47 0.46 0.46 0.53 0.59 0.65 0.70 0.73 0.76 0.83 0.86 0.85 0.71 0.46
0.00 0.00 0.00 0.01 0.01 0.01 0.01 0.01 0.01 0.01 0.01 0.01 0.02 0.04 0.06 0.11 0.19 0.28 0.35 0.45 0.56 0.61 0.58 0.57 0.50 0.41 0.37 0.38 0.40 0.42 0.48 0.42 0.32 0.43 0.57 0.62 0.68 0.73 0.74 0.77 0.80 0.77 0.65 0.40
0.00 0.01 0.01 0.01 0.01 0.01 0.01 0.01 0.01 0.02 0.02 0.04 0.06 0.09 0.14 0.24 0.41 0.53 0.58 0.62 0.62 0.54 0.51 0.54 0.45 0.36 0.33 0.33 0.35 0.39 0.51 0.50 0.36 0.39 0.52 0.57 0.60 0.72 0.73 0.71 0.70 0.68 0.56 0.34
0.02 0.02 0.02 0.02 0.02 0.02 0.01 0.01 0.02 0.03 0.05 0.08 0.14 0.18 0.22 0.31 0.48 0.61 0.67 0.78 0.85 0.77 0.62 0.51 0.40 0.32 0.29 0.24 0.23 0.31 0.43 0.48 0.39 0.37 0.47 0.45 0.51 0.66 0.67 0.63 0.63 0.61 0.48 0.34
0.03 0.02 0.02 0.02 0.01 0.01 0.01 0.02 0.04 0.06 0.08 0.14 0.22 0.28 0.33 0.38 0.49 0.61 0.64 0.71 0.84 0.87 0.73 0.55 0.37 0.29 0.23 0.18 0.19 0.26 0.37 0.45 0.38 0.30 0.34 0.42 0.49 0.56 0.59 0.54 0.52 0.51 0.41 0.31
0.01 0.01 0.01 0.01 0.01 0.01 0.01 0.02 0.06 0.10 0.13 0.19 0.28 0.36 0.44 0.44 0.46 0.55 0.68 0.76 0.71 0.75 0.73 0.63 0.43 0.28 0.19 0.18 0.20 0.28 0.38 0.44 0.35 0.25 0.26 0.32 0.41 0.49 0.51 0.46 0.43 0.40 0.34 0.29
0.00 0.00 0.00 0.00 0.00 0.00 0.01 0.03 0.07 0.10 0.15 0.25 0.33 0.40 0.49 0.48 0.48 0.47 0.51 0.64 0.68 0.77 0.72 0.65 0.53 0.37 0.24 0.18 0.19 0.24 0.33 0.37 0.32 0.21 0.18 0.22 0.31 0.38 0.39 0.37 0.36 0.33 0.29 0.26
0.00 0.00 0.00 0.00 0.00 0.00 0.01 0.03 0.04 0.07 0.19 0.32 0.39 0.45 0.51 0.47 0.51 0.61 0.56 0.47 0.52 0.66 0.59 0.52 0.51 0.41 0.28 0.21 0.18 0.21 0.30 0.36 0.34 0.21 0.16 0.19 0.23 0.26 0.27 0.27 0.24 0.23 0.24 0.21
0.00 0.00 0.00 0.00 0.00 0.01 0.02 0.03 0.03 0.06 0.17 0.29 0.29 0.35 0.41 0.42 0.43 0.46 0.48 0.46 0.50 0.56 0.48 0.42 0.41 0.38 0.34 0.28 0.25 0.25 0.30 0.34 0.31 0.21 0.15 0.16 0.17 0.18 0.20 0.20 0.18 0.19 0.20 0.18
0.01 0.01 0.01 0.01 0.02 0.03 0.05 0.04 0.04 0.07 0.20 0.33 0.28 0.29 0.30 0.33 0.43 0.46 0.43 0.40 0.43 0.47 0.41 0.37 0.35 0.33 0.30 0.33 0.36 0.34 0.30 0.28 0.26 0.19 0.15 0.14 0.14 0.15 0.17 0.18 0.16 0.16 0.16 0.17
0.01 0.01 0.01 0.01 0.03 0.04 0.05 0.05 0.06 0.08 0.24 0.46 0.42 0.34 0.31 0.29 0.32 0.38 0.42 0.40 0.39 0.42 0.37 0.32 0.28 0.28 0.28 0.35 0.38 0.35 0.29 0.25 0.25 0.22 0.19 0.17 0.17 0.17 0.17 0.19 0.18 0.16 0.14 0.17
0.01 0.01 0.02 0.02 0.02 0.03 0.04 0.06 0.07 0.09 0.23 0.49 0.56 0.40 0.33 0.30 0.32 0.36 0.41 0.42 0.38 0.36 0.32 0.27 0.22 0.21 0.22 0.25 0.25 0.25 0.25 0.26 0.28 0.26 0.23 0.20 0.18 0.17 0.16 0.16 0.16 0.15 0.15 0.16

GEFSNGP_prec_meanprecacc_066.txt.gz
Total_Precipitation_Accumulation
0.00 0.00 0.01 0.02 0.04 0.03 0.02 0.02 0.04 0.03 0.03 0.02 0.00 0.00 0.00 0.00 0.00 0.00 0.00 0.00 0.00 0.00 0.00 0.00 0.00 0.00 0.00 0.01 0.01 0.02 0.03 0.04 0.04 0.04 0.04 0.05 0.06 0.09 0.10 0.11 0.13 0.18 0.25 0.28
0.00 0.01 0.02 0.03 0.05 0.03 0.01 0.00 0.00 0.00 0.00 0.00 0.00 0.01 0.01 0.01 0.02 0.01 0.01 0.02 0.02 0.02 0.02 0.03 0.03 0.03 0.03 0.04 0.04 0.05 0.08 0.10 0.08 0.09 0.09 0.09 0.10 0.11 0.11 0.14 0.17 0.20 0.22 0.25
0.00 0.00 0.01 0.04 0.04 0.02 0.00 0.00 0.00 0.00 0.01 0.01 0.02 0.03 0.05 0.07 0.08 0.08 0.08 0.08 0.07 0.07 0.05 0.04 0.03 0.03 0.03 0.03 0.03 0.04 0.07 0.12 0.13 0.13 0.13 0.10 0.10 0.12 0.14 0.18 0.22 0.25 0.26 0.28
0.00 0.00 0.03 0.04 0.01 0.01 0.01 0.01 0.01 0.03 0.05 0.08 0.12 0.14 0.17 0.22 0.22 0.16 0.10 0.07 0.04 0.03 0.01 0.01 0.01 0.01 0.02 0.02 0.03 0.03 0.05 0.12 0.17 0.18 0.17 0.15 0.17 0.20 0.22 0.26 0.28 0.31 0.32 0.35
0.00 0.00 0.02 0.01 0.01 0.01 0.02 0.04 0.05 0.10 0.17 0.22 0.26 0.26 0.21 0.16 0.12 0.08 0.04 0.02 0.01 0.01 0.01 0.01 0.01 0.02 0.03 0.04 0.04 0.06 0.08 0.13 0.18 0.25 0.26 0.25 0.27 0.31 0.35 0.37 0.36 0.36 0.38 0.41
0.01 0.02 0.03 0.01 0.02 0.05 0.06 0.13 0.18 0.21 0.21 0.16 0.12 0.11 0.08 0.03 0.01 0.01 0.01 0.00 0.01 0.01 0.01 0.02 0.03 0.04 0.05 0.07 0.09 0.12 0.13 0.17 0.23 0.31 0.36 0.35 0.37 0.41 0.43 0.46 0.44 0.42 0.40 0.43
0.02 0.02 0.02 0.03 0.06 0.10 0.17 0.22 0.18 0.13 0.10 0.08 0.07 0.06 0.03 0.01 0.01 0.01 0.00 0.00 0.01 0.01 0.03 0.05 0.08 0.12 0.16 0.18 0.21 0.21 0.22 0.25 0.30 0.36 0.42 0.42 0.44 0.47 0.49 0.50 0.51 0.51 0.49 0.48
0.02 0.05 0.07 0.06 0.06 0.10 0.10 0.08 0.06 0.05 0.04 0.03 0.02 0.01 0.01 0.00 0.01 0.01 0.00 0.00 0.01 0.03 0.03 0.05 0.11 0.18 0.24 0.26 0.26 0.28 0.32 0.33 0.36 0.42 0.44 0.43 0.54 0.60 0.65 0.66 0.63 0.60 0.64 0.61
0.02 0.04 0.03 0.02 0.03 0.03 0.03 0.03 0.03 0.02 0.02 0.01 0.01 0.00 0.00 0.00 0.00 0.00 0.00 0.00 0.01 0.02 0.04 0.06 0.10 0.16 0.22 0.24 0.26 0.28 0.31 0.33 0.38 0.47 0.53 0.57 0.64 0.68 0.76 0.80 0.78 0.73 0.73 0.77
0.04 0.04 0.04 0.02 0.01 0.01 0.01 0.01 0.01 0.00 0.00 0.00 0.00 0.00 0.00 0.00 0.00 0.00 0.00 0.00 0.01 0.03 0.06 0.07 0.09 0.12 0.17 0.24 0.31 0.35 0.36 0.37 0.40 0.47 0.54 0.66 0.76 0.77 0.78 0.82 0.84 0.83 0.80 0.77
0.02 0.03 0.03 0.01 0.00 0.00 0.00 0.00 0.00 0.00 0.00 0.00 0.00 0.00 0.00 0.00 0.00 0.00 0.01 0.02 0.04 0.08 0.10 0.10 0.10 0.11 0.13 0.20 0.32 0.39 0.39 0.38 0.42 0.48 0.55 0.68 0.82 0.84 0.75 0.76 0.79 0.75 0.71 0.68
0.00 0.00 0.00 0.00 0.00 0.00 0.00 0.00 0.00 0.00 0.00 0.00 0.00 0.00 0.00 0.00 0.00 0.01 0.02 0.06 0.10 0.13 0.14 0.13 0.13 0.14 0.15 0.21 0.33 0.42 0.43 0.40 0.43 0.48 0.56 0.66 0.79 0.85 0.70 0.56 0.54 0.55 0.49 0.44
0.00 0.00 0.00 0.00 0.00 0.00 0.00 0.00 0.00 0.00 0.00 0.00 0.00 0.00 0.00 0.00 0.01 0.02 0.06 0.13 0.19 0.21 0.20 0.19 0.20 0.20 0.21 0.27 0.41 0.55 0.51 0.46 0.48 0.50 0.55 0.61 0.71 0.82 0.85 0.68 0.49 0.43 0.35 0.27
0.00 0.00 0.00 0.00 0.00 0.00 0.00 0.00 0.00 0.00 0.00 0.00 0.00 0.00 0.00 0.01 0.02 0.06 0.13 0.22 0.27 0.29 0.27 0.28 0.28 0.26 0.27 0.30 0.36 0.60 0.70 0.59 0.50 0.50 0.56 0.62 0.68 0.76 0.85 0.89 0.79 0.61 0.39 0.23
0.00 0.00 0.00 0.00 0.00 0.00 0.00 0.00 0.00 0.00 0.00 0.00 0.00 0.00 0.01 0.03 0.07 0.11 0.19 0.31 0.40 0.39 0.36 0.35 0.35 0.31 0.30 0.31 0.33 0.43 0.63 0.66 0.58 0.52 0.57 0.64 0.68 0.73 0.81 0.87 0.92 0.88 0.63 0.35
0.00 0.00 0.00 0.00 0.00 0.00 0.00 0.00 0.00 0.01 0.01 0.01 0.01 0.02 0.03 0.05 0.09 0.16 0.25 0.41 0.59 0.61 0.52 0.47 0.44 0.37 0.35 0.36 0.36 0.40 0.48 0.46 0.46 0.53 0.59 0.65 0.71 0.74 0.78 0.85 0.89 0.89 0.75 0.50
0.01 0.00 0.00 0.01 0.01 0.01 0.01 0.01 0.01 0.01 0.01 0.02 0.03 0.04 0.07 0.12 0.20 0.28 0.36 0.46 0.57 0.62 0.60 0.59 0.52 0.43 0.39 0.39 0.41 0.42 0.48 0.42 0.32 0.43 0.57 0.63 0.69 0.74 0.75 0.79 0.83 0.82 0.71 0.44
0.01 0.01 0.01 0.01 0.02 0.02 0.02 0.01 0.01 0.02 0.03 0.04 0.06 0.09 0.14 0.24 0.42 0.54 0.59 0.63 0.64 0.56 0.53 0.55 0.46 0.37 0.33 0.33 0.36 0.39 0.51 0.50 0.36 0.39 0.52 0.58 0.61 0.73 0.75 0.74 0.74 0.73 0.61 0.38
0.02 0.02 0.02 0.02 0.02 0.02 0.02 0.02 0.02 0.03 0.05 0.08 0.14 0.18 0.22 0.32 0.48 0.62 0.68 0.78 0.85 0.77 0.62 0.52 0.40 0.32 0.29 0.24 0.24 0.31 0.43 0.49 0.40 0.37 0.47 0.45 0.52 0.68 0.70 0.67 0.66 0.65 0.51 0.38
0.03 0.03 0.02 0.02 0.01 0.01 0.01 0.02 0.04 0.06 0.08 0.14 0.22 0.28 0.33 0.38 0.49 0.61 0.64 0.71 0.84 0.87 0.73 0.55 0.37 0.29 0.23 0.18 0.19 0.26 0.37 0.46 0.38 0.30 0.34 0.43 0.52 0.60 0.63 0.58 0.56 0.55 0.45 0.34
0.02 0.01 0.01 0.01 0.01 0.01 0.01 0.02 0.06 0.10 0.13 0.19 0.28 0.37 0.44 0.44 0.46 0.55 0.69 0.76 0.71 0.75 0.73 0.63 0.43 0.28 0.20 0.18 0.20 0.28 0.38 0.44 0.35 0.25 0.26 0.33 0.44 0.53 0.55 0.50 0.47 0.45 0.38 0.33
0.00 0.00 0.00 0.00 0.00 0.00 0.01 0.03 0.07 0.10 0.15 0.25 0.33 0.40 0.49 0.48 0.48 0.47 0.51 0.64 0.68 0.77 0.72 0.66 0.53 0.37 0.24 0.19 0.19 0.25 0.33 0.38 0.33 0.22 0.18 0.24 0.34 0.42 0.42 0.41 0.41 0.37 0.34 0.30
0.00 0.00 0.00 0.00 0.00 0.00 0.01 0.03 0.04 0.07 0.19 0.32 0.39 0.45 0.51 0.47 0.51 0.61 0.56 0.47 0.52 0.66 0.59 0.52 0.51 0.42 0.29 0.22 0.19 0.22 0.32 0.38 0.35 0.22 0.16 0.20 0.26 0.29 0.31 0.30 0.29 0.27 0.28 0.24
0.00 0.00 0.00 0.00 0.00 0.01 0.02 0.03 0.03 0.06 0.17 0.29 0.29 0.35 0.41 0.42 0.43 0.46 0.48 0.47 0.50 0.57 0.48 0.43 0.42 0.40 0.36 0.30 0.27 0.27 0.32 0.36 0.33 0.22 0.17 0.18 0.19 0.20 0.23 0.24 0.22 0.22 0.24 0.20
0.01 0.01 0.01 0.01 0.02 0.03 0.05 0.04 0.04 0.07 0.20 0.33 0.28 0.29 0.30 0.34 0.43 0.46 0.44 0.40 0.44 0.47 0.42 0.39 0.37 0.35 0.32 0.36 0.39 0.37 0.33 0.31 0.28 0.21 0.16 0.15 0.16 0.17 0.19 0.20 0.20 0.19 0.18 0.19
0.01 0.01 0.01 0.01 0.03 0.04 0.05 0.06 0.06 0.08 0.24 0.46 0.42 0.34 0.31 0.30 0.33 0.39 0.43 0.41 0.41 0.44 0.39 0.34 0.31 0.31 0.31 0.39 0.43 0.39 0.32 0.27 0.26 0.24 0.21 0.19 0.19 0.19 0.19 0.21 0.21 0.18 0.16 0.18
0.01 0.01 0.02 0.02 0.02 0.03 0.04 0.06 0.07 0.09 0.23 0.50 0.56 0.41 0.33 0.30 0.32 0.37 0.43 0.44 0.41 0.39 0.35 0.30 0.26 0.25 0.27 0.30 0.31 0.30 0.29 0.29 0.30 0.28 0.25 0.22 0.20 0.19 0.18 0.19 0.19 0.16 0.17 0.17

GEFSNGP_prec_meanprecacc_072.txt.gz
Total_Precipitation_Accumulation
0.00 0.01 0.01 0.02 0.04 0.04 0.02 0.02 0.04 0.04 0.04 0.03 0.01 0.00 0.00 0.00 0.00 0.00 0.00 0.00 0.00 0.00 0.00 0.00 0.00 0.00 0.00 0.01 0.01 0.02 0.03 0.04 0.04 0.04 0.04 0.05 0.06 0.09 0.11 0.12 0.13 0.19 0.26 0.29
0.00 0.01 0.02 0.03 0.05 0.03 0.01 0.00 0.00 0.00 0.01 0.00 0.00 0.01 0.01 0.01 0.02 0.01 0.01 0.02 0.02 0.02 0.02 0.03 0.03 0.03 0.03 0.04 0.04 0.05 0.08 0.10 0.08 0.09 0.09 0.09 0.10 0.11 0.12 0.14 0.17 0.20 0.23 0.26
0.00 0.01 0.01 0.05 0.04 0.02 0.00 0.00 0.00 0.00 0.01 0.01 0.02 0.03 0.05 0.07 0.08 0.08 0.08 0.08 0.07 0.07 0.05 0.04 0.03 0.03 0.03 0.03 0.03 0.04 0.07 0.12 0.13 0.13 0.13 0.10 0.10 0.12 0.14 0.18 0.22 0.26 0.27 0.29
0.00 0.00 0.04 0.04 0.01 0.01 0.01 0.01 0.01 0.03 0.05 0.08 0.12 0.14 0.17 0.22 0.22 0.16 0.10 0.07 0.04 0.03 0.01 0.01 0.01 0.01 0.02 0.02 0.03 0.03 0.05 0.12 0.17 0.18 0.17 0.15 0.17 0.20 0.23 0.26 0.29 0.32 0.33 0.36
0.00 0.00 0.02 0.02 0.02 0.02 0.03 0.05 0.07 0.10 0.17 0.22 0.26 0.26 0.22 0.16 0.12 0.08 0.04 0.02 0.01 0.01 0.01 0.01 0.01 0.02 0.03 0.04 0.04 0.06 0.08 0.13 0.18 0.25 0.26 0.25 0.27 0.31 0.35 0.38 0.37 0.37 0.39 0.43
0.01 0.02 0.04 0.04 0.06 0.08 0.08 0.16 0.19 0.22 0.21 0.16 0.12 0.11 0.08 0.03 0.01 0.01 0.01 0.00 0.01 0.01 0.01 0.02 0.03 0.04 0.05 0.07 0.09 0.12 0.13 0.17 0.23 0.31 0.36 0.35 0.37 0.41 0.43 0.47 0.45 0.43 0.41 0.45
0.02 0.03 0.03 0.07 0.10 0.14 0.22 0.28 0.20 0.15 0.12 0.09 0.07 0.06 0.03 0.01 0.01 0.01 0.00 0.00 0.01 0.01 0.03 0.05 0.08 0.12 0.16 0.18 0.21 0.21 0.22 0.25 0.30 0.36 0.43 0.42 0.44 0.47 0.50 0.51 0.52 0.52 0.50 0.50
0.04 0.09 0.11 0.10 0.12 0.20 0.20 0.13 0.08 0.06 0.05 0.04 0.03 0.01 0.01 0.00 0.01 0.01 0.00 0.00 0.01 0.03 0.03 0.05 0.11 0.18 0.24 0.26 0.26 0.28 0.32 0.33 0.36 0.42 0.44 0.43 0.54 0.61 0.66 0.68 0.65 0.63 0.68 0.64
0.04 0.09 0.10 0.08 0.09 0.10 0.09 0.07 0.05 0.04 0.03 0.02 0.01 0.00 0.00 0.00 0.00 0.00 0.00 0.00 0.01 0.02 0.04 0.06 0.10 0.16 0.22 0.24 0.26 0.28 0.31 0.33 0.38 0.47 0.53 0.57 0.64 0.68 0.77 0.82 0.79 0.75 0.76 0.80
0.06 0.06 0.08 0.06 0.04 0.03 0.03 0.03 0.02 0.01 0.01 0.00 0.00 0.00 0.00 0.00 0.00 0.00 0.00 0.01 0.01 0.03 0.06 0.07 0.09 0.12 0.17 0.24 0.31 0.35 0.36 0.37 0.41 0.47 0.54 0.66 0.77 0.77 0.79 0.83 0.85 0.85 0.82 0.79
0.03 0.04 0.05 0.04 0.02 0.01 0.01 0.00 0.00 0.00 0.00 0.00 0.00 0.00 0.00 0.00 0.00 0.01 0.01 0.02 0.04 0.08 0.10 0.11 0.10 0.11 0.13 0.20 0.32 0.39 0.39 0.39 0.43 0.48 0.55 0.69 0.82 0.85 0.76 0.77 0.79 0.76 0.71 0.69
0.03 0.04 0.05 0.06 0.03 0.01 0.00 0.00 0.00 0.00 0.00 0.00 0.00 0.00 0.00 0.00 0.00 0.01 0.02 0.06 0.10 0.13 0.14 0.13 0.13 0.14 0.16 0.21 0.33 0.43 0.43 0.41 0.43 0.48 0.56 0.66 0.79 0.85 0.70 0.57 0.55 0.55 0.49 0.44
0.02 0.03 0.02 0.01 0.00 0.00 0.00 0.00 0.00 0.00 0.00 0.00 0.00 0.00 0.00 0.00 0.01 0.03 0.06 0.13 0.19 0.22 0.21 0.20 0.20 0.20 0.21 0.27 0.41 0.56 0.53 0.47 0.49 0.51 0.56 0.61 0.71 0.83 0.86 0.70 0.50 0.44 0.35 0.27
0.02 0.01 0.01 0.00 0.00 0.00 0.00 0.00 0.00 0.00 0.00 0.00 0.00 0.00 0.00 0.01 0.03 0.06 0.13 0.22 0.28 0.29 0.27 0.28 0.28 0.26 0.27 0.30 0.38 0.62 0.71 0.60 0.52 0.51 0.57 0.62 0.68 0.76 0.87 0.92 0.83 0.65 0.43 0.25
0.03 0.01 0.01 0.00 0.00 0.00 0.00 0.00 0.00 0.00 0.00 0.00 0.00 0.00 0.01 0.03 0.07 0.11 0.19 0.31 0.40 0.39 0.36 0.35 0.35 0.32 0.31 0.32 0.35 0.45 0.64 0.67 0.59 0.53 0.57 0.65 0.69 0.74 0.82 0.88 0.96 0.92 0.70 0.41
0.02 0.01 0.00 0.00 0.00 0.00 0.00 0.00 0.01 0.01 0.01 0.01 0.01 0.02 0.03 0.05 0.10 0.16 0.25 0.41 0.59 0.62 0.53 0.48 0.44 0.38 0.36 0.37 0.39 0.42 0.50 0.47 0.47 0.54 0.59 0.66 0.71 0.74 0.79 0.87 0.93 0.95 0.83 0.59
0.01 0.01 0.01 0.01 0.01 0.01 0.01 0.01 0.01 0.01 0.01 0.02 0.03 0.04 0.07 0.12 0.20 0.28 0.36 0.46 0.57 0.62 0.60 0.59 0.52 0.43 0.39 0.41 0.43 0.44 0.50 0.43 0.33 0.44 0.57 0.63 0.70 0.75 0.77 0.82 0.88 0.90 0.80 0.50
0.01 0.01 0.01 0.02 0.02 0.02 0.02 0.01 0.01 0.02 0.03 0.04 0.06 0.09 0.14 0.24 0.42 0.54 0.59 0.63 0.64 0.56 0.53 0.55 0.46 0.37 0.33 0.34 0.37 0.41 0.51 0.50 0.37 0.40 0.53 0.58 0.61 0.74 0.77 0.78 0.79 0.81 0.71 0.44
0.02 0.02 0.02 0.02 0.02 0.02 0.02 0.02 0.02 0.03 0.05 0.08 0.14 0.18 0.22 0.32 0.48 0.62 0.68 0.78 0.85 0.78 0.62 0.52 0.40 0.32 0.29 0.25 0.24 0.33 0.45 0.49 0.40 0.38 0.48 0.47 0.53 0.70 0.74 0.72 0.73 0.72 0.57 0.44
0.03 0.03 0.02 0.02 0.01 0.01 0.01 0.02 0.04 0.06 0.08 0.14 0.22 0.28 0.33 0.38 0.49 0.61 0.64 0.71 0.84 0.87 0.73 0.55 0.37 0.29 0.24 0.19 0.19 0.27 0.39 0.47 0.39 0.32 0.36 0.44 0.54 0.64 0.68 0.65 0.63 0.63 0.52 0.41
0.02 0.01 0.01 0.01 0.01 0.01 0.01 0.02 0.06 0.10 0.13 0.19 0.28 0.37 0.44 0.44 0.46 0.55 0.69 0.76 0.71 0.75 0.73 0.63 0.44 0.29 0.20 0.19 0.20 0.28 0.39 0.45 0.37 0.28 0.28 0.36 0.49 0.59 0.62 0.60 0.57 0.55 0.48 0.41
0.00 0.00 0.00 0.00 0.00 0.00 0.01 0.03 0.07 0.10 0.15 0.25 0.33 0.40 0.49 0.48 0.48 0.47 0.51 0.64 0.68 0.77 0.72 0.66 0.54 0.37 0.24 0.19 0.20 0.26 0.35 0.41 0.36 0.26 0.22 0.29 0.41 0.48 0.50 0.50 0.52 0.49 0.44 0.39
0.00 0.00 0.00 0.00 0.00 0.00 0.01 0.03 0.04 0.07 0.19 0.32 0.39 0.45 0.51 0.47 0.51 0.61 0.56 0.47 0.53 0.66 0.60 0.53 0.51 0.42 0.29 0.22 0.21 0.25 0.35 0.42 0.40 0.28 0.22 0.28 0.33 0.34 0.37 0.38 0.39 0.40 0.38 0.32
0.00 0.00 0.00 0.00 0.00 0.01 0.02 0.03 0.03 0.06 0.17 0.29 0.29 0.36 0.41 0.42 0.43 0.46 0.48 0.47 0.51 0.57 0.49 0.44 0.42 0.40 0.37 0.32 0.31 0.32 0.37 0.41 0.38 0.28 0.23 0.24 0.25 0.25 0.30 0.34 0.34 0.33 0.31 0.26
0.01 0.01 0.01 0.01 0.02 0.03 0.05 0.04 0.04 0.07 0.21 0.33 0.28 0.29 0.30 0.34 0.43 0.46 0.44 0.41 0.45 0.48 0.44 0.42 0.38 0.36 0.34 0.40 0.44 0.42 0.38 0.37 0.33 0.26 0.22 0.21 0.23 0.25 0.28 0.30 0.28 0.25 0.24 0.24
0.01 0.01 0.01 0.01 0.03 0.04 0.05 0.06 0.06 0.08 0.24 0.46 0.42 0.34 0.32 0.30 0.33 0.39 0.44 0.42 0.43 0.47 0.43 0.39 0.34 0.34 0.34 0.42 0.47 0.44 0.37 0.33 0.32 0.28 0.25 0.23 0.26 0.29 0.29 0.30 0.27 0.22 0.19 0.20
0.01 0.02 0.02 0.02 0.03 0.03 0.05 0.07 0.07 0.10 0.23 0.50 0.56 0.41 0.33 0.31 0.33 0.38 0.44 0.46 0.44 0.43 0.39 0.34 0.30 0.29 0.30 0.34 0.34 0.34 0.34 0.34 0.34 0.33 0.29 0.25 0.24 0.25 0.23 0.24 0.23 0.19 0.20 0.19

GEFSNGP_prec_meanprecacc_078.txt.gz
Total_Precipitation_Accumulation
0.00 0.02 0.03 0.04 0.05 0.05 0.03 0.03 0.05 0.05 0.06 0.05 0.02 0.01 0.01 0.01 0.00 0.00 0.00 0.00 0.00 0.00 0.00 0.00 0.00 0.00 0.01 0.01 0.01 0.02 0.03 0.04 0.04 0.04 0.05 0.05 0.06 0.09 0.11 0.12 0.13 0.19 0.26 0.29
0.00 0.01 0.03 0.04 0.07 0.05 0.02 0.02 0.01 0.01 0.02 0.03 0.04 0.03 0.03 0.02 0.02 0.02 0.02 0.02 0.02 0.02 0.02 0.03 0.03 0.03 0.03 0.04 0.04 0.05 0.08 0.10 0.09 0.09 0.10 0.09 0.10 0.11 0.12 0.14 0.17 0.20 0.23 0.26
0.00 0.02 0.02 0.06 0.06 0.04 0.02 0.02 0.02 0.03 0.04 0.05 0.06 0.06 0.08 0.10 0.11 0.09 0.09 0.08 0.07 0.07 0.05 0.04 0.03 0.03 0.03 0.03 0.03 0.04 0.07 0.12 0.13 0.13 0.13 0.10 0.10 0.12 0.14 0.18 0.22 0.26 0.27 0.29
0.01 0.02 0.05 0.05 0.04 0.03 0.03 0.03 0.05 0.09 0.12 0.14 0.17 0.18 0.21 0.26 0.23 0.16 0.10 0.07 0.05 0.03 0.01 0.01 0.01 0.01 0.02 0.02 0.03 0.03 0.05 0.12 0.17 0.19 0.17 0.15 0.17 0.20 0.23 0.26 0.29 0.32 0.33 0.36
0.02 0.03 0.04 0.03 0.05 0.05 0.06 0.08 0.12 0.20 0.27 0.30 0.30 0.29 0.25 0.18 0.13 0.08 0.04 0.02 0.01 0.01 0.01 0.01 0.01 0.02 0.03 0.04 0.04 0.06 0.09 0.13 0.19 0.25 0.26 0.26 0.27 0.31 0.35 0.38 0.37 0.37 0.39 0.43
0.03 0.05 0.07 0.07 0.10 0.12 0.12 0.21 0.27 0.32 0.31 0.23 0.16 0.15 0.11 0.06 0.03 0.02 0.01 0.01 0.01 0.01 0.01 0.02 0.03 0.04 0.05 0.07 0.09 0.12 0.14 0.17 0.23 0.31 0.36 0.35 0.37 0.41 0.43 0.47 0.46 0.43 0.41 0.45
0.06 0.07 0.08 0.12 0.15 0.19 0.31 0.39 0.36 0.33 0.25 0.18 0.15 0.13 0.09 0.05 0.03 0.02 0.01 0.01 0.01 0.01 0.03 0.06 0.08 0.12 0.16 0.19 0.21 0.21 0.23 0.25 0.30 0.36 0.43 0.42 0.44 0.47 0.50 0.51 0.52 0.52 0.51 0.51
0.16 0.22 0.22 0.18 0.20 0.31 0.37 0.32 0.28 0.23 0.18 0.13 0.10 0.07 0.05 0.05 0.04 0.03 0.02 0.02 0.02 0.03 0.03 0.06 0.11 0.18 0.25 0.26 0.27 0.29 0.32 0.33 0.36 0.43 0.44 0.43 0.55 0.61 0.66 0.68 0.65 0.63 0.68 0.65
0.27 0.28 0.24 0.23 0.22 0.23 0.25 0.23 0.19 0.17 0.14 0.10 0.07 0.07 0.06 0.04 0.04 0.03 0.02 0.02 0.02 0.03 0.04 0.06 0.11 0.17 0.23 0.25 0.27 0.28 0.32 0.34 0.39 0.48 0.55 0.58 0.65 0.69 0.78 0.83 0.80 0.76 0.77 0.80
0.20 0.23 0.22 0.21 0.21 0.17 0.14 0.11 0.08 0.07 0.08 0.08 0.09 0.10 0.11 0.06 0.04 0.03 0.02 0.02 0.03 0.05 0.08 0.09 0.10 0.14 0.18 0.25 0.32 0.36 0.37 0.39 0.43 0.50 0.56 0.68 0.78 0.78 0.80 0.84 0.87 0.86 0.83 0.79
0.17 0.22 0.26 0.25 0.21 0.14 0.09 0.08 0.06 0.04 0.04 0.04 0.04 0.04 0.04 0.04 0.03 0.02 0.02 0.03 0.06 0.10 0.13 0.12 0.12 0.13 0.15 0.22 0.34 0.42 0.42 0.41 0.45 0.50 0.57 0.70 0.83 0.86 0.77 0.78 0.81 0.78 0.72 0.70
0.12 0.16 0.21 0.22 0.16 0.08 0.05 0.05 0.07 0.05 0.03 0.02 0.01 0.01 0.01 0.01 0.01 0.02 0.03 0.07 0.11 0.14 0.15 0.15 0.15 0.16 0.17 0.23 0.36 0.46 0.46 0.43 0.46 0.50 0.58 0.67 0.80 0.86 0.71 0.58 0.56 0.56 0.50 0.45
0.09 0.13 0.13 0.13 0.13 0.12 0.07 0.05 0.03 0.01 0.01 0.01 0.00 0.00 0.00 0.00 0.01 0.03 0.07 0.14 0.20 0.23 0.22 0.21 0.22 0.23 0.23 0.29 0.44 0.60 0.57 0.52 0.52 0.53 0.57 0.62 0.72 0.84 0.87 0.71 0.51 0.45 0.37 0.29
0.10 0.10 0.10 0.08 0.06 0.05 0.02 0.01 0.01 0.00 0.00 0.00 0.00 0.00 0.01 0.01 0.03 0.08 0.14 0.23 0.29 0.31 0.29 0.30 0.30 0.28 0.29 0.33 0.42 0.67 0.76 0.64 0.55 0.54 0.59 0.64 0.70 0.78 0.88 0.93 0.84 0.67 0.45 0.27
0.10 0.06 0.05 0.03 0.02 0.01 0.01 0.00 0.00 0.00 0.00 0.01 0.01 0.01 0.01 0.03 0.07 0.12 0.20 0.32 0.41 0.40 0.37 0.36 0.36 0.34 0.33 0.34 0.38 0.48 0.68 0.71 0.63 0.57 0.60 0.67 0.71 0.76 0.84 0.90 0.98 0.94 0.72 0.44
0.12 0.08 0.04 0.03 0.02 0.01 0.01 0.01 0.01 0.01 0.01 0.01 0.01 0.02 0.03 0.05 0.10 0.16 0.26 0.41 0.60 0.62 0.53 0.48 0.45 0.39 0.37 0.38 0.41 0.45 0.52 0.49 0.49 0.56 0.61 0.67 0.73 0.76 0.80 0.89 0.95 0.97 0.86 0.62
0.09 0.05 0.03 0.02 0.02 0.01 0.01 0.01 0.01 0.01 0.01 0.02 0.03 0.04 0.07 0.12 0.20 0.28 0.36 0.46 0.57 0.62 0.60 0.59 0.53 0.43 0.40 0.41 0.44 0.45 0.50 0.44 0.34 0.45 0.58 0.64 0.71 0.76 0.78 0.83 0.90 0.92 0.83 0.54
0.04 0.03 0.02 0.02 0.02 0.02 0.02 0.02 0.02 0.02 0.03 0.04 0.06 0.09 0.14 0.24 0.42 0.54 0.59 0.63 0.64 0.56 0.53 0.55 0.46 0.37 0.34 0.34 0.37 0.41 0.52 0.51 0.38 0.41 0.54 0.60 0.63 0.75 0.79 0.81 0.83 0.85 0.75 0.49
0.03 0.03 0.03 0.03 0.03 0.02 0.02 0.02 0.02 0.03 0.05 0.08 0.14 0.18 0.22 0.32 0.48 0.62 0.68 0.78 0.85 0.78 0.62 0.52 0.40 0.32 0.29 0.25 0.24 0.33 0.45 0.50 0.41 0.39 0.49 0.48 0.55 0.73 0.77 0.76 0.79 0.78 0.64 0.51
0.03 0.03 0.03 0.02 0.02 0.01 0.01 0.02 0.04 0.06 0.08 0.14 0.22 0.28 0.33 0.38 0.49 0.61 0.64 0.71 0.85 0.87 0.73 0.55 0.37 0.29 0.24 0.19 0.19 0.27 0.39 0.47 0.39 0.32 0.37 0.46 0.58 0.68 0.73 0.71 0.71 0.73 0.62 0.51
0.02 0.01 0.01 0.01 0.01 0.01 0.01 0.02 0.06 0.10 0.13 0.19 0.28 0.37 0.45 0.44 0.46 0.55 0.69 0.76 0.71 0.75 0.73 0.63 0.44 0.29 0.20 0.19 0.20 0.28 0.39 0.46 0.38 0.29 0.30 0.39 0.53 0.64 0.69 0.69 0.68 0.66 0.57 0.48
0.00 0.00 0.00 0.00 0.00 0.00 0.01 0.03 0.07 0.10 0.15 0.25 0.33 0.40 0.49 0.48 0.48 0.47 0.51 0.64 0.68 0.77 0.73 0.66 0.54 0.38 0.25 0.19 0.20 0.26 0.35 0.41 0.37 0.28 0.25 0.32 0.45 0.55 0.61 0.63 0.63 0.60 0.53 0.47
0.00 0.00 0.00 0.00 0.00 0.00 0.01 0.03 0.04 0.07 0.19 0.33 0.39 0.45 0.51 0.47 0.51 0.61 0.56 0.47 0.53 0.66 0.60 0.53 0.52 0.42 0.29 0.22 0.21 0.26 0.36 0.44 0.42 0.31 0.26 0.32 0.38 0.43 0.48 0.50 0.51 0.51 0.48 0.42
0.00 0.00 0.00 0.00 0.00 0.01 0.02 0.03 0.03 0.06 0.17 0.29 0.29 0.36 0.42 0.42 0.43 0.47 0.48 0.48 0.51 0.58 0.50 0.45 0.43 0.40 0.37 0.32 0.31 0.33 0.38 0.42 0.40 0.30 0.26 0.29 0.31 0.32 0.39 0.47 0.51 0.51 0.45 0.36
0.01 0.01 0.01 0.01 0.02 0.03 0.05 0.04 0.04 0.07 0.21 0.33 0.29 0.29 0.30 0.34 0.44 0.47 0.45 0.41 0.45 0.49 0.45 0.44 0.40 0.37 0.35 0.41 0.45 0.43 0.39 0.38 0.34 0.28 0.25 0.25 0.28 0.31 0.37 0.47 0.51 0.46 0.37 0.34
0.01 0.01 0.01 0.01 0.03 0.04 0.05 0.06 0.06 0.08 0.24 0.46 0.42 0.34 0.32 0.30 0.33 0.40 0.45 0.43 0.43 0.48 0.44 0.40 0.35 0.35 0.35 0.44 0.49 0.45 0.38 0.35 0.33 0.30 0.28 0.28 0.33 0.37 0.43 0.50 0.49 0.37 0.29 0.27
0.02 0.02 0.02 0.02 0.03 0.03 0.05 0.07 0.08 0.10 0.24 0.50 0.56 0.41 0.33 0.31 0.33 0.39 0.45 0.47 0.45 0.44 0.41 0.36 0.32 0.31 0.32 0.36 0.37 0.37 0.36 0.35 0.36 0.35 0.32 0.31 0.32 0.37 0.38 0.40 0.36 0.28 0.25 0.23

GEFSNGP_prec_meanprecacc_084.txt.gz
Total_Precipitation_Accumulation
0.01 0.02 0.03 0.04 0.05 0.05 0.03 0.03 0.05 0.05 0.06 0.05 0.03 0.02 0.01 0.01 0.01 0.01 0.01 0.01 0.01 0.01 0.01 0.02 0.03 0.03 0.04 0.04 0.04 0.03 0.04 0.05 0.05 0.05 0.05 0.05 0.07 0.10 0.11 0.12 0.13 0.19 0.26 0.29
0.00 0.02 0.03 0.04 0.07 0.06 0.03 0.02 0.01 0.02 0.02 0.03 0.04 0.03 0.03 0.03 0.02 0.02 0.02 0.03 0.03 0.03 0.03 0.03 0.03 0.04 0.04 0.04 0.05 0.06 0.08 0.10 0.09 0.10 0.10 0.10 0.11 0.11 0.12 0.14 0.18 0.21 0.23 0.26
0.00 0.02 0.02 0.06 0.06 0.04 0.03 0.03 0.03 0.03 0.04 0.05 0.06 0.07 0.09 0.12 0.12 0.10 0.09 0.09 0.08 0.07 0.06 0.05 0.04 0.03 0.04 0.04 0.05 0.05 0.07 0.12 0.13 0.14 0.13 0.11 0.11 0.12 0.15 0.19 0.23 0.26 0.27 0.29
0.01 0.02 0.05 0.06 0.04 0.04 0.04 0.03 0.05 0.10 0.13 0.15 0.18 0.20 0.23 0.28 0.26 0.18 0.12 0.08 0.05 0.03 0.02 0.02 0.02 0.02 0.02 0.03 0.03 0.04 0.06 0.12 0.17 0.19 0.18 0.16 0.17 0.20 0.23 0.27 0.29 0.32 0.33 0.36
0.03 0.03 0.04 0.04 0.05 0.06 0.07 0.09 0.13 0.21 0.28 0.31 0.32 0.31 0.26 0.20 0.15 0.10 0.06 0.03 0.02 0.01 0.01 0.01 0.02 0.02 0.04 0.04 0.05 0.06 0.09 0.14 0.19 0.25 0.27 0.26 0.27 0.31 0.35 0.38 0.37 0.37 0.39 0.43
0.04 0.05 0.07 0.07 0.11 0.14 0.15 0.23 0.29 0.33 0.33 0.25 0.19 0.18 0.13 0.08 0.05 0.03 0.02 0.02 0.02 0.02 0.02 0.03 0.04 0.05 0.06 0.08 0.10 0.13 0.14 0.18 0.24 0.32 0.37 0.36 0.37 0.41 0.44 0.47 0.46 0.43 0.42 0.45
0.06 0.08 0.09 0.12 0.16 0.21 0.35 0.41 0.38 0.34 0.27 0.21 0.18 0.16 0.13 0.08 0.05 0.04 0.02 0.02 0.02 0.03 0.04 0.07 0.09 0.13 0.17 0.20 0.22 0.22 0.24 0.26 0.31 0.37 0.44 0.43 0.46 0.48 0.51 0.52 0.53 0.53 0.51 0.51
0.16 0.23 0.23 0.19 0.22 0.33 0.40 0.34 0.29 0.25 0.20 0.16 0.13 0.11 0.09 0.08 0.07 0.05 0.04 0.04 0.04 0.05 0.05 0.08 0.13 0.20 0.26 0.28 0.28 0.30 0.34 0.35 0.38 0.44 0.45 0.44 0.55 0.62 0.67 0.69 0.66 0.64 0.69 0.65
0.27 0.28 0.25 0.23 0.23 0.26 0.28 0.26 0.22 0.19 0.16 0.13 0.10 0.10 0.08 0.07 0.07 0.06 0.05 0.05 0.05 0.06 0.07 0.08 0.13 0.19 0.25 0.27 0.29 0.31 0.34 0.36 0.41 0.50 0.56 0.60 0.66 0.70 0.80 0.85 0.82 0.77 0.77 0.81
0.21 0.24 0.23 0.22 0.22 0.19 0.17 0.14 0.10 0.09 0.10 0.11 0.11 0.13 0.13 0.08 0.06 0.05 0.04 0.04 0.05 0.07 0.10 0.12 0.14 0.17 0.21 0.27 0.34 0.38 0.39 0.41 0.46 0.52 0.58 0.69 0.79 0.79 0.81 0.85 0.88 0.87 0.84 0.80
0.19 0.25 0.29 0.29 0.24 0.18 0.13 0.11 0.09 0.07 0.08 0.08 0.08 0.07 0.08 0.09 0.07 0.05 0.04 0.04 0.07 0.11 0.14 0.14 0.14 0.15 0.17 0.24 0.36 0.43 0.44 0.43 0.47 0.52 0.59 0.71 0.84 0.87 0.78 0.79 0.82 0.79 0.74 0.71
0.14 0.19 0.26 0.27 0.21 0.12 0.09 0.10 0.12 0.10 0.08 0.08 0.05 0.02 0.02 0.02 0.03 0.03 0.04 0.07 0.12 0.15 0.16 0.16 0.16 0.17 0.19 0.24 0.38 0.48 0.48 0.46 0.48 0.52 0.60 0.70 0.83 0.88 0.73 0.60 0.59 0.59 0.52 0.46
0.12 0.16 0.17 0.17 0.17 0.17 0.14 0.13 0.09 0.05 0.04 0.03 0.02 0.02 0.01 0.01 0.01 0.04 0.08 0.15 0.21 0.24 0.22 0.21 0.23 0.24 0.25 0.31 0.46 0.62 0.59 0.54 0.55 0.57 0.62 0.66 0.75 0.87 0.90 0.73 0.54 0.47 0.38 0.30
0.13 0.14 0.14 0.13 0.12 0.12 0.08 0.06 0.04 0.04 0.03 0.02 0.02 0.02 0.02 0.02 0.03 0.08 0.15 0.24 0.30 0.31 0.30 0.31 0.31 0.29 0.30 0.34 0.43 0.68 0.78 0.67 0.58 0.57 0.63 0.68 0.74 0.81 0.90 0.95 0.85 0.68 0.46 0.27
0.14 0.10 0.10 0.09 0.08 0.08 0.06 0.05 0.05 0.05 0.03 0.02 0.01 0.01 0.01 0.03 0.07 0.12 0.20 0.32 0.41 0.40 0.37 0.36 0.37 0.34 0.33 0.35 0.38 0.49 0.69 0.73 0.64 0.59 0.62 0.69 0.72 0.77 0.85 0.91 0.98 0.94 0.72 0.44
0.17 0.13 0.10 0.09 0.08 0.06 0.05 0.04 0.04 0.03 0.02 0.02 0.02 0.02 0.03 0.05 0.10 0.16 0.26 0.41 0.60 0.62 0.53 0.49 0.45 0.39 0.37 0.39 0.41 0.45 0.53 0.50 0.49 0.56 0.61 0.67 0.73 0.76 0.80 0.89 0.95 0.97 0.86 0.63
0.16 0.12 0.10 0.08 0.07 0.05 0.04 0.04 0.03 0.03 0.02 0.02 0.03 0.04 0.07 0.12 0.20 0.28 0.36 0.46 0.57 0.62 0.60 0.59 0.53 0.43 0.40 0.42 0.45 0.45 0.50 0.44 0.34 0.45 0.58 0.64 0.71 0.76 0.78 0.84 0.90 0.92 0.84 0.54
0.09 0.07 0.06 0.06 0.06 0.06 0.05 0.04 0.03 0.03 0.03 0.05 0.07 0.09 0.14 0.24 0.42 0.54 0.59 0.63 0.64 0.56 0.53 0.55 0.46 0.37 0.34 0.34 0.37 0.41 0.52 0.51 0.38 0.41 0.54 0.60 0.63 0.76 0.80 0.81 0.84 0.86 0.76 0.51
0.08 0.07 0.05 0.04 0.04 0.04 0.04 0.03 0.03 0.04 0.05 0.09 0.14 0.18 0.22 0.32 0.48 0.62 0.68 0.78 0.85 0.78 0.62 0.52 0.40 0.32 0.29 0.25 0.24 0.33 0.45 0.50 0.41 0.39 0.49 0.48 0.55 0.73 0.77 0.77 0.80 0.80 0.66 0.55
0.05 0.05 0.04 0.04 0.03 0.02 0.02 0.02 0.04 0.06 0.08 0.14 0.22 0.28 0.33 0.38 0.49 0.61 0.64 0.71 0.85 0.87 0.73 0.55 0.37 0.29 0.24 0.19 0.19 0.27 0.39 0.47 0.39 0.32 0.37 0.46 0.58 0.69 0.74 0.72 0.73 0.75 0.65 0.55
0.04 0.03 0.02 0.02 0.02 0.02 0.02 0.03 0.07 0.11 0.13 0.19 0.28 0.37 0.45 0.44 0.46 0.55 0.69 0.76 0.71 0.75 0.73 0.63 0.44 0.29 0.20 0.19 0.20 0.28 0.39 0.46 0.38 0.29 0.31 0.39 0.53 0.64 0.71 0.71 0.70 0.69 0.60 0.53
0.03 0.03 0.03 0.03 0.03 0.03 0.03 0.04 0.07 0.10 0.15 0.25 0.33 0.40 0.49 0.48 0.48 0.47 0.51 0.64 0.68 0.77 0.73 0.66 0.54 0.38 0.25 0.19 0.20 0.26 0.35 0.41 0.37 0.28 0.25 0.33 0.46 0.56 0.63 0.66 0.68 0.66 0.60 0.56
0.01 0.01 0.01 0.01 0.01 0.01 0.01 0.03 0.04 0.07 0.19 0.33 0.39 0.45 0.51 0.47 0.51 0.61 0.56 0.47 0.53 0.66 0.60 0.53 0.52 0.42 0.29 0.22 0.21 0.26 0.37 0.44 0.42 0.31 0.27 0.33 0.40 0.44 0.51 0.54 0.56 0.59 0.60 0.56
0.01 0.01 0.01 0.00 0.01 0.01 0.02 0.03 0.03 0.06 0.17 0.29 0.29 0.36 0.42 0.42 0.43 0.47 0.49 0.48 0.51 0.58 0.50 0.45 0.43 0.40 0.37 0.32 0.31 0.33 0.38 0.42 0.40 0.30 0.27 0.30 0.33 0.35 0.42 0.51 0.57 0.62 0.59 0.52
0.01 0.01 0.01 0.01 0.02 0.04 0.05 0.04 0.04 0.07 0.21 0.33 0.29 0.29 0.30 0.34 0.44 0.47 0.45 0.41 0.46 0.49 0.46 0.44 0.40 0.37 0.35 0.41 0.46 0.44 0.40 0.38 0.35 0.28 0.26 0.26 0.30 0.33 0.41 0.52 0.60 0.61 0.51 0.48
0.01 0.01 0.01 0.02 0.03 0.05 0.05 0.06 0.06 0.09 0.24 0.46 0.42 0.35 0.32 0.30 0.34 0.40 0.45 0.43 0.43 0.48 0.45 0.40 0.36 0.36 0.36 0.44 0.50 0.46 0.40 0.37 0.35 0.32 0.30 0.30 0.34 0.40 0.47 0.55 0.56 0.46 0.40 0.39
0.02 0.02 0.02 0.02 0.03 0.03 0.05 0.07 0.08 0.10 0.24 0.50 0.56 0.41 0.34 0.32 0.33 0.39 0.45 0.47 0.45 0.44 0.41 0.37 0.33 0.31 0.33 0.37 0.38 0.39 0.38 0.37 0.38 0.37 0.34 0.34 0.36 0.40 0.42 0.45 0.43 0.36 0.34 0.32

GEFSNGP_prec_meanprecacc_090.txt.gz
Total_Precipitation_Accumulation
0.01 0.02 0.03 0.04 0.05 0.05 0.03 0.03 0.05 0.05 0.06 0.05 0.03 0.02 0.02 0.01 0.01 0.01 0.01 0.01 0.01 0.01 0.01 0.02 0.03 0.04 0.05 0.05 0.05 0.04 0.04 0.06 0.06 0.06 0.07 0.07 0.09 0.12 0.13 0.14 0.14 0.20 0.27 0.29
0.00 0.02 0.03 0.04 0.07 0.06 0.03 0.02 0.01 0.02 0.03 0.03 0.04 0.03 0.03 0.03 0.03 0.02 0.03 0.03 0.04 0.03 0.03 0.04 0.04 0.04 0.05 0.06 0.06 0.07 0.09 0.11 0.10 0.10 0.11 0.11 0.12 0.13 0.13 0.15 0.18 0.22 0.23 0.26
0.01 0.02 0.02 0.06 0.06 0.04 0.03 0.03 0.03 0.04 0.05 0.05 0.06 0.08 0.10 0.12 0.13 0.10 0.10 0.09 0.09 0.08 0.06 0.05 0.05 0.05 0.05 0.06 0.06 0.06 0.08 0.13 0.14 0.15 0.14 0.12 0.12 0.13 0.16 0.20 0.24 0.27 0.28 0.29
0.02 0.03 0.06 0.06 0.04 0.04 0.04 0.03 0.06 0.10 0.13 0.15 0.18 0.21 0.23 0.28 0.27 0.19 0.13 0.09 0.06 0.04 0.03 0.03 0.03 0.03 0.04 0.04 0.04 0.05 0.07 0.13 0.18 0.19 0.18 0.16 0.17 0.20 0.24 0.27 0.30 0.33 0.34 0.37
0.04 0.04 0.05 0.04 0.05 0.06 0.08 0.10 0.13 0.21 0.29 0.32 0.33 0.32 0.27 0.21 0.16 0.11 0.07 0.04 0.03 0.03 0.03 0.02 0.03 0.04 0.05 0.05 0.06 0.07 0.10 0.15 0.20 0.26 0.27 0.26 0.27 0.32 0.35 0.38 0.37 0.37 0.40 0.43
0.06 0.07 0.08 0.07 0.11 0.14 0.15 0.25 0.29 0.33 0.33 0.26 0.20 0.19 0.15 0.09 0.06 0.05 0.03 0.03 0.03 0.03 0.03 0.04 0.04 0.06 0.07 0.09 0.11 0.14 0.15 0.19 0.25 0.33 0.37 0.36 0.38 0.42 0.44 0.48 0.46 0.43 0.42 0.45
0.09 0.10 0.09 0.13 0.16 0.21 0.36 0.43 0.38 0.34 0.27 0.21 0.18 0.18 0.15 0.11 0.07 0.05 0.04 0.04 0.04 0.04 0.05 0.08 0.10 0.14 0.18 0.21 0.23 0.24 0.26 0.28 0.32 0.39 0.45 0.44 0.46 0.49 0.52 0.52 0.53 0.53 0.51 0.51
0.19 0.26 0.24 0.19 0.22 0.34 0.42 0.34 0.30 0.25 0.21 0.17 0.14 0.12 0.11 0.10 0.09 0.08 0.07 0.06 0.05 0.07 0.07 0.09 0.14 0.20 0.27 0.29 0.30 0.32 0.36 0.37 0.40 0.46 0.47 0.45 0.56 0.62 0.67 0.69 0.66 0.64 0.69 0.66
0.28 0.30 0.26 0.24 0.23 0.26 0.28 0.27 0.22 0.20 0.17 0.14 0.12 0.12 0.10 0.08 0.09 0.08 0.08 0.07 0.07 0.08 0.09 0.10 0.14 0.21 0.27 0.30 0.32 0.33 0.36 0.38 0.43 0.52 0.58 0.61 0.67 0.71 0.81 0.85 0.82 0.77 0.78 0.81
0.21 0.24 0.23 0.23 0.23 0.19 0.17 0.15 0.12 0.11 0.13 0.13 0.14 0.15 0.16 0.10 0.08 0.07 0.05 0.06 0.07 0.09 0.13 0.15 0.16 0.19 0.24 0.30 0.37 0.41 0.42 0.43 0.47 0.53 0.60 0.70 0.80 0.79 0.81 0.86 0.88 0.88 0.85 0.81
0.19 0.25 0.30 0.29 0.25 0.19 0.14 0.13 0.11 0.10 0.11 0.11 0.11 0.10 0.11 0.11 0.08 0.06 0.05 0.05 0.08 0.12 0.15 0.16 0.16 0.17 0.20 0.26 0.38 0.45 0.46 0.45 0.49 0.53 0.60 0.72 0.85 0.88 0.79 0.79 0.83 0.80 0.75 0.72
0.15 0.20 0.27 0.29 0.23 0.15 0.12 0.13 0.15 0.15 0.11 0.11 0.09 0.05 0.04 0.04 0.04 0.05 0.06 0.09 0.13 0.16 0.17 0.16 0.17 0.18 0.20 0.26 0.40 0.50 0.50 0.47 0.49 0.53 0.60 0.71 0.83 0.88 0.74 0.61 0.59 0.60 0.54 0.48
0.12 0.17 0.18 0.19 0.22 0.23 0.19 0.18 0.13 0.10 0.07 0.07 0.06 0.05 0.03 0.03 0.03 0.05 0.10 0.17 0.23 0.26 0.24 0.22 0.23 0.24 0.25 0.32 0.47 0.63 0.60 0.55 0.56 0.58 0.62 0.66 0.75 0.87 0.90 0.74 0.55 0.49 0.40 0.31
0.14 0.15 0.16 0.16 0.17 0.18 0.16 0.12 0.09 0.08 0.08 0.06 0.06 0.08 0.06 0.05 0.07 0.10 0.16 0.25 0.31 0.32 0.31 0.31 0.31 0.30 0.30 0.34 0.43 0.68 0.78 0.67 0.58 0.58 0.63 0.68 0.74 0.81 0.91 0.95 0.86 0.68 0.46 0.28
0.15 0.12 0.12 0.13 0.14 0.15 0.13 0.11 0.10 0.09 0.07 0.05 0.04 0.05 0.04 0.06 0.10 0.14 0.22 0.33 0.41 0.40 0.37 0.36 0.37 0.34 0.33 0.35 0.38 0.49 0.69 0.73 0.64 0.59 0.62 0.69 0.72 0.77 0.85 0.91 0.98 0.95 0.72 0.44
0.19 0.15 0.12 0.13 0.13 0.11 0.08 0.07 0.08 0.08 0.06 0.05 0.04 0.04 0.04 0.06 0.10 0.16 0.26 0.41 0.60 0.62 0.53 0.49 0.45 0.39 0.37 0.39 0.42 0.45 0.53 0.50 0.49 0.56 0.61 0.67 0.73 0.76 0.80 0.89 0.95 0.97 0.86 0.63
0.19 0.15 0.12 0.12 0.11 0.09 0.08 0.08 0.08 0.07 0.06 0.05 0.06 0.06 0.08 0.13 0.20 0.29 0.36 0.46 0.57 0.62 0.60 0.59 0.53 0.43 0.40 0.42 0.45 0.45 0.50 0.44 0.34 0.45 0.59 0.64 0.71 0.76 0.78 0.84 0.90 0.93 0.84 0.55
0.11 0.09 0.09 0.11 0.11 0.10 0.10 0.09 0.08 0.07 0.07 0.07 0.08 0.10 0.14 0.24 0.42 0.54 0.59 0.63 0.64 0.56 0.53 0.55 0.46 0.37 0.34 0.34 0.38 0.41 0.52 0.51 0.38 0.41 0.54 0.60 0.63 0.76 0.80 0.82 0.84 0.86 0.77 0.51
0.09 0.08 0.07 0.07 0.06 0.06 0.06 0.06 0.06 0.07 0.07 0.10 0.15 0.19 0.23 0.32 0.49 0.62 0.68 0.78 0.86 0.78 0.62 0.52 0.40 0.33 0.30 0.25 0.24 0.33 0.45 0.50 0.41 0.39 0.49 0.48 0.55 0.73 0.77 0.77 0.81 0.81 0.67 0.56
0.06 0.07 0.06 0.05 0.04 0.03 0.03 0.03 0.05 0.07 0.09 0.15 0.23 0.28 0.33 0.38 0.49 0.61 0.64 0.71 0.85 0.87 0.73 0.55 0.37 0.29 0.24 0.19 0.19 0.27 0.39 0.47 0.39 0.32 0.37 0.46 0.58 0.69 0.74 0.72 0.74 0.76 0.67 0.58
0.06 0.05 0.04 0.04 0.03 0.04 0.04 0.05 0.08 0.12 0.15 0.20 0.29 0.37 0.45 0.45 0.46 0.55 0.69 0.76 0.72 0.75 0.73 0.63 0.44 0.29 0.20 0.19 0.20 0.29 0.39 0.46 0.38 0.29 0.31 0.39 0.54 0.65 0.71 0.72 0.72 0.71 0.64 0.57
0.04 0.03 0.03 0.04 0.04 0.04 0.05 0.06 0.09 0.12 0.16 0.26 0.34 0.41 0.49 0.48 0.48 0.47 0.51 0.65 0.69 0.77 0.73 0.66 0.54 0.38 0.25 0.19 0.20 0.26 0.35 0.41 0.37 0.29 0.26 0.33 0.46 0.57 0.64 0.68 0.70 0.68 0.64 0.61
0.02 0.02 0.01 0.01 0.01 0.02 0.02 0.03 0.04 0.07 0.19 0.33 0.39 0.45 0.51 0.47 0.51 0.61 0.56 0.47 0.53 0.66 0.60 0.53 0.52 0.42 0.29 0.22 0.21 0.26 0.37 0.44 0.42 0.32 0.27 0.33 0.41 0.46 0.52 0.56 0.59 0.62 0.65 0.61
0.02 0.01 0.01 0.01 0.01 0.01 0.02 0.03 0.03 0.06 0.18 0.29 0.30 0.36 0.42 0.42 0.44 0.47 0.49 0.48 0.51 0.58 0.50 0.45 0.43 0.41 0.37 0.32 0.32 0.33 0.39 0.43 0.40 0.30 0.27 0.31 0.34 0.37 0.44 0.53 0.60 0.67 0.64 0.56
0.01 0.01 0.01 0.01 0.02 0.04 0.05 0.05 0.04 0.07 0.21 0.33 0.29 0.30 0.30 0.34 0.44 0.47 0.45 0.42 0.46 0.49 0.46 0.44 0.40 0.38 0.35 0.42 0.47 0.45 0.41 0.39 0.36 0.29 0.27 0.28 0.31 0.35 0.43 0.55 0.64 0.64 0.57 0.53
0.02 0.02 0.02 0.02 0.03 0.05 0.05 0.06 0.06 0.09 0.24 0.47 0.43 0.35 0.32 0.30 0.34 0.40 0.46 0.44 0.44 0.49 0.45 0.41 0.37 0.37 0.37 0.46 0.51 0.48 0.41 0.37 0.36 0.34 0.32 0.32 0.37 0.42 0.49 0.58 0.59 0.51 0.45 0.44
0.02 0.02 0.02 0.03 0.03 0.04 0.05 0.07 0.08 0.11 0.24 0.52 0.58 0.42 0.34 0.32 0.34 0.40 0.47 0.49 0.47 0.46 0.43 0.38 0.35 0.33 0.34 0.38 0.39 0.39 0.38 0.38 0.39 0.38 0.36 0.36 0.37 0.42 0.44 0.49 0.48 0.41 0.38 0.37

GEFSNGP_prec_meanprecacc_096.txt.gz
Total_Precipitation_Accumulation
0.01 0.04 0.07 0.09 0.09 0.07 0.05 0.05 0.07 0.06 0.09 0.11 0.14 0.09 0.03 0.02 0.01 0.01 0.01 0.01 0.01 0.01 0.01 0.02 0.03 0.04 0.05 0.06 0.06 0.06 0.07 0.10 0.11 0.12 0.14 0.13 0.14 0.16 0.16 0.15 0.16 0.22 0.28 0.30
0.01 0.03 0.04 0.06 0.09 0.07 0.04 0.03 0.03 0.02 0.04 0.07 0.12 0.11 0.09 0.06 0.04 0.03 0.03 0.03 0.04 0.04 0.04 0.04 0.04 0.04 0.05 0.07 0.08 0.09 0.12 0.14 0.12 0.13 0.15 0.14 0.15 0.16 0.16 0.17 0.21 0.24 0.25 0.28
0.03 0.04 0.04 0.07 0.07 0.04 0.03 0.03 0.03 0.04 0.06 0.08 0.11 0.13 0.12 0.13 0.13 0.10 0.10 0.10 0.09 0.08 0.07 0.06 0.06 0.06 0.06 0.07 0.07 0.08 0.10 0.14 0.15 0.17 0.18 0.16 0.15 0.17 0.19 0.24 0.28 0.30 0.30 0.31
0.04 0.07 0.12 0.08 0.05 0.05 0.04 0.04 0.06 0.10 0.14 0.17 0.21 0.23 0.25 0.29 0.27 0.19 0.13 0.10 0.07 0.05 0.06 0.09 0.07 0.06 0.06 0.08 0.09 0.08 0.10 0.16 0.21 0.24 0.24 0.23 0.24 0.26 0.29 0.32 0.34 0.35 0.35 0.38
0.09 0.11 0.11 0.08 0.08 0.07 0.09 0.11 0.15 0.23 0.31 0.33 0.34 0.34 0.29 0.22 0.16 0.11 0.07 0.05 0.05 0.04 0.05 0.06 0.07 0.06 0.07 0.09 0.11 0.15 0.21 0.25 0.29 0.34 0.37 0.37 0.39 0.41 0.44 0.46 0.42 0.40 0.42 0.45
0.12 0.15 0.18 0.16 0.20 0.19 0.19 0.32 0.32 0.38 0.35 0.26 0.20 0.23 0.19 0.10 0.07 0.05 0.04 0.04 0.05 0.06 0.06 0.08 0.09 0.09 0.12 0.15 0.19 0.22 0.27 0.33 0.40 0.48 0.54 0.52 0.53 0.56 0.56 0.58 0.54 0.49 0.47 0.50
0.16 0.19 0.17 0.20 0.24 0.27 0.46 0.57 0.41 0.37 0.29 0.22 0.19 0.20 0.17 0.11 0.08 0.06 0.05 0.05 0.05 0.06 0.08 0.11 0.14 0.19 0.26 0.29 0.30 0.30 0.33 0.37 0.43 0.50 0.58 0.58 0.60 0.63 0.64 0.63 0.62 0.60 0.59 0.59
0.28 0.36 0.35 0.26 0.29 0.44 0.56 0.41 0.32 0.27 0.22 0.18 0.16 0.13 0.12 0.11 0.09 0.08 0.08 0.07 0.07 0.09 0.10 0.12 0.17 0.24 0.31 0.36 0.35 0.37 0.41 0.42 0.45 0.52 0.54 0.53 0.64 0.71 0.78 0.81 0.77 0.73 0.76 0.72
0.40 0.41 0.35 0.29 0.30 0.31 0.33 0.32 0.25 0.21 0.19 0.16 0.13 0.13 0.11 0.09 0.09 0.08 0.09 0.08 0.08 0.10 0.12 0.14 0.18 0.25 0.32 0.34 0.36 0.37 0.41 0.43 0.49 0.57 0.63 0.66 0.73 0.78 0.89 0.96 0.93 0.88 0.89 0.92
0.38 0.38 0.30 0.27 0.28 0.25 0.20 0.18 0.13 0.11 0.14 0.15 0.15 0.17 0.17 0.11 0.08 0.07 0.06 0.06 0.08 0.11 0.15 0.17 0.19 0.23 0.28 0.34 0.42 0.46 0.47 0.48 0.53 0.59 0.65 0.75 0.85 0.85 0.87 0.93 0.96 0.96 0.93 0.89
0.33 0.40 0.38 0.34 0.30 0.25 0.19 0.15 0.12 0.11 0.11 0.11 0.11 0.11 0.13 0.12 0.09 0.07 0.05 0.06 0.08 0.13 0.16 0.17 0.17 0.19 0.22 0.29 0.42 0.50 0.50 0.50 0.54 0.59 0.65 0.78 0.90 0.92 0.83 0.83 0.87 0.85 0.80 0.77
0.28 0.31 0.36 0.38 0.28 0.20 0.15 0.14 0.17 0.16 0.12 0.12 0.10 0.06 0.04 0.05 0.05 0.06 0.07 0.09 0.14 0.16 0.17 0.16 0.17 0.19 0.21 0.28 0.42 0.52 0.53 0.50 0.52 0.55 0.63 0.73 0.86 0.91 0.77 0.64 0.62 0.63 0.56 0.50
0.17 0.19 0.20 0.22 0.24 0.25 0.21 0.21 0.16 0.12 0.09 0.09 0.08 0.06 0.04 0.04 0.04 0.06 0.10 0.18 0.24 0.26 0.24 0.23 0.24 0.25 0.26 0.32 0.48 0.64 0.62 0.57 0.58 0.60 0.63 0.68 0.77 0.88 0.91 0.76 0.57 0.51 0.41 0.32
0.16 0.16 0.18 0.19 0.19 0.20 0.19 0.15 0.12 0.11 0.09 0.08 0.09 0.11 0.08 0.07 0.08 0.11 0.17 0.27 0.32 0.33 0.32 0.32 0.32 0.30 0.31 0.35 0.44 0.69 0.79 0.69 0.60 0.60 0.65 0.70 0.75 0.82 0.92 0.96 0.87 0.69 0.47 0.28
0.15 0.13 0.15 0.16 0.17 0.17 0.16 0.13 0.12 0.12 0.09 0.06 0.05 0.06 0.06 0.08 0.12 0.16 0.23 0.34 0.43 0.42 0.38 0.37 0.37 0.35 0.34 0.35 0.39 0.49 0.70 0.73 0.65 0.60 0.63 0.69 0.73 0.77 0.85 0.91 0.98 0.95 0.72 0.44
0.21 0.18 0.15 0.16 0.16 0.13 0.10 0.10 0.11 0.10 0.08 0.06 0.05 0.05 0.05 0.08 0.11 0.17 0.27 0.42 0.60 0.63 0.54 0.49 0.46 0.40 0.37 0.39 0.42 0.46 0.53 0.50 0.49 0.57 0.61 0.67 0.73 0.76 0.80 0.89 0.95 0.97 0.86 0.63
0.23 0.20 0.17 0.16 0.14 0.10 0.09 0.10 0.10 0.08 0.07 0.06 0.06 0.07 0.09 0.14 0.21 0.29 0.37 0.46 0.57 0.62 0.60 0.60 0.53 0.43 0.40 0.42 0.45 0.46 0.50 0.44 0.34 0.45 0.59 0.65 0.71 0.76 0.78 0.84 0.90 0.93 0.84 0.55
0.14 0.12 0.11 0.14 0.14 0.12 0.12 0.10 0.08 0.07 0.07 0.08 0.09 0.11 0.16 0.26 0.43 0.55 0.60 0.64 0.64 0.57 0.54 0.56 0.47 0.37 0.34 0.34 0.38 0.41 0.52 0.51 0.38 0.41 0.54 0.60 0.63 0.76 0.80 0.82 0.84 0.86 0.77 0.52
0.10 0.10 0.08 0.08 0.08 0.08 0.07 0.07 0.06 0.07 0.08 0.11 0.17 0.21 0.25 0.34 0.49 0.62 0.68 0.79 0.87 0.79 0.63 0.52 0.40 0.33 0.30 0.25 0.24 0.33 0.45 0.50 0.41 0.39 0.49 0.48 0.55 0.73 0.78 0.78 0.81 0.81 0.67 0.56
0.07 0.07 0.07 0.07 0.06 0.04 0.04 0.04 0.05 0.08 0.10 0.16 0.24 0.30 0.34 0.40 0.50 0.61 0.64 0.72 0.86 0.88 0.74 0.55 0.37 0.29 0.24 0.19 0.19 0.27 0.39 0.47 0.39 0.32 0.37 0.47 0.58 0.69 0.75 0.73 0.75 0.78 0.68 0.59
0.07 0.06 0.04 0.04 0.04 0.04 0.04 0.05 0.09 0.13 0.15 0.21 0.30 0.38 0.45 0.45 0.46 0.55 0.69 0.77 0.72 0.75 0.73 0.63 0.44 0.29 0.20 0.19 0.21 0.29 0.39 0.46 0.38 0.29 0.31 0.40 0.54 0.66 0.72 0.74 0.74 0.73 0.65 0.59
0.04 0.04 0.04 0.04 0.04 0.05 0.05 0.06 0.09 0.12 0.16 0.26 0.34 0.41 0.49 0.48 0.48 0.48 0.52 0.65 0.69 0.77 0.73 0.66 0.54 0.38 0.25 0.19 0.20 0.26 0.35 0.42 0.38 0.29 0.27 0.34 0.48 0.58 0.65 0.69 0.71 0.69 0.66 0.64
0.02 0.02 0.01 0.01 0.02 0.02 0.02 0.03 0.05 0.08 0.19 0.33 0.39 0.45 0.51 0.48 0.52 0.62 0.58 0.48 0.53 0.67 0.60 0.54 0.52 0.42 0.29 0.23 0.21 0.26 0.37 0.45 0.44 0.33 0.28 0.34 0.42 0.46 0.53 0.57 0.60 0.64 0.68 0.64
0.03 0.02 0.01 0.01 0.01 0.02 0.03 0.04 0.04 0.07 0.18 0.30 0.30 0.36 0.42 0.43 0.45 0.47 0.49 0.48 0.52 0.58 0.50 0.46 0.44 0.41 0.37 0.33 0.33 0.35 0.40 0.44 0.41 0.31 0.28 0.32 0.35 0.38 0.45 0.55 0.62 0.69 0.66 0.59
0.03 0.02 0.02 0.02 0.03 0.05 0.06 0.06 0.05 0.09 0.22 0.34 0.30 0.30 0.32 0.35 0.45 0.48 0.46 0.43 0.48 0.51 0.47 0.46 0.41 0.38 0.37 0.44 0.50 0.48 0.44 0.41 0.37 0.31 0.28 0.29 0.33 0.36 0.44 0.57 0.67 0.68 0.61 0.58
0.03 0.03 0.03 0.03 0.04 0.06 0.06 0.07 0.08 0.11 0.27 0.51 0.47 0.38 0.34 0.32 0.35 0.43 0.50 0.49 0.49 0.52 0.49 0.45 0.39 0.39 0.39 0.48 0.54 0.50 0.43 0.39 0.37 0.35 0.33 0.34 0.38 0.44 0.52 0.61 0.62 0.54 0.48 0.46
0.03 0.03 0.03 0.03 0.04 0.05 0.06 0.09 0.11 0.14 0.29 0.55 0.61 0.44 0.36 0.35 0.38 0.44 0.52 0.55 0.51 0.49 0.46 0.41 0.37 0.35 0.36 0.40 0.41 0.41 0.39 0.39 0.40 0.39 0.37 0.38 0.40 0.45 0.47 0.51 0.51 0.44 0.41 0.39

GEFSNGP_prec_meanprecacc_102.txt.gz
Total_Precipitation_Accumulation
0.03 0.07 0.11 0.13 0.12 0.10 0.08 0.08 0.10 0.11 0.15 0.17 0.20 0.16 0.10 0.12 0.16 0.10 0.07 0.07 0.05 0.04 0.04 0.03 0.04 0.06 0.07 0.09 0.09 0.09 0.10 0.11 0.12 0.14 0.17 0.17 0.18 0.21 0.24 0.25 0.26 0.30 0.34 0.35
0.05 0.08 0.09 0.11 0.13 0.09 0.06 0.05 0.05 0.06 0.08 0.12 0.18 0.19 0.18 0.16 0.13 0.10 0.09 0.08 0.08 0.10 0.08 0.06 0.06 0.06 0.07 0.09 0.12 0.13 0.16 0.18 0.15 0.17 0.19 0.18 0.19 0.21 0.25 0.28 0.32 0.35 0.36 0.41
0.13 0.13 0.12 0.13 0.12 0.09 0.06 0.07 0.07 0.07 0.10 0.13 0.18 0.21 0.25 0.27 0.19 0.14 0.15 0.15 0.16 0.19 0.14 0.11 0.09 0.10 0.11 0.13 0.14 0.17 0.19 0.24 0.24 0.25 0.26 0.25 0.25 0.30 0.33 0.36 0.41 0.45 0.43 0.43
0.17 0.20 0.23 0.14 0.11 0.10 0.09 0.09 0.10 0.14 0.19 0.22 0.29 0.33 0.36 0.40 0.36 0.25 0.17 0.14 0.13 0.13 0.15 0.19 0.19 0.17 0.18 0.22 0.27 0.34 0.36 0.41 0.47 0.50 0.49 0.49 0.52 0.52 0.52 0.53 0.52 0.51 0.50 0.51
0.25 0.31 0.27 0.18 0.16 0.15 0.16 0.18 0.21 0.28 0.39 0.43 0.43 0.43 0.39 0.29 0.23 0.17 0.13 0.11 0.11 0.13 0.15 0.20 0.27 0.27 0.25 0.26 0.31 0.41 0.51 0.57 0.64 0.69 0.70 0.70 0.70 0.69 0.71 0.74 0.71 0.67 0.65 0.65
0.29 0.32 0.35 0.29 0.28 0.27 0.30 0.46 0.43 0.50 0.49 0.41 0.33 0.36 0.30 0.18 0.12 0.09 0.07 0.08 0.10 0.12 0.14 0.19 0.25 0.27 0.28 0.32 0.35 0.38 0.41 0.50 0.62 0.76 0.83 0.80 0.77 0.80 0.85 0.91 0.88 0.87 0.86 0.85
0.34 0.35 0.31 0.31 0.31 0.34 0.57 0.72 0.60 0.57 0.49 0.41 0.36 0.34 0.30 0.20 0.12 0.08 0.07 0.07 0.09 0.10 0.13 0.17 0.22 0.29 0.39 0.45 0.45 0.44 0.45 0.49 0.55 0.66 0.77 0.77 0.79 0.84 0.89 0.92 0.93 0.94 0.90 0.83
0.49 0.57 0.54 0.37 0.39 0.55 0.66 0.53 0.50 0.47 0.46 0.45 0.40 0.30 0.22 0.16 0.12 0.10 0.09 0.09 0.11 0.12 0.14 0.17 0.23 0.32 0.43 0.54 0.58 0.60 0.64 0.67 0.70 0.75 0.75 0.74 0.83 0.89 0.95 0.99 0.97 0.95 0.98 0.91
0.62 0.66 0.56 0.47 0.48 0.47 0.47 0.49 0.47 0.40 0.40 0.37 0.35 0.29 0.19 0.13 0.11 0.10 0.09 0.09 0.10 0.13 0.17 0.21 0.27 0.38 0.50 0.56 0.60 0.64 0.69 0.74 0.81 0.87 0.90 0.90 0.93 0.96 1.05 1.10 1.07 1.02 1.03 1.05
0.67 0.66 0.55 0.49 0.49 0.43 0.37 0.36 0.36 0.33 0.30 0.28 0.26 0.25 0.23 0.14 0.09 0.07 0.06 0.07 0.09 0.12 0.17 0.20 0.21 0.27 0.36 0.45 0.52 0.56 0.58 0.61 0.66 0.74 0.81 0.91 1.03 1.03 1.06 1.11 1.14 1.13 1.10 1.04
0.62 0.71 0.75 0.65 0.57 0.49 0.40 0.38 0.37 0.33 0.28 0.25 0.20 0.17 0.17 0.14 0.10 0.07 0.05 0.06 0.08 0.13 0.16 0.17 0.17 0.19 0.23 0.31 0.45 0.54 0.56 0.56 0.61 0.68 0.76 0.88 1.02 1.06 0.98 1.00 1.04 1.01 0.94 0.90
0.47 0.53 0.64 0.69 0.61 0.51 0.40 0.37 0.36 0.34 0.31 0.27 0.21 0.14 0.08 0.07 0.07 0.07 0.07 0.09 0.14 0.16 0.17 0.16 0.17 0.19 0.21 0.28 0.42 0.54 0.57 0.55 0.57 0.61 0.70 0.80 0.93 0.98 0.85 0.72 0.71 0.71 0.63 0.56
0.29 0.39 0.45 0.54 0.52 0.45 0.37 0.32 0.24 0.21 0.16 0.15 0.14 0.14 0.08 0.06 0.05 0.07 0.11 0.18 0.24 0.26 0.25 0.23 0.24 0.25 0.26 0.33 0.48 0.65 0.63 0.58 0.60 0.62 0.66 0.71 0.80 0.93 0.96 0.81 0.63 0.56 0.46 0.36
0.29 0.36 0.45 0.48 0.40 0.31 0.25 0.19 0.16 0.15 0.13 0.12 0.13 0.14 0.11 0.09 0.10 0.12 0.17 0.27 0.32 0.33 0.32 0.32 0.32 0.30 0.31 0.35 0.44 0.69 0.80 0.70 0.61 0.61 0.67 0.72 0.78 0.85 0.94 0.99 0.90 0.71 0.49 0.30
0.29 0.24 0.26 0.27 0.24 0.21 0.18 0.16 0.15 0.14 0.11 0.08 0.07 0.08 0.08 0.09 0.13 0.16 0.24 0.35 0.43 0.42 0.38 0.37 0.38 0.35 0.34 0.35 0.39 0.49 0.70 0.73 0.65 0.60 0.63 0.70 0.73 0.78 0.86 0.92 0.99 0.96 0.73 0.45
0.30 0.23 0.19 0.19 0.19 0.14 0.11 0.11 0.12 0.12 0.09 0.07 0.05 0.05 0.06 0.08 0.12 0.18 0.27 0.42 0.61 0.63 0.54 0.49 0.46 0.40 0.37 0.39 0.42 0.46 0.53 0.50 0.49 0.57 0.61 0.67 0.73 0.76 0.81 0.89 0.95 0.97 0.86 0.63
0.27 0.23 0.19 0.18 0.16 0.12 0.11 0.11 0.10 0.09 0.08 0.07 0.07 0.07 0.09 0.14 0.22 0.30 0.37 0.46 0.58 0.63 0.61 0.60 0.53 0.43 0.40 0.42 0.45 0.46 0.50 0.44 0.34 0.45 0.59 0.65 0.71 0.76 0.78 0.84 0.90 0.93 0.84 0.55
0.17 0.14 0.13 0.15 0.16 0.14 0.13 0.11 0.09 0.08 0.08 0.08 0.09 0.12 0.16 0.26 0.43 0.55 0.60 0.64 0.64 0.57 0.54 0.56 0.47 0.37 0.34 0.34 0.38 0.42 0.52 0.51 0.38 0.41 0.54 0.60 0.63 0.76 0.80 0.82 0.84 0.86 0.77 0.52
0.12 0.11 0.10 0.09 0.09 0.09 0.08 0.08 0.07 0.08 0.08 0.11 0.17 0.22 0.26 0.35 0.50 0.62 0.68 0.79 0.87 0.79 0.63 0.52 0.40 0.33 0.30 0.25 0.24 0.33 0.45 0.50 0.41 0.39 0.49 0.48 0.55 0.73 0.78 0.78 0.81 0.81 0.68 0.57
0.10 0.09 0.09 0.08 0.07 0.05 0.05 0.05 0.06 0.08 0.10 0.16 0.25 0.30 0.35 0.41 0.50 0.61 0.64 0.72 0.86 0.88 0.74 0.55 0.37 0.29 0.24 0.19 0.19 0.27 0.39 0.47 0.40 0.33 0.37 0.47 0.58 0.69 0.75 0.74 0.76 0.79 0.69 0.60
0.09 0.07 0.05 0.05 0.05 0.05 0.05 0.06 0.09 0.13 0.15 0.21 0.30 0.38 0.46 0.45 0.47 0.56 0.69 0.77 0.72 0.75 0.73 0.64 0.44 0.29 0.20 0.20 0.21 0.29 0.39 0.46 0.38 0.30 0.31 0.40 0.55 0.66 0.73 0.74 0.75 0.74 0.66 0.60
0.05 0.04 0.04 0.04 0.05 0.05 0.05 0.06 0.09 0.12 0.17 0.26 0.34 0.41 0.49 0.48 0.49 0.48 0.52 0.66 0.69 0.78 0.73 0.66 0.54 0.38 0.25 0.19 0.20 0.26 0.36 0.42 0.38 0.30 0.28 0.35 0.49 0.59 0.66 0.70 0.72 0.70 0.67 0.64
0.03 0.02 0.01 0.01 0.02 0.03 0.03 0.04 0.05 0.08 0.19 0.33 0.39 0.45 0.52 0.48 0.52 0.63 0.58 0.49 0.54 0.67 0.61 0.54 0.53 0.43 0.30 0.23 0.21 0.27 0.38 0.46 0.44 0.34 0.29 0.35 0.43 0.47 0.54 0.58 0.61 0.65 0.69 0.65
0.03 0.02 0.01 0.01 0.01 0.02 0.04 0.05 0.04 0.07 0.19 0.30 0.30 0.37 0.43 0.44 0.46 0.48 0.50 0.50 0.53 0.59 0.51 0.47 0.45 0.41 0.38 0.34 0.34 0.36 0.41 0.45 0.42 0.32 0.29 0.33 0.36 0.39 0.47 0.56 0.64 0.70 0.67 0.60
0.03 0.03 0.02 0.02 0.04 0.05 0.07 0.06 0.06 0.09 0.22 0.35 0.30 0.31 0.33 0.37 0.47 0.49 0.47 0.45 0.50 0.52 0.48 0.47 0.42 0.39 0.38 0.45 0.51 0.49 0.45 0.42 0.38 0.32 0.29 0.30 0.33 0.37 0.45 0.58 0.67 0.69 0.61 0.58
0.04 0.04 0.04 0.04 0.05 0.06 0.07 0.08 0.09 0.12 0.28 0.52 0.47 0.39 0.35 0.33 0.37 0.44 0.51 0.50 0.50 0.53 0.50 0.46 0.40 0.40 0.40 0.50 0.55 0.51 0.44 0.40 0.39 0.36 0.34 0.34 0.39 0.45 0.53 0.62 0.64 0.55 0.49 0.47
0.04 0.04 0.04 0.04 0.05 0.05 0.07 0.10 0.13 0.16 0.30 0.56 0.62 0.45 0.38 0.37 0.40 0.46 0.53 0.56 0.53 0.51 0.48 0.43 0.38 0.36 0.37 0.42 0.43 0.43 0.41 0.40 0.41 0.40 0.38 0.39 0.41 0.46 0.48 0.53 0.52 0.45 0.41 0.39

GEFSNGP_prec_meanprecacc_108.txt.gz
Total_Precipitation_Accumulation
0.04 0.08 0.12 0.14 0.13 0.11 0.09 0.09 0.11 0.11 0.16 0.18 0.20 0.16 0.10 0.12 0.17 0.10 0.08 0.08 0.07 0.06 0.05 0.05 0.06 0.07 0.09 0.12 0.13 0.14 0.14 0.15 0.16 0.18 0.20 0.19 0.21 0.24 0.27 0.28 0.29 0.33 0.38 0.37
0.06 0.09 0.10 0.11 0.14 0.10 0.07 0.06 0.06 0.06 0.09 0.12 0.18 0.20 0.19 0.16 0.14 0.11 0.10 0.09 0.10 0.13 0.10 0.09 0.09 0.09 0.10 0.13 0.18 0.20 0.22 0.23 0.20 0.21 0.23 0.21 0.22 0.25 0.29 0.33 0.37 0.39 0.40 0.44
0.14 0.13 0.14 0.14 0.13 0.09 0.07 0.08 0.08 0.08 0.11 0.13 0.19 0.22 0.26 0.28 0.20 0.16 0.16 0.16 0.19 0.23 0.18 0.14 0.13 0.14 0.17 0.21 0.23 0.26 0.28 0.34 0.33 0.33 0.33 0.31 0.31 0.35 0.40 0.47 0.50 0.50 0.49 0.48
0.19 0.22 0.25 0.16 0.12 0.11 0.10 0.10 0.11 0.15 0.20 0.24 0.30 0.34 0.38 0.43 0.39 0.28 0.19 0.17 0.16 0.17 0.20 0.23 0.23 0.24 0.26 0.32 0.36 0.43 0.47 0.53 0.59 0.60 0.59 0.60 0.64 0.62 0.62 0.64 0.63 0.61 0.59 0.59
0.29 0.34 0.29 0.20 0.18 0.16 0.17 0.20 0.22 0.30 0.41 0.46 0.45 0.46 0.44 0.36 0.28 0.21 0.17 0.15 0.15 0.17 0.19 0.23 0.31 0.33 0.32 0.36 0.42 0.54 0.64 0.68 0.74 0.78 0.79 0.79 0.79 0.78 0.79 0.83 0.81 0.79 0.76 0.76
0.34 0.37 0.38 0.32 0.31 0.30 0.34 0.50 0.46 0.52 0.53 0.46 0.39 0.42 0.36 0.26 0.20 0.16 0.12 0.12 0.13 0.16 0.18 0.23 0.29 0.32 0.36 0.42 0.47 0.52 0.55 0.61 0.73 0.86 0.92 0.87 0.83 0.85 0.91 0.99 0.97 0.95 0.94 0.96
0.39 0.40 0.35 0.36 0.36 0.40 0.63 0.76 0.64 0.62 0.56 0.48 0.45 0.43 0.39 0.30 0.21 0.14 0.11 0.10 0.12 0.13 0.16 0.21 0.26 0.33 0.45 0.53 0.54 0.55 0.57 0.62 0.68 0.78 0.88 0.86 0.87 0.91 0.98 1.01 1.03 1.03 0.99 0.95
0.54 0.63 0.59 0.43 0.46 0.63 0.72 0.58 0.56 0.55 0.56 0.55 0.50 0.40 0.32 0.27 0.21 0.15 0.12 0.11 0.13 0.14 0.15 0.20 0.27 0.36 0.49 0.61 0.64 0.67 0.72 0.77 0.84 0.90 0.88 0.85 0.94 1.01 1.08 1.13 1.11 1.08 1.10 1.03
0.70 0.74 0.66 0.56 0.58 0.55 0.53 0.56 0.56 0.51 0.52 0.48 0.47 0.44 0.33 0.24 0.20 0.15 0.12 0.11 0.12 0.15 0.18 0.22 0.30 0.41 0.55 0.61 0.65 0.70 0.76 0.82 0.92 0.99 1.01 1.01 1.05 1.09 1.21 1.27 1.25 1.18 1.17 1.18
0.76 0.75 0.67 0.62 0.63 0.54 0.46 0.46 0.47 0.46 0.42 0.40 0.39 0.41 0.38 0.26 0.18 0.13 0.10 0.09 0.10 0.14 0.18 0.21 0.23 0.29 0.37 0.46 0.53 0.58 0.61 0.65 0.71 0.79 0.86 0.97 1.08 1.11 1.15 1.23 1.27 1.28 1.24 1.17
0.73 0.81 0.86 0.79 0.71 0.63 0.53 0.50 0.51 0.48 0.42 0.36 0.30 0.29 0.30 0.26 0.19 0.14 0.10 0.09 0.10 0.14 0.17 0.18 0.18 0.20 0.23 0.31 0.45 0.55 0.57 0.58 0.63 0.71 0.80 0.94 1.08 1.13 1.05 1.06 1.12 1.11 1.05 1.00
0.59 0.63 0.76 0.84 0.78 0.70 0.58 0.53 0.52 0.51 0.46 0.40 0.32 0.25 0.18 0.16 0.14 0.13 0.11 0.13 0.16 0.18 0.18 0.17 0.18 0.19 0.21 0.28 0.42 0.54 0.57 0.57 0.61 0.67 0.77 0.88 1.00 1.05 0.90 0.77 0.76 0.76 0.68 0.62
0.40 0.50 0.55 0.64 0.66 0.64 0.57 0.49 0.40 0.36 0.30 0.28 0.24 0.20 0.14 0.11 0.11 0.11 0.14 0.20 0.25 0.27 0.25 0.23 0.24 0.25 0.26 0.33 0.48 0.65 0.63 0.59 0.61 0.64 0.70 0.76 0.85 0.96 0.99 0.84 0.65 0.57 0.47 0.37
0.41 0.49 0.57 0.58 0.51 0.45 0.44 0.35 0.28 0.25 0.22 0.18 0.17 0.17 0.13 0.11 0.12 0.14 0.19 0.28 0.33 0.34 0.32 0.32 0.32 0.30 0.31 0.35 0.44 0.69 0.80 0.70 0.62 0.61 0.67 0.72 0.78 0.86 0.95 1.00 0.91 0.72 0.50 0.31
0.41 0.37 0.38 0.35 0.32 0.31 0.31 0.29 0.24 0.20 0.14 0.11 0.09 0.10 0.09 0.10 0.14 0.17 0.24 0.36 0.44 0.42 0.38 0.37 0.38 0.35 0.34 0.35 0.39 0.49 0.70 0.73 0.65 0.60 0.63 0.70 0.73 0.78 0.86 0.92 1.00 0.96 0.74 0.45
0.38 0.32 0.29 0.28 0.27 0.23 0.21 0.19 0.17 0.14 0.11 0.09 0.07 0.06 0.06 0.08 0.12 0.18 0.28 0.43 0.61 0.63 0.54 0.49 0.46 0.40 0.37 0.39 0.42 0.46 0.53 0.50 0.49 0.57 0.61 0.67 0.73 0.76 0.81 0.89 0.95 0.97 0.87 0.63
0.34 0.31 0.29 0.26 0.22 0.17 0.15 0.14 0.13 0.10 0.09 0.08 0.09 0.09 0.10 0.14 0.22 0.30 0.37 0.46 0.58 0.63 0.61 0.60 0.53 0.43 0.40 0.42 0.45 0.46 0.50 0.44 0.34 0.45 0.59 0.65 0.71 0.76 0.78 0.84 0.90 0.93 0.84 0.55
0.23 0.21 0.20 0.19 0.17 0.15 0.14 0.12 0.10 0.09 0.09 0.09 0.10 0.13 0.17 0.27 0.44 0.55 0.60 0.64 0.64 0.57 0.54 0.56 0.47 0.37 0.34 0.34 0.38 0.42 0.52 0.51 0.38 0.41 0.54 0.60 0.63 0.76 0.80 0.82 0.84 0.86 0.77 0.52
0.18 0.16 0.14 0.11 0.10 0.09 0.09 0.08 0.08 0.09 0.09 0.12 0.17 0.22 0.26 0.35 0.50 0.62 0.68 0.79 0.87 0.79 0.63 0.52 0.40 0.33 0.30 0.25 0.24 0.33 0.45 0.50 0.41 0.39 0.49 0.48 0.55 0.73 0.78 0.78 0.81 0.82 0.68 0.57
0.14 0.12 0.11 0.09 0.08 0.07 0.06 0.06 0.07 0.09 0.11 0.17 0.25 0.31 0.35 0.41 0.51 0.61 0.64 0.72 0.86 0.88 0.74 0.55 0.37 0.29 0.24 0.19 0.20 0.27 0.39 0.47 0.40 0.33 0.37 0.47 0.58 0.69 0.75 0.74 0.76 0.79 0.70 0.60
0.11 0.08 0.06 0.06 0.06 0.06 0.06 0.07 0.10 0.14 0.16 0.21 0.30 0.39 0.46 0.46 0.47 0.56 0.69 0.77 0.72 0.75 0.73 0.64 0.44 0.29 0.20 0.20 0.21 0.29 0.40 0.46 0.39 0.30 0.31 0.40 0.55 0.67 0.74 0.75 0.76 0.75 0.67 0.60
0.07 0.05 0.05 0.05 0.05 0.06 0.06 0.07 0.10 0.13 0.17 0.27 0.35 0.42 0.50 0.48 0.49 0.48 0.52 0.66 0.69 0.78 0.73 0.66 0.55 0.38 0.25 0.20 0.20 0.27 0.36 0.42 0.38 0.30 0.28 0.36 0.49 0.60 0.66 0.70 0.72 0.70 0.67 0.65
0.04 0.03 0.02 0.02 0.02 0.03 0.03 0.05 0.06 0.09 0.20 0.34 0.40 0.46 0.52 0.49 0.53 0.63 0.58 0.49 0.54 0.67 0.61 0.55 0.53 0.43 0.30 0.23 0.21 0.27 0.38 0.46 0.45 0.34 0.29 0.35 0.43 0.47 0.54 0.59 0.61 0.65 0.69 0.65
0.04 0.03 0.02 0.01 0.01 0.02 0.04 0.05 0.05 0.08 0.19 0.31 0.31 0.38 0.43 0.45 0.46 0.49 0.50 0.50 0.53 0.59 0.52 0.47 0.45 0.41 0.38 0.34 0.34 0.36 0.41 0.45 0.42 0.33 0.29 0.33 0.37 0.39 0.47 0.56 0.64 0.70 0.67 0.60
0.04 0.03 0.02 0.02 0.04 0.05 0.07 0.06 0.06 0.09 0.23 0.35 0.31 0.32 0.33 0.37 0.47 0.50 0.48 0.45 0.50 0.53 0.49 0.47 0.42 0.39 0.38 0.45 0.51 0.49 0.45 0.42 0.38 0.32 0.30 0.31 0.34 0.37 0.45 0.58 0.68 0.69 0.62 0.59
0.05 0.05 0.05 0.04 0.05 0.06 0.07 0.08 0.09 0.12 0.28 0.52 0.48 0.39 0.36 0.34 0.38 0.45 0.52 0.51 0.51 0.54 0.51 0.46 0.41 0.40 0.41 0.50 0.56 0.52 0.44 0.41 0.39 0.37 0.35 0.35 0.39 0.45 0.53 0.62 0.64 0.56 0.50 0.48
0.04 0.04 0.04 0.04 0.05 0.06 0.07 0.11 0.14 0.17 0.31 0.57 0.63 0.46 0.39 0.38 0.41 0.47 0.54 0.57 0.53 0.52 0.49 0.43 0.38 0.36 0.38 0.42 0.44 0.44 0.42 0.41 0.42 0.41 0.39 0.39 0.41 0.46 0.48 0.53 0.52 0.45 0.42 0.39

GEFSNGP_prec_meanprecacc_114.txt.gz
Total_Precipitation_Accumulation
0.04 0.08 0.12 0.14 0.13 0.11 0.09 0.09 0.11 0.11 0.16 0.18 0.20 0.16 0.10 0.12 0.17 0.11 0.08 0.08 0.07 0.06 0.05 0.06 0.07 0.08 0.09 0.12 0.14 0.14 0.15 0.16 0.17 0.20 0.23 0.23 0.25 0.28 0.31 0.32 0.32 0.36 0.40 0.39
0.06 0.09 0.10 0.11 0.14 0.11 0.07 0.06 0.06 0.07 0.09 0.12 0.18 0.20 0.19 0.16 0.14 0.11 0.10 0.09 0.11 0.14 0.11 0.10 0.09 0.10 0.11 0.14 0.19 0.21 0.23 0.25 0.22 0.23 0.25 0.23 0.25 0.27 0.31 0.35 0.39 0.41 0.42 0.46
0.14 0.14 0.14 0.14 0.13 0.10 0.08 0.08 0.08 0.08 0.11 0.14 0.19 0.22 0.26 0.28 0.21 0.16 0.17 0.17 0.20 0.25 0.20 0.15 0.14 0.15 0.19 0.23 0.25 0.27 0.30 0.36 0.36 0.35 0.36 0.34 0.34 0.38 0.42 0.49 0.52 0.52 0.51 0.50
0.20 0.22 0.25 0.16 0.12 0.11 0.10 0.10 0.11 0.15 0.20 0.24 0.30 0.35 0.38 0.44 0.40 0.29 0.20 0.18 0.18 0.20 0.22 0.25 0.24 0.24 0.26 0.33 0.37 0.44 0.49 0.56 0.62 0.63 0.62 0.62 0.65 0.64 0.65 0.67 0.66 0.64 0.62 0.62
0.30 0.35 0.29 0.21 0.19 0.17 0.18 0.20 0.23 0.30 0.42 0.46 0.46 0.47 0.46 0.38 0.30 0.23 0.18 0.17 0.17 0.19 0.21 0.25 0.32 0.34 0.33 0.37 0.43 0.56 0.66 0.71 0.77 0.82 0.83 0.83 0.81 0.81 0.83 0.87 0.85 0.83 0.80 0.79
0.36 0.39 0.39 0.33 0.31 0.30 0.36 0.51 0.46 0.53 0.53 0.47 0.41 0.44 0.39 0.28 0.22 0.17 0.14 0.13 0.15 0.17 0.19 0.24 0.30 0.33 0.38 0.44 0.49 0.54 0.57 0.64 0.76 0.89 0.95 0.90 0.87 0.90 0.96 1.03 1.01 0.99 0.98 0.99
0.41 0.43 0.37 0.37 0.37 0.43 0.67 0.79 0.66 0.63 0.58 0.51 0.48 0.48 0.44 0.33 0.23 0.16 0.12 0.11 0.14 0.15 0.18 0.23 0.28 0.34 0.47 0.55 0.56 0.57 0.60 0.64 0.71 0.80 0.90 0.89 0.91 0.95 1.02 1.06 1.07 1.06 1.02 0.98
0.58 0.66 0.62 0.45 0.50 0.68 0.77 0.62 0.59 0.59 0.61 0.61 0.56 0.46 0.38 0.31 0.24 0.17 0.14 0.12 0.14 0.16 0.18 0.21 0.28 0.37 0.50 0.62 0.66 0.68 0.74 0.79 0.86 0.92 0.91 0.88 0.97 1.05 1.12 1.17 1.15 1.12 1.14 1.07
0.75 0.79 0.69 0.60 0.65 0.61 0.58 0.60 0.61 0.58 0.60 0.56 0.54 0.50 0.41 0.31 0.25 0.19 0.15 0.13 0.13 0.17 0.21 0.25 0.32 0.42 0.56 0.63 0.66 0.71 0.78 0.83 0.93 1.00 1.03 1.03 1.07 1.12 1.25 1.31 1.29 1.21 1.21 1.23
0.82 0.80 0.72 0.68 0.69 0.60 0.53 0.53 0.54 0.55 0.52 0.50 0.48 0.48 0.48 0.38 0.26 0.20 0.14 0.11 0.12 0.15 0.20 0.24 0.25 0.32 0.40 0.48 0.54 0.60 0.63 0.66 0.72 0.81 0.88 0.99 1.11 1.13 1.18 1.25 1.30 1.31 1.28 1.22
0.79 0.88 0.94 0.88 0.78 0.70 0.61 0.60 0.63 0.61 0.56 0.50 0.41 0.37 0.38 0.34 0.26 0.18 0.13 0.11 0.12 0.16 0.19 0.21 0.22 0.23 0.25 0.33 0.47 0.57 0.58 0.59 0.64 0.72 0.82 0.96 1.10 1.16 1.09 1.12 1.18 1.17 1.11 1.07
0.69 0.73 0.87 0.96 0.89 0.78 0.68 0.68 0.67 0.63 0.56 0.50 0.41 0.33 0.24 0.20 0.17 0.16 0.14 0.16 0.20 0.22 0.21 0.21 0.22 0.23 0.24 0.30 0.44 0.55 0.58 0.58 0.62 0.67 0.78 0.90 1.02 1.07 0.94 0.81 0.80 0.80 0.73 0.65
0.57 0.65 0.69 0.79 0.82 0.77 0.69 0.65 0.58 0.50 0.41 0.38 0.32 0.27 0.19 0.15 0.14 0.15 0.18 0.25 0.30 0.32 0.29 0.26 0.27 0.27 0.27 0.33 0.49 0.65 0.64 0.59 0.61 0.64 0.70 0.76 0.85 0.97 1.00 0.85 0.66 0.59 0.48 0.38
0.60 0.66 0.71 0.76 0.73 0.65 0.60 0.49 0.44 0.42 0.34 0.28 0.27 0.27 0.22 0.18 0.18 0.20 0.25 0.32 0.37 0.37 0.35 0.34 0.34 0.31 0.32 0.36 0.44 0.70 0.80 0.70 0.62 0.61 0.67 0.72 0.78 0.86 0.95 1.00 0.91 0.72 0.50 0.31
0.58 0.57 0.55 0.51 0.50 0.51 0.51 0.46 0.40 0.37 0.29 0.21 0.19 0.19 0.17 0.18 0.21 0.23 0.28 0.38 0.45 0.44 0.40 0.39 0.39 0.36 0.35 0.36 0.39 0.49 0.70 0.73 0.65 0.60 0.63 0.70 0.74 0.78 0.86 0.93 1.00 0.96 0.74 0.45
0.55 0.54 0.49 0.46 0.46 0.41 0.39 0.37 0.33 0.29 0.23 0.17 0.14 0.11 0.09 0.11 0.15 0.21 0.29 0.44 0.62 0.64 0.56 0.51 0.47 0.41 0.38 0.39 0.42 0.46 0.53 0.50 0.49 0.57 0.61 0.67 0.73 0.76 0.81 0.89 0.95 0.97 0.87 0.63
0.53 0.52 0.48 0.44 0.39 0.31 0.28 0.27 0.24 0.19 0.16 0.14 0.14 0.13 0.14 0.18 0.24 0.31 0.39 0.48 0.60 0.65 0.62 0.61 0.54 0.44 0.40 0.42 0.45 0.46 0.50 0.44 0.34 0.45 0.59 0.65 0.71 0.77 0.78 0.84 0.91 0.93 0.84 0.55
0.39 0.38 0.35 0.31 0.29 0.24 0.20 0.17 0.15 0.13 0.12 0.12 0.14 0.16 0.19 0.30 0.47 0.58 0.62 0.65 0.65 0.58 0.54 0.56 0.47 0.37 0.34 0.34 0.38 0.42 0.52 0.51 0.38 0.41 0.54 0.60 0.63 0.76 0.80 0.82 0.85 0.87 0.78 0.52
0.29 0.27 0.22 0.17 0.15 0.13 0.11 0.10 0.11 0.11 0.11 0.13 0.19 0.24 0.27 0.35 0.51 0.63 0.69 0.79 0.87 0.79 0.63 0.52 0.40 0.33 0.30 0.25 0.24 0.33 0.45 0.50 0.41 0.39 0.49 0.48 0.55 0.74 0.78 0.78 0.81 0.82 0.68 0.57
0.21 0.18 0.15 0.12 0.10 0.08 0.07 0.07 0.10 0.12 0.12 0.18 0.27 0.31 0.35 0.41 0.51 0.62 0.64 0.72 0.86 0.88 0.74 0.55 0.37 0.29 0.24 0.19 0.20 0.27 0.39 0.47 0.40 0.33 0.38 0.47 0.58 0.70 0.75 0.74 0.77 0.80 0.71 0.61
0.16 0.12 0.09 0.08 0.08 0.08 0.07 0.08 0.12 0.16 0.17 0.22 0.31 0.39 0.46 0.46 0.47 0.56 0.70 0.77 0.73 0.75 0.73 0.64 0.44 0.29 0.20 0.20 0.21 0.29 0.40 0.46 0.39 0.30 0.32 0.41 0.55 0.67 0.74 0.76 0.76 0.75 0.67 0.61
0.11 0.09 0.08 0.07 0.07 0.07 0.07 0.08 0.11 0.14 0.18 0.28 0.35 0.42 0.51 0.49 0.49 0.49 0.53 0.66 0.70 0.78 0.73 0.67 0.55 0.39 0.25 0.20 0.20 0.27 0.36 0.42 0.38 0.30 0.28 0.36 0.50 0.60 0.67 0.71 0.73 0.71 0.68 0.65
0.09 0.07 0.04 0.03 0.03 0.04 0.04 0.06 0.07 0.10 0.22 0.37 0.43 0.48 0.53 0.49 0.53 0.64 0.59 0.50 0.54 0.67 0.61 0.55 0.53 0.43 0.30 0.23 0.21 0.27 0.38 0.46 0.45 0.34 0.29 0.35 0.43 0.48 0.56 0.60 0.62 0.66 0.70 0.66
0.10 0.06 0.05 0.03 0.03 0.03 0.06 0.07 0.06 0.09 0.21 0.33 0.34 0.40 0.44 0.45 0.47 0.49 0.51 0.50 0.53 0.60 0.52 0.47 0.45 0.41 0.38 0.34 0.34 0.36 0.41 0.45 0.43 0.33 0.29 0.34 0.37 0.40 0.48 0.57 0.64 0.70 0.67 0.60
0.09 0.06 0.05 0.05 0.05 0.07 0.08 0.08 0.07 0.10 0.24 0.37 0.33 0.33 0.34 0.37 0.47 0.50 0.48 0.46 0.51 0.53 0.49 0.47 0.43 0.39 0.38 0.46 0.51 0.50 0.45 0.43 0.39 0.32 0.30 0.31 0.35 0.38 0.46 0.59 0.69 0.70 0.62 0.59
0.10 0.09 0.07 0.06 0.06 0.07 0.08 0.09 0.09 0.12 0.29 0.52 0.49 0.40 0.37 0.35 0.38 0.45 0.52 0.51 0.51 0.54 0.51 0.47 0.41 0.41 0.41 0.51 0.56 0.52 0.45 0.41 0.39 0.37 0.35 0.36 0.41 0.47 0.54 0.63 0.65 0.57 0.51 0.48
0.06 0.06 0.06 0.05 0.05 0.06 0.08 0.11 0.14 0.18 0.32 0.58 0.63 0.47 0.39 0.38 0.41 0.47 0.55 0.57 0.54 0.52 0.49 0.43 0.38 0.37 0.38 0.42 0.44 0.44 0.42 0.41 0.42 0.41 0.39 0.40 0.41 0.46 0.49 0.53 0.53 0.46 0.42 0.39

GEFSNGP_prec_meanprecacc_120.txt.gz
Total_Precipitation_Accumulation
0.05 0.10 0.16 0.18 0.14 0.11 0.09 0.09 0.11 0.12 0.18 0.23 0.26 0.19 0.11 0.13 0.17 0.11 0.09 0.09 0.07 0.07 0.07 0.06 0.07 0.09 0.10 0.13 0.17 0.18 0.19 0.22 0.24 0.27 0.30 0.30 0.33 0.37 0.40 0.42 0.43 0.46 0.49 0.48
0.06 0.10 0.11 0.13 0.16 0.11 0.07 0.06 0.07 0.07 0.13 0.19 0.22 0.24 0.22 0.17 0.14 0.12 0.11 0.10 0.12 0.15 0.13 0.12 0.12 0.12 0.13 0.17 0.22 0.27 0.30 0.30 0.27 0.30 0.31 0.29 0.32 0.35 0.39 0.42 0.47 0.52 0.52 0.54
0.14 0.14 0.14 0.15 0.14 0.10 0.08 0.09 0.09 0.09 0.12 0.17 0.25 0.26 0.28 0.29 0.21 0.17 0.17 0.18 0.22 0.26 0.21 0.16 0.15 0.17 0.20 0.24 0.27 0.32 0.36 0.42 0.43 0.42 0.42 0.40 0.41 0.46 0.50 0.57 0.59 0.61 0.59 0.58
0.20 0.23 0.26 0.17 0.13 0.12 0.10 0.11 0.12 0.15 0.21 0.25 0.32 0.37 0.41 0.45 0.41 0.30 0.21 0.21 0.21 0.22 0.24 0.26 0.26 0.27 0.29 0.35 0.40 0.48 0.55 0.63 0.69 0.70 0.70 0.71 0.74 0.73 0.74 0.77 0.76 0.74 0.71 0.71
0.31 0.36 0.30 0.22 0.19 0.17 0.19 0.21 0.23 0.31 0.43 0.47 0.47 0.50 0.51 0.41 0.31 0.24 0.20 0.20 0.22 0.22 0.24 0.27 0.34 0.37 0.36 0.41 0.47 0.61 0.72 0.80 0.86 0.90 0.92 0.92 0.90 0.90 0.94 1.00 0.98 0.95 0.92 0.92
0.38 0.41 0.41 0.36 0.32 0.31 0.37 0.54 0.48 0.54 0.56 0.50 0.44 0.51 0.48 0.35 0.25 0.19 0.17 0.17 0.20 0.22 0.24 0.29 0.36 0.38 0.44 0.51 0.56 0.61 0.63 0.71 0.85 0.98 1.04 1.00 0.98 1.03 1.10 1.17 1.15 1.13 1.12 1.12
0.44 0.46 0.40 0.40 0.38 0.44 0.71 0.86 0.70 0.65 0.62 0.56 0.59 0.59 0.52 0.40 0.28 0.19 0.16 0.16 0.18 0.21 0.25 0.31 0.37 0.43 0.56 0.66 0.66 0.65 0.67 0.73 0.82 0.93 1.03 1.01 1.04 1.07 1.14 1.18 1.19 1.18 1.13 1.10
0.65 0.72 0.68 0.47 0.51 0.72 0.85 0.68 0.62 0.62 0.71 0.72 0.66 0.55 0.45 0.38 0.32 0.23 0.18 0.16 0.18 0.21 0.25 0.29 0.36 0.46 0.60 0.73 0.76 0.78 0.83 0.89 0.96 1.03 1.01 0.99 1.08 1.14 1.22 1.28 1.27 1.23 1.24 1.17
0.81 0.84 0.73 0.62 0.66 0.64 0.61 0.65 0.66 0.65 0.75 0.75 0.65 0.59 0.47 0.39 0.34 0.27 0.22 0.17 0.17 0.21 0.26 0.31 0.37 0.50 0.66 0.73 0.76 0.80 0.87 0.91 1.00 1.07 1.10 1.10 1.15 1.20 1.34 1.42 1.40 1.33 1.32 1.32
0.85 0.82 0.73 0.70 0.70 0.61 0.55 0.58 0.60 0.62 0.62 0.65 0.58 0.57 0.56 0.45 0.33 0.26 0.21 0.17 0.17 0.19 0.24 0.28 0.29 0.36 0.47 0.55 0.61 0.68 0.71 0.73 0.78 0.88 0.95 1.05 1.17 1.19 1.24 1.32 1.38 1.41 1.37 1.30
0.84 0.93 0.98 0.91 0.81 0.73 0.66 0.66 0.70 0.70 0.65 0.61 0.51 0.46 0.46 0.41 0.31 0.24 0.18 0.16 0.17 0.20 0.23 0.24 0.25 0.28 0.31 0.41 0.56 0.65 0.65 0.65 0.72 0.80 0.88 1.02 1.16 1.21 1.14 1.16 1.24 1.23 1.16 1.12
0.75 0.81 0.97 1.03 0.94 0.82 0.73 0.76 0.77 0.75 0.67 0.60 0.50 0.41 0.31 0.26 0.22 0.20 0.19 0.20 0.23 0.25 0.24 0.24 0.25 0.27 0.30 0.38 0.52 0.63 0.65 0.65 0.68 0.73 0.83 0.95 1.07 1.12 0.99 0.85 0.84 0.83 0.75 0.68
0.62 0.69 0.75 0.86 0.88 0.82 0.77 0.77 0.71 0.63 0.54 0.50 0.41 0.34 0.27 0.22 0.19 0.19 0.23 0.29 0.34 0.37 0.33 0.31 0.31 0.31 0.32 0.37 0.52 0.69 0.68 0.63 0.65 0.68 0.74 0.79 0.88 0.99 1.02 0.86 0.67 0.59 0.48 0.39
0.67 0.72 0.80 0.86 0.82 0.74 0.72 0.65 0.57 0.56 0.48 0.41 0.38 0.35 0.29 0.25 0.23 0.24 0.28 0.36 0.41 0.40 0.38 0.38 0.37 0.34 0.34 0.38 0.47 0.72 0.82 0.72 0.63 0.63 0.69 0.74 0.79 0.86 0.96 1.00 0.91 0.72 0.50 0.31
0.65 0.66 0.67 0.62 0.63 0.64 0.66 0.65 0.56 0.51 0.42 0.35 0.32 0.31 0.27 0.25 0.27 0.28 0.32 0.41 0.48 0.46 0.42 0.41 0.41 0.38 0.37 0.39 0.43 0.53 0.73 0.77 0.68 0.63 0.66 0.72 0.75 0.79 0.86 0.93 1.00 0.97 0.74 0.45
0.64 0.66 0.62 0.59 0.60 0.56 0.53 0.56 0.57 0.48 0.39 0.33 0.28 0.23 0.20 0.21 0.24 0.28 0.35 0.49 0.66 0.68 0.58 0.53 0.50 0.44 0.42 0.44 0.47 0.51 0.58 0.54 0.53 0.59 0.63 0.68 0.73 0.76 0.81 0.89 0.95 0.98 0.87 0.64
0.64 0.65 0.62 0.60 0.57 0.48 0.41 0.42 0.44 0.42 0.33 0.28 0.27 0.25 0.24 0.26 0.33 0.39 0.45 0.53 0.64 0.67 0.64 0.62 0.55 0.45 0.41 0.43 0.46 0.47 0.52 0.45 0.35 0.46 0.60 0.66 0.72 0.77 0.78 0.84 0.91 0.94 0.85 0.55
0.54 0.53 0.48 0.44 0.45 0.44 0.38 0.32 0.30 0.28 0.26 0.23 0.26 0.28 0.29 0.37 0.53 0.63 0.65 0.68 0.67 0.59 0.55 0.56 0.47 0.38 0.34 0.34 0.38 0.42 0.52 0.51 0.38 0.41 0.54 0.60 0.63 0.76 0.80 0.82 0.85 0.87 0.78 0.52
0.45 0.41 0.34 0.28 0.25 0.25 0.25 0.24 0.23 0.21 0.19 0.21 0.28 0.33 0.35 0.41 0.54 0.66 0.71 0.81 0.89 0.80 0.64 0.52 0.41 0.33 0.30 0.25 0.24 0.33 0.45 0.50 0.41 0.39 0.49 0.48 0.55 0.74 0.78 0.78 0.82 0.82 0.68 0.57
0.32 0.28 0.22 0.19 0.16 0.16 0.15 0.15 0.17 0.18 0.18 0.23 0.33 0.37 0.41 0.45 0.54 0.64 0.66 0.74 0.87 0.88 0.74 0.55 0.37 0.29 0.24 0.19 0.20 0.27 0.39 0.47 0.40 0.33 0.38 0.47 0.59 0.70 0.76 0.74 0.77 0.80 0.71 0.61
0.22 0.17 0.13 0.11 0.12 0.12 0.11 0.11 0.15 0.20 0.22 0.28 0.37 0.43 0.50 0.48 0.48 0.57 0.71 0.78 0.73 0.75 0.74 0.64 0.44 0.29 0.20 0.20 0.21 0.29 0.40 0.46 0.39 0.30 0.32 0.41 0.56 0.68 0.75 0.76 0.77 0.76 0.68 0.62
0.15 0.13 0.11 0.10 0.10 0.10 0.10 0.11 0.14 0.17 0.22 0.32 0.39 0.45 0.53 0.51 0.51 0.50 0.54 0.67 0.70 0.78 0.73 0.67 0.55 0.39 0.25 0.20 0.20 0.27 0.36 0.42 0.38 0.30 0.28 0.36 0.51 0.61 0.68 0.72 0.74 0.73 0.69 0.67
0.15 0.12 0.09 0.07 0.06 0.07 0.07 0.08 0.10 0.14 0.26 0.40 0.45 0.51 0.56 0.52 0.55 0.65 0.61 0.50 0.54 0.67 0.61 0.55 0.53 0.43 0.30 0.23 0.21 0.27 0.38 0.46 0.45 0.34 0.30 0.36 0.43 0.48 0.56 0.60 0.63 0.67 0.71 0.67
0.18 0.13 0.10 0.07 0.06 0.07 0.10 0.10 0.09 0.12 0.25 0.36 0.36 0.41 0.46 0.48 0.49 0.51 0.51 0.50 0.53 0.60 0.52 0.47 0.45 0.42 0.38 0.34 0.34 0.36 0.41 0.45 0.43 0.33 0.30 0.34 0.37 0.40 0.48 0.57 0.65 0.71 0.68 0.61
0.15 0.11 0.10 0.09 0.09 0.10 0.11 0.10 0.09 0.12 0.25 0.39 0.34 0.34 0.35 0.39 0.49 0.51 0.48 0.46 0.51 0.53 0.49 0.48 0.43 0.40 0.38 0.46 0.52 0.50 0.45 0.43 0.39 0.33 0.30 0.31 0.35 0.39 0.46 0.59 0.69 0.70 0.63 0.60
0.15 0.13 0.11 0.10 0.10 0.10 0.10 0.11 0.12 0.14 0.30 0.53 0.49 0.41 0.37 0.35 0.39 0.45 0.52 0.51 0.51 0.54 0.51 0.47 0.41 0.41 0.42 0.51 0.57 0.53 0.45 0.41 0.39 0.37 0.35 0.36 0.41 0.47 0.54 0.64 0.65 0.57 0.51 0.48
0.11 0.11 0.10 0.09 0.09 0.09 0.09 0.13 0.16 0.19 0.33 0.59 0.64 0.47 0.39 0.38 0.42 0.48 0.55 0.57 0.54 0.52 0.49 0.44 0.39 0.37 0.38 0.43 0.44 0.44 0.42 0.41 0.42 0.41 0.39 0.40 0.41 0.46 0.49 0.53 0.53 0.46 0.42 0.39

GEFSNGP_prec_meanprecacc_126.txt.gz
Total_Precipitation_Accumulation
0.05 0.10 0.16 0.18 0.15 0.12 0.10 0.10 0.12 0.14 0.21 0.26 0.32 0.26 0.17 0.21 0.27 0.20 0.16 0.14 0.12 0.13 0.12 0.09 0.09 0.11 0.14 0.17 0.19 0.20 0.22 0.27 0.28 0.30 0.33 0.34 0.37 0.43 0.47 0.50 0.51 0.54 0.57 0.54
0.06 0.10 0.12 0.13 0.16 0.12 0.08 0.07 0.08 0.09 0.16 0.23 0.28 0.32 0.27 0.22 0.21 0.21 0.19 0.17 0.19 0.21 0.18 0.15 0.13 0.13 0.15 0.20 0.25 0.29 0.35 0.38 0.34 0.36 0.38 0.37 0.39 0.42 0.48 0.51 0.56 0.62 0.66 0.67
0.15 0.15 0.15 0.16 0.15 0.11 0.09 0.10 0.10 0.12 0.17 0.23 0.29 0.33 0.35 0.34 0.26 0.26 0.30 0.27 0.31 0.36 0.28 0.21 0.19 0.21 0.23 0.27 0.31 0.35 0.42 0.51 0.52 0.51 0.52 0.51 0.53 0.56 0.59 0.67 0.69 0.71 0.70 0.71
0.21 0.24 0.27 0.18 0.14 0.12 0.11 0.12 0.14 0.18 0.24 0.28 0.36 0.42 0.46 0.52 0.47 0.38 0.34 0.33 0.34 0.33 0.35 0.36 0.34 0.35 0.37 0.40 0.44 0.53 0.61 0.70 0.78 0.79 0.80 0.82 0.88 0.85 0.85 0.88 0.88 0.86 0.84 0.84
0.32 0.37 0.31 0.23 0.20 0.19 0.20 0.23 0.25 0.33 0.46 0.51 0.51 0.56 0.59 0.53 0.42 0.34 0.33 0.32 0.40 0.40 0.39 0.40 0.48 0.49 0.47 0.49 0.54 0.68 0.80 0.87 0.94 0.98 1.02 1.05 1.04 1.05 1.09 1.15 1.14 1.10 1.06 1.07
0.38 0.42 0.43 0.38 0.34 0.33 0.40 0.59 0.51 0.56 0.60 0.54 0.49 0.60 0.58 0.45 0.39 0.34 0.32 0.33 0.40 0.44 0.44 0.48 0.56 0.54 0.56 0.60 0.68 0.72 0.75 0.82 0.96 1.10 1.19 1.15 1.14 1.21 1.30 1.37 1.33 1.30 1.29 1.31
0.45 0.47 0.41 0.41 0.39 0.45 0.74 0.92 0.76 0.71 0.68 0.62 0.67 0.67 0.61 0.49 0.38 0.30 0.28 0.31 0.35 0.38 0.42 0.44 0.51 0.60 0.73 0.83 0.85 0.83 0.86 0.91 1.00 1.12 1.23 1.22 1.25 1.29 1.35 1.39 1.37 1.35 1.30 1.26
0.67 0.75 0.70 0.48 0.52 0.74 0.88 0.73 0.69 0.75 0.80 0.79 0.72 0.63 0.50 0.42 0.36 0.28 0.26 0.26 0.29 0.35 0.38 0.43 0.51 0.64 0.79 0.92 0.97 0.99 1.04 1.13 1.19 1.25 1.21 1.17 1.27 1.34 1.39 1.45 1.42 1.37 1.37 1.29
0.84 0.87 0.76 0.63 0.68 0.65 0.62 0.67 0.71 0.73 0.83 0.83 0.71 0.68 0.53 0.43 0.37 0.31 0.27 0.25 0.26 0.31 0.36 0.44 0.53 0.66 0.84 0.91 0.94 0.99 1.05 1.11 1.20 1.24 1.26 1.24 1.28 1.32 1.45 1.52 1.51 1.45 1.44 1.45
0.89 0.87 0.77 0.72 0.72 0.63 0.57 0.60 0.64 0.67 0.68 0.70 0.64 0.67 0.63 0.51 0.39 0.33 0.28 0.24 0.24 0.28 0.34 0.41 0.43 0.49 0.59 0.66 0.73 0.80 0.84 0.86 0.89 0.98 1.06 1.17 1.28 1.28 1.33 1.40 1.47 1.52 1.51 1.44
0.90 0.99 1.02 0.94 0.84 0.76 0.69 0.69 0.74 0.74 0.69 0.66 0.56 0.54 0.56 0.50 0.38 0.32 0.28 0.24 0.26 0.30 0.32 0.34 0.38 0.39 0.41 0.50 0.65 0.74 0.74 0.74 0.79 0.87 0.96 1.12 1.28 1.34 1.25 1.27 1.34 1.34 1.27 1.23
0.81 0.86 1.01 1.08 0.97 0.85 0.76 0.79 0.80 0.78 0.71 0.64 0.55 0.46 0.38 0.33 0.28 0.26 0.25 0.27 0.31 0.33 0.32 0.32 0.36 0.37 0.37 0.44 0.59 0.70 0.72 0.70 0.74 0.79 0.89 1.00 1.13 1.18 1.05 0.90 0.89 0.87 0.79 0.72
0.64 0.71 0.79 0.90 0.91 0.85 0.80 0.80 0.74 0.66 0.58 0.56 0.47 0.39 0.30 0.26 0.24 0.23 0.27 0.33 0.38 0.41 0.41 0.38 0.37 0.37 0.37 0.43 0.57 0.73 0.73 0.68 0.69 0.72 0.78 0.84 0.91 1.02 1.04 0.89 0.69 0.60 0.49 0.39
0.68 0.73 0.83 0.89 0.85 0.77 0.76 0.69 0.61 0.61 0.58 0.54 0.49 0.40 0.33 0.28 0.27 0.28 0.33 0.40 0.44 0.44 0.42 0.42 0.43 0.38 0.38 0.40 0.49 0.74 0.83 0.73 0.64 0.64 0.70 0.75 0.81 0.88 0.97 1.02 0.93 0.73 0.50 0.31
0.67 0.67 0.68 0.63 0.65 0.68 0.71 0.70 0.61 0.57 0.51 0.50 0.48 0.39 0.33 0.30 0.31 0.32 0.38 0.46 0.52 0.49 0.45 0.43 0.42 0.39 0.38 0.40 0.44 0.55 0.74 0.78 0.69 0.64 0.67 0.73 0.77 0.81 0.89 0.95 1.02 0.98 0.75 0.46
0.66 0.67 0.63 0.61 0.63 0.60 0.58 0.61 0.63 0.54 0.46 0.45 0.43 0.34 0.29 0.29 0.30 0.34 0.40 0.54 0.71 0.71 0.61 0.55 0.51 0.45 0.42 0.44 0.47 0.52 0.60 0.56 0.55 0.61 0.64 0.70 0.76 0.79 0.83 0.91 0.97 1.00 0.89 0.64
0.66 0.67 0.65 0.64 0.62 0.54 0.46 0.48 0.49 0.47 0.39 0.37 0.40 0.38 0.33 0.34 0.41 0.47 0.52 0.59 0.69 0.71 0.67 0.65 0.57 0.46 0.41 0.43 0.47 0.47 0.52 0.46 0.36 0.47 0.61 0.67 0.72 0.78 0.80 0.85 0.92 0.94 0.85 0.55
0.55 0.55 0.51 0.48 0.51 0.51 0.45 0.39 0.35 0.35 0.33 0.33 0.37 0.40 0.39 0.46 0.62 0.71 0.73 0.75 0.73 0.63 0.58 0.58 0.48 0.39 0.35 0.35 0.38 0.42 0.52 0.52 0.39 0.41 0.55 0.60 0.63 0.76 0.80 0.82 0.85 0.87 0.78 0.52
0.47 0.45 0.39 0.33 0.31 0.33 0.35 0.34 0.30 0.28 0.27 0.29 0.37 0.43 0.44 0.48 0.62 0.72 0.76 0.85 0.92 0.83 0.65 0.53 0.41 0.34 0.31 0.26 0.24 0.33 0.45 0.50 0.41 0.39 0.49 0.48 0.55 0.74 0.78 0.78 0.82 0.82 0.68 0.57
0.37 0.33 0.27 0.24 0.21 0.22 0.24 0.24 0.24 0.24 0.24 0.28 0.38 0.43 0.45 0.49 0.58 0.68 0.69 0.77 0.89 0.90 0.75 0.55 0.38 0.30 0.24 0.19 0.20 0.27 0.39 0.47 0.40 0.33 0.38 0.47 0.59 0.70 0.76 0.74 0.77 0.80 0.71 0.62
0.27 0.22 0.17 0.15 0.15 0.16 0.15 0.16 0.20 0.24 0.26 0.32 0.41 0.46 0.52 0.51 0.51 0.61 0.74 0.80 0.74 0.76 0.74 0.64 0.44 0.29 0.20 0.20 0.21 0.29 0.40 0.46 0.39 0.30 0.32 0.41 0.56 0.68 0.75 0.76 0.77 0.76 0.68 0.62
0.20 0.17 0.15 0.13 0.13 0.13 0.12 0.13 0.17 0.21 0.25 0.36 0.43 0.47 0.55 0.53 0.53 0.52 0.55 0.68 0.71 0.78 0.73 0.67 0.55 0.39 0.25 0.20 0.20 0.27 0.36 0.42 0.38 0.30 0.28 0.36 0.51 0.61 0.68 0.72 0.74 0.73 0.69 0.67
0.18 0.15 0.11 0.09 0.08 0.09 0.09 0.11 0.13 0.16 0.29 0.44 0.49 0.53 0.57 0.53 0.56 0.66 0.61 0.51 0.55 0.67 0.61 0.55 0.53 0.43 0.30 0.23 0.22 0.27 0.38 0.46 0.45 0.34 0.30 0.36 0.43 0.48 0.56 0.60 0.63 0.67 0.71 0.67
0.23 0.17 0.13 0.09 0.07 0.09 0.12 0.13 0.12 0.15 0.28 0.39 0.38 0.43 0.47 0.49 0.50 0.51 0.52 0.50 0.53 0.60 0.52 0.47 0.45 0.42 0.38 0.34 0.34 0.36 0.41 0.45 0.43 0.33 0.30 0.34 0.37 0.40 0.48 0.57 0.65 0.71 0.68 0.61
0.20 0.16 0.13 0.11 0.12 0.13 0.15 0.13 0.12 0.14 0.27 0.41 0.36 0.35 0.35 0.39 0.49 0.51 0.48 0.46 0.51 0.53 0.49 0.48 0.43 0.40 0.38 0.46 0.52 0.50 0.45 0.43 0.39 0.33 0.30 0.31 0.35 0.39 0.46 0.59 0.69 0.70 0.63 0.60
0.20 0.18 0.16 0.14 0.13 0.13 0.13 0.13 0.14 0.16 0.31 0.54 0.50 0.41 0.38 0.35 0.39 0.45 0.52 0.51 0.51 0.54 0.51 0.47 0.41 0.41 0.42 0.51 0.57 0.53 0.45 0.41 0.39 0.37 0.35 0.36 0.41 0.47 0.54 0.64 0.65 0.57 0.51 0.48
0.15 0.14 0.13 0.12 0.11 0.10 0.11 0.14 0.17 0.21 0.34 0.60 0.64 0.47 0.40 0.39 0.42 0.48 0.55 0.57 0.54 0.52 0.50 0.44 0.39 0.37 0.38 0.43 0.44 0.44 0.42 0.41 0.42 0.41 0.39 0.40 0.41 0.46 0.49 0.53 0.53 0.46 0.42 0.39

GEFSNGP_prec_meanprecacc_132.txt.gz
Total_Precipitation_Accumulation
0.05 0.10 0.16 0.18 0.15 0.13 0.10 0.10 0.12 0.14 0.21 0.26 0.32 0.27 0.18 0.22 0.28 0.20 0.17 0.16 0.15 0.15 0.14 0.12 0.13 0.15 0.16 0.19 0.21 0.23 0.25 0.30 0.32 0.37 0.40 0.40 0.43 0.48 0.53 0.56 0.57 0.61 0.65 0.62
0.06 0.10 0.12 0.13 0.16 0.12 0.08 0.07 0.08 0.10 0.17 0.23 0.28 0.33 0.29 0.23 0.23 0.22 0.20 0.20 0.22 0.24 0.21 0.18 0.17 0.17 0.17 0.21 0.28 0.33 0.39 0.41 0.39 0.40 0.44 0.44 0.47 0.49 0.56 0.60 0.65 0.72 0.76 0.76
0.15 0.15 0.15 0.16 0.15 0.11 0.09 0.10 0.11 0.12 0.17 0.24 0.30 0.34 0.37 0.36 0.28 0.27 0.32 0.32 0.37 0.42 0.34 0.26 0.24 0.24 0.25 0.29 0.33 0.38 0.46 0.55 0.56 0.56 0.58 0.59 0.62 0.65 0.67 0.76 0.80 0.83 0.81 0.81
0.21 0.24 0.27 0.18 0.14 0.12 0.11 0.13 0.14 0.18 0.24 0.29 0.37 0.43 0.48 0.55 0.49 0.40 0.36 0.36 0.39 0.41 0.44 0.43 0.41 0.39 0.40 0.42 0.46 0.56 0.65 0.74 0.83 0.85 0.87 0.92 0.97 0.93 0.94 0.98 1.02 1.01 0.96 0.94
0.32 0.37 0.31 0.23 0.21 0.20 0.21 0.24 0.26 0.34 0.47 0.52 0.53 0.58 0.61 0.55 0.44 0.38 0.36 0.36 0.44 0.46 0.47 0.49 0.57 0.57 0.53 0.54 0.58 0.74 0.87 0.95 1.01 1.07 1.12 1.15 1.13 1.16 1.22 1.30 1.29 1.27 1.21 1.20
0.39 0.42 0.43 0.39 0.34 0.33 0.41 0.60 0.52 0.57 0.61 0.56 0.51 0.62 0.59 0.47 0.41 0.37 0.36 0.38 0.45 0.51 0.50 0.55 0.68 0.67 0.66 0.70 0.76 0.80 0.84 0.91 1.07 1.23 1.34 1.32 1.30 1.39 1.49 1.57 1.53 1.51 1.48 1.48
0.46 0.48 0.41 0.41 0.39 0.45 0.75 0.93 0.76 0.71 0.68 0.64 0.68 0.68 0.62 0.51 0.40 0.33 0.31 0.35 0.40 0.45 0.48 0.49 0.58 0.68 0.82 0.94 0.96 0.94 0.98 1.05 1.16 1.31 1.43 1.44 1.48 1.51 1.59 1.64 1.63 1.59 1.52 1.46
0.68 0.75 0.71 0.49 0.52 0.74 0.88 0.73 0.70 0.76 0.81 0.81 0.74 0.64 0.52 0.44 0.39 0.31 0.29 0.29 0.34 0.41 0.45 0.49 0.58 0.72 0.90 1.05 1.12 1.16 1.23 1.33 1.38 1.44 1.42 1.39 1.49 1.56 1.61 1.68 1.65 1.60 1.58 1.47
0.85 0.87 0.77 0.64 0.68 0.66 0.63 0.68 0.71 0.74 0.84 0.84 0.73 0.71 0.57 0.47 0.41 0.34 0.30 0.27 0.30 0.35 0.42 0.49 0.59 0.74 0.96 1.05 1.13 1.19 1.27 1.31 1.40 1.43 1.43 1.41 1.45 1.50 1.62 1.70 1.68 1.62 1.60 1.58
0.90 0.89 0.79 0.73 0.73 0.64 0.58 0.61 0.64 0.67 0.69 0.71 0.66 0.70 0.67 0.56 0.44 0.38 0.32 0.28 0.28 0.33 0.40 0.48 0.51 0.59 0.72 0.81 0.89 0.97 1.01 1.05 1.08 1.15 1.22 1.31 1.41 1.42 1.47 1.55 1.62 1.64 1.61 1.53
0.92 1.01 1.05 0.96 0.85 0.77 0.70 0.71 0.76 0.76 0.71 0.68 0.58 0.56 0.59 0.54 0.43 0.37 0.32 0.28 0.30 0.36 0.37 0.41 0.48 0.49 0.53 0.62 0.77 0.85 0.86 0.86 0.93 1.01 1.10 1.24 1.38 1.44 1.36 1.38 1.45 1.44 1.35 1.29
0.83 0.88 1.03 1.10 0.99 0.87 0.78 0.81 0.83 0.81 0.73 0.66 0.56 0.48 0.40 0.36 0.30 0.28 0.27 0.29 0.34 0.38 0.38 0.38 0.43 0.46 0.48 0.56 0.71 0.82 0.83 0.79 0.82 0.87 0.97 1.08 1.19 1.25 1.12 0.96 0.95 0.93 0.84 0.75
0.67 0.74 0.81 0.91 0.92 0.87 0.82 0.82 0.77 0.69 0.61 0.58 0.48 0.41 0.33 0.29 0.26 0.26 0.29 0.35 0.41 0.44 0.45 0.44 0.43 0.44 0.45 0.51 0.66 0.84 0.82 0.75 0.74 0.76 0.83 0.88 0.96 1.07 1.10 0.94 0.73 0.64 0.52 0.42
0.69 0.75 0.84 0.90 0.86 0.78 0.77 0.71 0.64 0.64 0.60 0.57 0.51 0.43 0.35 0.33 0.31 0.31 0.36 0.43 0.46 0.46 0.44 0.46 0.48 0.44 0.43 0.46 0.55 0.81 0.90 0.78 0.68 0.67 0.73 0.77 0.82 0.90 0.99 1.05 0.96 0.76 0.53 0.34
0.67 0.68 0.69 0.64 0.66 0.69 0.72 0.72 0.64 0.59 0.53 0.53 0.51 0.42 0.37 0.36 0.35 0.36 0.40 0.48 0.54 0.52 0.47 0.45 0.46 0.43 0.43 0.46 0.51 0.62 0.80 0.81 0.71 0.66 0.69 0.75 0.79 0.84 0.91 0.97 1.04 1.00 0.78 0.50
0.68 0.68 0.65 0.63 0.65 0.62 0.60 0.64 0.66 0.56 0.48 0.49 0.49 0.39 0.36 0.36 0.35 0.36 0.43 0.56 0.74 0.76 0.65 0.58 0.54 0.47 0.45 0.48 0.51 0.56 0.63 0.59 0.57 0.62 0.66 0.72 0.78 0.81 0.85 0.94 1.00 1.02 0.92 0.69
0.68 0.68 0.66 0.65 0.64 0.55 0.48 0.51 0.52 0.50 0.41 0.40 0.48 0.47 0.42 0.42 0.45 0.50 0.55 0.63 0.74 0.76 0.71 0.68 0.59 0.47 0.43 0.45 0.48 0.49 0.53 0.47 0.37 0.48 0.62 0.68 0.74 0.79 0.81 0.87 0.95 0.97 0.89 0.59
0.59 0.57 0.52 0.49 0.52 0.52 0.48 0.43 0.39 0.37 0.36 0.37 0.45 0.50 0.48 0.53 0.66 0.75 0.78 0.81 0.78 0.67 0.61 0.61 0.51 0.41 0.36 0.36 0.39 0.42 0.53 0.52 0.39 0.42 0.56 0.62 0.65 0.78 0.82 0.84 0.87 0.89 0.80 0.54
0.53 0.50 0.42 0.35 0.32 0.35 0.38 0.38 0.34 0.31 0.31 0.35 0.46 0.52 0.52 0.55 0.67 0.78 0.80 0.89 0.95 0.86 0.68 0.56 0.44 0.36 0.32 0.28 0.26 0.33 0.45 0.50 0.42 0.40 0.50 0.50 0.58 0.77 0.81 0.81 0.83 0.83 0.69 0.58
0.43 0.40 0.33 0.28 0.25 0.25 0.28 0.28 0.28 0.29 0.30 0.35 0.45 0.49 0.52 0.56 0.63 0.71 0.72 0.79 0.91 0.92 0.76 0.56 0.38 0.30 0.25 0.21 0.21 0.28 0.39 0.47 0.40 0.33 0.38 0.47 0.59 0.70 0.76 0.75 0.77 0.81 0.71 0.62
0.33 0.27 0.22 0.21 0.22 0.22 0.21 0.21 0.25 0.30 0.32 0.37 0.45 0.50 0.55 0.53 0.53 0.62 0.75 0.81 0.75 0.77 0.75 0.65 0.45 0.30 0.21 0.20 0.22 0.30 0.40 0.47 0.39 0.30 0.32 0.41 0.56 0.68 0.75 0.76 0.77 0.76 0.68 0.62
0.24 0.22 0.20 0.19 0.19 0.20 0.18 0.18 0.21 0.24 0.29 0.38 0.45 0.49 0.56 0.54 0.54 0.53 0.56 0.69 0.71 0.78 0.74 0.67 0.55 0.39 0.26 0.20 0.20 0.27 0.36 0.42 0.39 0.30 0.28 0.36 0.51 0.61 0.68 0.72 0.74 0.73 0.69 0.67
0.22 0.19 0.16 0.15 0.14 0.14 0.13 0.14 0.15 0.18 0.30 0.45 0.50 0.55 0.59 0.54 0.56 0.66 0.62 0.51 0.55 0.68 0.61 0.55 0.53 0.43 0.30 0.23 0.22 0.27 0.38 0.46 0.45 0.34 0.30 0.36 0.43 0.48 0.56 0.60 0.63 0.67 0.71 0.67
0.25 0.19 0.16 0.13 0.10 0.12 0.14 0.15 0.14 0.17 0.29 0.40 0.40 0.45 0.49 0.49 0.50 0.51 0.52 0.50 0.53 0.60 0.52 0.47 0.45 0.42 0.38 0.34 0.34 0.36 0.41 0.45 0.43 0.33 0.30 0.34 0.37 0.40 0.48 0.57 0.65 0.71 0.68 0.61
0.22 0.18 0.15 0.14 0.14 0.15 0.16 0.15 0.13 0.15 0.28 0.42 0.36 0.36 0.36 0.40 0.49 0.51 0.48 0.46 0.51 0.53 0.49 0.48 0.43 0.40 0.38 0.46 0.52 0.50 0.45 0.43 0.39 0.33 0.30 0.31 0.35 0.39 0.46 0.59 0.69 0.70 0.63 0.60
0.22 0.21 0.18 0.16 0.15 0.15 0.14 0.14 0.15 0.17 0.32 0.56 0.52 0.42 0.38 0.36 0.39 0.46 0.53 0.52 0.51 0.54 0.51 0.47 0.41 0.41 0.42 0.51 0.57 0.53 0.45 0.41 0.39 0.37 0.35 0.36 0.41 0.47 0.54 0.64 0.65 0.57 0.51 0.48
0.18 0.17 0.17 0.16 0.14 0.13 0.13 0.16 0.19 0.22 0.35 0.61 0.65 0.48 0.40 0.39 0.43 0.49 0.56 0.58 0.54 0.53 0.50 0.44 0.39 0.37 0.38 0.43 0.44 0.44 0.42 0.41 0.42 0.41 0.39 0.40 0.41 0.46 0.49 0.53 0.53 0.46 0.42 0.39

GEFSNGP_prec_meanprecacc_138.txt.gz
Total_Precipitation_Accumulation
0.05 0.10 0.16 0.18 0.15 0.13 0.10 0.10 0.12 0.14 0.21 0.26 0.32 0.27 0.18 0.22 0.28 0.20 0.17 0.17 0.15 0.16 0.15 0.13 0.14 0.16 0.17 0.20 0.23 0.24 0.26 0.32 0.35 0.41 0.45 0.47 0.50 0.55 0.60 0.63 0.64 0.69 0.75 0.73
0.06 0.10 0.12 0.13 0.16 0.12 0.08 0.07 0.08 0.10 0.17 0.23 0.28 0.33 0.29 0.23 0.23 0.22 0.21 0.20 0.22 0.25 0.22 0.20 0.18 0.18 0.18 0.22 0.30 0.36 0.41 0.43 0.41 0.44 0.49 0.49 0.53 0.56 0.64 0.68 0.73 0.80 0.84 0.84
0.15 0.15 0.15 0.16 0.15 0.11 0.09 0.10 0.11 0.12 0.17 0.24 0.30 0.34 0.37 0.36 0.29 0.28 0.33 0.33 0.39 0.45 0.37 0.28 0.25 0.25 0.26 0.30 0.35 0.42 0.49 0.59 0.60 0.60 0.63 0.64 0.67 0.70 0.75 0.85 0.89 0.91 0.89 0.88
0.21 0.24 0.27 0.18 0.14 0.12 0.11 0.13 0.14 0.18 0.24 0.29 0.37 0.43 0.49 0.55 0.51 0.42 0.37 0.37 0.40 0.42 0.46 0.44 0.41 0.40 0.41 0.44 0.48 0.59 0.70 0.80 0.86 0.89 0.93 0.99 1.03 0.99 1.01 1.06 1.11 1.09 1.03 1.03
0.32 0.37 0.31 0.23 0.21 0.20 0.21 0.24 0.26 0.34 0.47 0.53 0.53 0.58 0.62 0.56 0.46 0.40 0.38 0.37 0.45 0.47 0.49 0.50 0.58 0.58 0.55 0.55 0.60 0.76 0.91 1.02 1.06 1.11 1.17 1.21 1.19 1.23 1.31 1.38 1.39 1.39 1.32 1.32
0.39 0.43 0.43 0.39 0.35 0.34 0.41 0.60 0.52 0.57 0.61 0.56 0.51 0.63 0.60 0.48 0.42 0.39 0.37 0.39 0.47 0.53 0.52 0.57 0.70 0.69 0.68 0.72 0.78 0.83 0.87 0.96 1.12 1.28 1.40 1.38 1.37 1.48 1.60 1.70 1.66 1.64 1.64 1.65
0.46 0.48 0.41 0.42 0.40 0.45 0.75 0.94 0.77 0.71 0.68 0.64 0.69 0.69 0.63 0.51 0.41 0.34 0.32 0.37 0.43 0.47 0.50 0.51 0.60 0.70 0.84 0.95 0.98 0.98 1.03 1.10 1.22 1.37 1.51 1.53 1.58 1.61 1.70 1.79 1.78 1.75 1.69 1.64
0.68 0.75 0.71 0.49 0.52 0.75 0.89 0.73 0.70 0.76 0.82 0.81 0.74 0.65 0.52 0.45 0.40 0.31 0.30 0.31 0.35 0.42 0.46 0.50 0.60 0.74 0.92 1.07 1.15 1.20 1.28 1.41 1.46 1.52 1.51 1.48 1.58 1.67 1.72 1.79 1.78 1.76 1.78 1.68
0.85 0.87 0.77 0.64 0.69 0.66 0.63 0.68 0.72 0.74 0.84 0.84 0.74 0.71 0.57 0.48 0.41 0.34 0.31 0.29 0.31 0.36 0.43 0.51 0.61 0.76 0.99 1.08 1.17 1.24 1.32 1.40 1.51 1.56 1.58 1.55 1.59 1.63 1.74 1.80 1.79 1.73 1.73 1.74
0.91 0.90 0.79 0.74 0.74 0.65 0.59 0.62 0.65 0.67 0.69 0.72 0.67 0.70 0.67 0.57 0.45 0.38 0.33 0.29 0.30 0.35 0.42 0.50 0.53 0.60 0.74 0.84 0.93 1.02 1.08 1.14 1.19 1.29 1.39 1.50 1.61 1.60 1.61 1.68 1.75 1.78 1.76 1.69
0.94 1.02 1.06 0.97 0.86 0.78 0.71 0.72 0.76 0.76 0.71 0.68 0.58 0.57 0.60 0.54 0.44 0.38 0.33 0.29 0.31 0.38 0.39 0.43 0.49 0.52 0.57 0.66 0.83 0.93 0.94 0.97 1.05 1.15 1.25 1.40 1.54 1.59 1.51 1.51 1.57 1.55 1.47 1.41
0.85 0.89 1.05 1.11 1.00 0.88 0.80 0.84 0.85 0.82 0.75 0.68 0.57 0.49 0.41 0.37 0.31 0.30 0.28 0.30 0.35 0.39 0.39 0.40 0.44 0.48 0.51 0.61 0.77 0.88 0.90 0.88 0.91 0.97 1.07 1.18 1.29 1.35 1.23 1.06 1.04 1.00 0.90 0.81
0.68 0.74 0.82 0.93 0.94 0.88 0.84 0.85 0.79 0.72 0.63 0.60 0.50 0.42 0.34 0.30 0.28 0.27 0.30 0.36 0.41 0.45 0.47 0.46 0.45 0.46 0.48 0.56 0.72 0.90 0.90 0.83 0.82 0.85 0.91 0.97 1.06 1.16 1.18 1.02 0.80 0.70 0.58 0.46
0.71 0.76 0.86 0.93 0.89 0.81 0.79 0.73 0.66 0.66 0.62 0.59 0.52 0.44 0.36 0.33 0.32 0.33 0.38 0.44 0.48 0.48 0.46 0.48 0.50 0.48 0.48 0.53 0.63 0.90 0.98 0.88 0.79 0.77 0.82 0.86 0.91 0.98 1.05 1.10 1.00 0.80 0.57 0.38
0.69 0.70 0.71 0.66 0.68 0.71 0.74 0.74 0.66 0.61 0.55 0.54 0.53 0.45 0.39 0.37 0.36 0.38 0.43 0.50 0.56 0.54 0.50 0.48 0.48 0.46 0.48 0.51 0.57 0.69 0.88 0.91 0.84 0.79 0.82 0.86 0.89 0.92 0.98 1.01 1.07 1.03 0.80 0.53
0.69 0.70 0.67 0.65 0.66 0.63 0.62 0.66 0.68 0.58 0.49 0.51 0.52 0.43 0.40 0.39 0.39 0.40 0.45 0.58 0.76 0.77 0.67 0.60 0.56 0.49 0.48 0.51 0.54 0.60 0.70 0.66 0.63 0.69 0.73 0.80 0.85 0.88 0.91 0.98 1.03 1.05 0.94 0.71
0.69 0.70 0.68 0.67 0.66 0.58 0.52 0.55 0.56 0.52 0.43 0.42 0.50 0.51 0.47 0.48 0.52 0.55 0.59 0.66 0.76 0.78 0.73 0.70 0.61 0.49 0.45 0.47 0.50 0.51 0.56 0.50 0.40 0.50 0.63 0.70 0.76 0.80 0.82 0.88 0.95 0.98 0.90 0.61
0.63 0.60 0.55 0.52 0.54 0.56 0.53 0.48 0.44 0.41 0.39 0.39 0.48 0.56 0.56 0.63 0.75 0.82 0.83 0.84 0.81 0.69 0.62 0.62 0.52 0.42 0.38 0.37 0.40 0.44 0.54 0.53 0.40 0.43 0.57 0.63 0.66 0.79 0.83 0.85 0.88 0.90 0.81 0.57
0.57 0.53 0.44 0.38 0.35 0.39 0.43 0.43 0.39 0.35 0.35 0.38 0.50 0.59 0.61 0.66 0.76 0.84 0.84 0.92 0.98 0.88 0.70 0.56 0.45 0.37 0.35 0.30 0.28 0.35 0.46 0.51 0.42 0.40 0.51 0.50 0.58 0.77 0.82 0.82 0.84 0.84 0.71 0.60
0.47 0.43 0.36 0.32 0.29 0.30 0.32 0.34 0.33 0.33 0.34 0.39 0.50 0.55 0.60 0.66 0.71 0.77 0.76 0.81 0.92 0.93 0.78 0.58 0.39 0.31 0.26 0.22 0.23 0.30 0.40 0.48 0.41 0.34 0.38 0.48 0.59 0.71 0.77 0.76 0.78 0.81 0.72 0.62
0.37 0.31 0.26 0.25 0.27 0.28 0.26 0.26 0.28 0.34 0.36 0.40 0.49 0.56 0.61 0.60 0.60 0.67 0.79 0.85 0.77 0.79 0.76 0.65 0.45 0.30 0.21 0.20 0.22 0.31 0.41 0.47 0.39 0.30 0.32 0.41 0.56 0.68 0.75 0.76 0.77 0.76 0.69 0.62
0.29 0.26 0.23 0.22 0.24 0.27 0.25 0.24 0.26 0.28 0.33 0.42 0.48 0.52 0.59 0.56 0.55 0.55 0.58 0.70 0.73 0.79 0.74 0.67 0.55 0.39 0.26 0.20 0.21 0.27 0.37 0.43 0.39 0.30 0.28 0.36 0.51 0.61 0.68 0.72 0.75 0.73 0.69 0.67
0.28 0.24 0.21 0.20 0.20 0.20 0.19 0.20 0.19 0.22 0.34 0.48 0.53 0.56 0.60 0.55 0.57 0.67 0.63 0.52 0.56 0.69 0.62 0.55 0.53 0.43 0.30 0.23 0.22 0.27 0.38 0.46 0.45 0.34 0.30 0.36 0.44 0.49 0.56 0.61 0.63 0.68 0.72 0.68
0.32 0.25 0.22 0.20 0.17 0.16 0.19 0.18 0.16 0.19 0.32 0.43 0.42 0.46 0.50 0.50 0.51 0.52 0.52 0.51 0.54 0.60 0.52 0.48 0.45 0.42 0.38 0.34 0.34 0.36 0.41 0.45 0.43 0.33 0.30 0.34 0.37 0.40 0.48 0.57 0.65 0.71 0.68 0.61
0.28 0.23 0.20 0.19 0.18 0.18 0.18 0.16 0.15 0.17 0.29 0.42 0.37 0.36 0.37 0.40 0.50 0.52 0.48 0.46 0.51 0.53 0.49 0.48 0.43 0.40 0.38 0.46 0.52 0.50 0.45 0.43 0.39 0.33 0.30 0.31 0.35 0.39 0.46 0.59 0.69 0.70 0.63 0.60
0.27 0.25 0.22 0.20 0.18 0.16 0.15 0.15 0.16 0.18 0.33 0.56 0.52 0.42 0.38 0.36 0.39 0.46 0.53 0.52 0.51 0.54 0.51 0.47 0.41 0.41 0.42 0.51 0.57 0.53 0.45 0.41 0.39 0.37 0.35 0.36 0.41 0.47 0.55 0.64 0.65 0.57 0.51 0.48
0.22 0.20 0.19 0.18 0.16 0.15 0.15 0.18 0.21 0.24 0.37 0.62 0.66 0.48 0.40 0.39 0.43 0.49 0.56 0.59 0.55 0.53 0.50 0.44 0.39 0.37 0.38 0.43 0.44 0.44 0.42 0.41 0.42 0.41 0.39 0.40 0.41 0.46 0.49 0.53 0.53 0.46 0.42 0.39

GEFSNGP_prec_meanprecacc_144.txt.gz
Total_Precipitation_Accumulation
0.05 0.10 0.16 0.18 0.15 0.13 0.10 0.10 0.12 0.14 0.22 0.28 0.34 0.28 0.19 0.22 0.28 0.20 0.17 0.17 0.16 0.17 0.15 0.13 0.14 0.17 0.18 0.21 0.24 0.28 0.32 0.37 0.40 0.46 0.53 0.59 0.65 0.69 0.74 0.76 0.74 0.79 0.85 0.84
0.06 0.10 0.12 0.13 0.16 0.12 0.08 0.07 0.08 0.10 0.19 0.28 0.30 0.35 0.30 0.23 0.23 0.23 0.22 0.21 0.23 0.26 0.22 0.20 0.19 0.19 0.18 0.23 0.31 0.39 0.47 0.49 0.48 0.52 0.57 0.58 0.62 0.66 0.75 0.80 0.85 0.92 0.95 0.93
0.15 0.15 0.15 0.16 0.15 0.11 0.09 0.10 0.11 0.12 0.18 0.25 0.33 0.37 0.38 0.36 0.29 0.29 0.34 0.34 0.41 0.47 0.38 0.29 0.25 0.25 0.26 0.31 0.38 0.46 0.54 0.65 0.68 0.69 0.72 0.72 0.73 0.76 0.82 0.95 1.01 1.01 0.99 0.97
0.21 0.24 0.27 0.18 0.14 0.12 0.11 0.13 0.14 0.18 0.25 0.30 0.39 0.45 0.50 0.56 0.52 0.44 0.40 0.39 0.42 0.44 0.47 0.45 0.42 0.40 0.42 0.46 0.51 0.63 0.75 0.85 0.92 0.97 1.03 1.07 1.11 1.06 1.07 1.14 1.21 1.19 1.13 1.12
0.32 0.37 0.31 0.24 0.21 0.20 0.21 0.24 0.26 0.34 0.48 0.53 0.56 0.64 0.67 0.58 0.48 0.42 0.41 0.40 0.48 0.50 0.50 0.51 0.59 0.60 0.57 0.58 0.64 0.80 0.95 1.06 1.12 1.17 1.25 1.30 1.26 1.30 1.38 1.46 1.48 1.49 1.43 1.43
0.39 0.44 0.45 0.40 0.35 0.34 0.41 0.62 0.54 0.59 0.62 0.57 0.57 0.75 0.69 0.50 0.44 0.40 0.39 0.42 0.50 0.57 0.57 0.61 0.73 0.73 0.72 0.77 0.84 0.89 0.93 1.02 1.20 1.38 1.49 1.47 1.46 1.56 1.70 1.81 1.78 1.77 1.78 1.77
0.46 0.48 0.44 0.43 0.41 0.46 0.77 0.97 0.79 0.74 0.71 0.65 0.72 0.75 0.70 0.55 0.42 0.35 0.34 0.40 0.45 0.51 0.55 0.56 0.64 0.74 0.89 1.01 1.04 1.05 1.11 1.19 1.30 1.47 1.61 1.64 1.69 1.73 1.82 1.92 1.92 1.89 1.81 1.75
0.68 0.77 0.74 0.50 0.54 0.78 0.95 0.76 0.71 0.79 0.87 0.86 0.82 0.69 0.55 0.46 0.40 0.32 0.31 0.33 0.38 0.46 0.52 0.56 0.66 0.80 0.96 1.12 1.21 1.28 1.37 1.50 1.55 1.62 1.61 1.58 1.71 1.81 1.87 1.95 1.91 1.88 1.89 1.78
0.87 0.92 0.82 0.66 0.71 0.68 0.66 0.71 0.74 0.77 0.90 0.90 0.80 0.76 0.59 0.49 0.42 0.34 0.32 0.31 0.36 0.41 0.48 0.56 0.67 0.83 1.05 1.13 1.22 1.29 1.39 1.47 1.59 1.64 1.67 1.66 1.71 1.77 1.88 1.93 1.90 1.83 1.84 1.85
0.93 0.93 0.85 0.78 0.76 0.67 0.61 0.63 0.66 0.69 0.73 0.75 0.71 0.73 0.68 0.57 0.45 0.39 0.34 0.31 0.34 0.40 0.47 0.55 0.57 0.65 0.78 0.87 0.96 1.05 1.12 1.19 1.25 1.35 1.45 1.59 1.74 1.74 1.74 1.80 1.87 1.90 1.87 1.81
0.99 1.08 1.11 1.01 0.88 0.80 0.73 0.73 0.77 0.77 0.74 0.72 0.62 0.60 0.61 0.55 0.44 0.39 0.34 0.31 0.35 0.41 0.44 0.48 0.53 0.54 0.59 0.68 0.85 0.95 0.97 1.01 1.10 1.21 1.32 1.47 1.62 1.69 1.63 1.63 1.72 1.70 1.61 1.52
0.92 0.97 1.12 1.17 1.02 0.89 0.81 0.85 0.86 0.84 0.76 0.69 0.59 0.51 0.42 0.38 0.32 0.31 0.29 0.32 0.37 0.42 0.43 0.44 0.49 0.52 0.54 0.64 0.80 0.91 0.94 0.93 0.96 1.02 1.13 1.26 1.38 1.44 1.34 1.17 1.16 1.12 1.01 0.90
0.72 0.80 0.88 0.98 0.97 0.90 0.86 0.87 0.81 0.73 0.65 0.61 0.51 0.44 0.35 0.31 0.29 0.29 0.32 0.37 0.43 0.46 0.48 0.48 0.48 0.50 0.54 0.62 0.77 0.95 0.94 0.88 0.88 0.90 0.99 1.05 1.12 1.22 1.24 1.09 0.88 0.79 0.67 0.56
0.74 0.81 0.91 0.96 0.91 0.82 0.82 0.75 0.67 0.67 0.63 0.59 0.53 0.46 0.37 0.34 0.32 0.34 0.40 0.46 0.50 0.50 0.48 0.50 0.52 0.50 0.52 0.59 0.72 0.99 1.06 0.96 0.87 0.84 0.88 0.91 0.96 1.03 1.11 1.17 1.08 0.88 0.65 0.46
0.73 0.76 0.76 0.68 0.71 0.73 0.76 0.77 0.69 0.63 0.56 0.55 0.54 0.46 0.40 0.38 0.37 0.39 0.43 0.51 0.57 0.56 0.52 0.49 0.50 0.48 0.50 0.56 0.65 0.81 1.01 1.02 0.92 0.86 0.87 0.90 0.92 0.96 1.03 1.07 1.14 1.10 0.87 0.59
0.74 0.75 0.72 0.66 0.69 0.65 0.64 0.68 0.71 0.60 0.50 0.52 0.53 0.44 0.41 0.41 0.40 0.41 0.46 0.59 0.77 0.80 0.69 0.62 0.57 0.52 0.51 0.56 0.60 0.66 0.77 0.73 0.68 0.73 0.76 0.83 0.89 0.92 0.96 1.03 1.08 1.10 0.99 0.74
0.78 0.76 0.73 0.71 0.68 0.60 0.54 0.58 0.59 0.53 0.44 0.44 0.52 0.52 0.48 0.51 0.54 0.57 0.63 0.69 0.78 0.80 0.74 0.72 0.63 0.52 0.48 0.52 0.58 0.58 0.63 0.57 0.46 0.55 0.67 0.72 0.78 0.83 0.84 0.89 0.96 0.99 0.91 0.62
0.70 0.67 0.59 0.56 0.57 0.59 0.55 0.52 0.48 0.44 0.41 0.41 0.50 0.58 0.58 0.65 0.78 0.86 0.88 0.88 0.83 0.71 0.64 0.64 0.54 0.46 0.42 0.42 0.47 0.51 0.61 0.60 0.45 0.47 0.60 0.65 0.68 0.80 0.83 0.85 0.88 0.90 0.81 0.57
0.61 0.59 0.50 0.42 0.39 0.43 0.46 0.46 0.44 0.41 0.39 0.41 0.53 0.63 0.65 0.69 0.78 0.88 0.89 0.96 1.01 0.91 0.72 0.58 0.47 0.39 0.37 0.32 0.30 0.37 0.50 0.58 0.49 0.45 0.54 0.53 0.60 0.79 0.83 0.82 0.85 0.85 0.71 0.60
0.50 0.50 0.43 0.35 0.31 0.34 0.37 0.38 0.37 0.38 0.41 0.45 0.55 0.60 0.65 0.70 0.75 0.81 0.81 0.85 0.96 0.95 0.78 0.58 0.40 0.32 0.27 0.24 0.25 0.32 0.42 0.51 0.44 0.37 0.43 0.51 0.62 0.73 0.79 0.77 0.79 0.82 0.72 0.63
0.40 0.36 0.31 0.27 0.30 0.33 0.32 0.30 0.31 0.38 0.43 0.47 0.54 0.60 0.66 0.65 0.65 0.72 0.84 0.89 0.82 0.81 0.76 0.66 0.46 0.31 0.22 0.22 0.24 0.32 0.42 0.48 0.40 0.31 0.33 0.43 0.57 0.69 0.76 0.77 0.78 0.77 0.69 0.63
0.32 0.29 0.28 0.27 0.30 0.35 0.32 0.28 0.28 0.31 0.37 0.45 0.51 0.55 0.62 0.60 0.59 0.58 0.60 0.73 0.76 0.82 0.75 0.68 0.55 0.39 0.26 0.20 0.21 0.28 0.37 0.44 0.40 0.31 0.29 0.37 0.51 0.62 0.69 0.73 0.75 0.73 0.69 0.67
0.32 0.27 0.26 0.27 0.27 0.28 0.27 0.24 0.23 0.25 0.37 0.51 0.55 0.59 0.63 0.57 0.59 0.69 0.65 0.54 0.57 0.69 0.62 0.55 0.54 0.43 0.30 0.23 0.22 0.27 0.39 0.46 0.46 0.35 0.30 0.36 0.44 0.49 0.57 0.61 0.64 0.68 0.72 0.68
0.38 0.30 0.27 0.27 0.24 0.23 0.25 0.23 0.19 0.23 0.36 0.47 0.46 0.49 0.53 0.53 0.53 0.53 0.53 0.51 0.54 0.60 0.52 0.48 0.46 0.42 0.38 0.34 0.34 0.37 0.42 0.46 0.43 0.33 0.30 0.34 0.37 0.40 0.49 0.58 0.65 0.71 0.68 0.61
0.33 0.28 0.26 0.26 0.25 0.24 0.23 0.21 0.19 0.21 0.33 0.46 0.40 0.39 0.39 0.42 0.51 0.52 0.49 0.46 0.51 0.53 0.49 0.48 0.43 0.40 0.38 0.46 0.52 0.50 0.46 0.43 0.39 0.33 0.30 0.32 0.35 0.39 0.47 0.60 0.69 0.70 0.63 0.60
0.32 0.30 0.28 0.25 0.22 0.20 0.18 0.19 0.19 0.21 0.36 0.59 0.54 0.44 0.40 0.37 0.40 0.46 0.53 0.52 0.51 0.54 0.51 0.47 0.41 0.41 0.42 0.51 0.57 0.53 0.45 0.41 0.40 0.37 0.35 0.36 0.41 0.47 0.55 0.64 0.65 0.57 0.51 0.48
0.28 0.26 0.24 0.22 0.20 0.18 0.18 0.21 0.24 0.27 0.39 0.64 0.67 0.49 0.41 0.40 0.43 0.49 0.56 0.59 0.55 0.53 0.50 0.44 0.39 0.37 0.38 0.43 0.45 0.44 0.42 0.41 0.42 0.41 0.39 0.40 0.41 0.46 0.49 0.54 0.53 0.46 0.42 0.39

GEFSNGP_prec_meanprecacc_150.txt.gz
Total_Precipitation_Accumulation
0.05 0.10 0.16 0.19 0.15 0.13 0.10 0.10 0.12 0.14 0.23 0.29 0.40 0.39 0.31 0.31 0.34 0.27 0.27 0.24 0.22 0.25 0.18 0.15 0.16 0.18 0.20 0.22 0.26 0.29 0.34 0.41 0.46 0.54 0.61 0.66 0.74 0.78 0.85 0.88 0.84 0.89 0.95 0.93
0.06 0.10 0.12 0.13 0.16 0.12 0.08 0.07 0.08 0.11 0.20 0.30 0.34 0.40 0.37 0.31 0.28 0.30 0.35 0.27 0.27 0.29 0.25 0.22 0.20 0.19 0.19 0.24 0.33 0.40 0.48 0.52 0.52 0.58 0.65 0.65 0.70 0.73 0.84 0.90 0.94 1.02 1.06 1.05
0.15 0.15 0.15 0.16 0.15 0.11 0.09 0.10 0.11 0.12 0.18 0.27 0.37 0.42 0.44 0.43 0.35 0.34 0.42 0.41 0.49 0.53 0.42 0.31 0.27 0.26 0.27 0.32 0.40 0.48 0.56 0.68 0.72 0.73 0.77 0.79 0.83 0.85 0.90 1.03 1.10 1.09 1.07 1.08
0.21 0.24 0.28 0.18 0.14 0.13 0.11 0.13 0.14 0.18 0.25 0.31 0.43 0.49 0.53 0.61 0.57 0.50 0.45 0.47 0.53 0.56 0.55 0.50 0.45 0.42 0.44 0.47 0.53 0.66 0.78 0.89 0.97 1.01 1.08 1.13 1.18 1.13 1.15 1.22 1.29 1.28 1.22 1.23
0.32 0.38 0.32 0.24 0.21 0.20 0.21 0.25 0.27 0.36 0.49 0.55 0.58 0.67 0.77 0.69 0.59 0.56 0.54 0.50 0.59 0.58 0.57 0.57 0.64 0.63 0.60 0.61 0.67 0.83 0.99 1.11 1.17 1.22 1.30 1.35 1.32 1.37 1.46 1.55 1.58 1.59 1.54 1.55
0.39 0.44 0.45 0.40 0.36 0.35 0.42 0.68 0.58 0.62 0.65 0.60 0.60 0.79 0.78 0.59 0.53 0.53 0.53 0.56 0.62 0.67 0.65 0.69 0.82 0.81 0.79 0.82 0.90 0.94 0.99 1.09 1.26 1.43 1.54 1.52 1.53 1.64 1.81 1.95 1.90 1.89 1.91 1.91
0.46 0.48 0.44 0.44 0.42 0.48 0.81 1.05 0.89 0.83 0.78 0.72 0.78 0.81 0.79 0.64 0.51 0.49 0.47 0.51 0.58 0.63 0.67 0.67 0.77 0.86 0.98 1.08 1.11 1.13 1.18 1.26 1.37 1.53 1.68 1.70 1.77 1.82 1.94 2.05 2.04 2.00 1.92 1.85
0.69 0.77 0.75 0.51 0.55 0.81 1.00 0.85 0.88 0.99 1.02 0.99 0.92 0.78 0.67 0.57 0.50 0.43 0.41 0.41 0.48 0.59 0.64 0.67 0.79 0.99 1.13 1.22 1.29 1.35 1.44 1.59 1.64 1.70 1.68 1.64 1.77 1.87 1.95 2.04 2.01 1.96 1.97 1.85
0.88 0.94 0.84 0.67 0.73 0.71 0.70 0.79 0.86 0.91 1.03 1.03 0.92 0.92 0.78 0.67 0.61 0.51 0.43 0.41 0.46 0.55 0.63 0.68 0.76 0.92 1.18 1.25 1.30 1.36 1.46 1.55 1.65 1.68 1.71 1.71 1.76 1.84 1.96 2.00 1.98 1.91 1.92 1.92
0.98 0.98 0.88 0.82 0.80 0.74 0.68 0.71 0.77 0.85 0.89 0.89 0.85 0.92 0.87 0.72 0.58 0.51 0.46 0.42 0.44 0.51 0.60 0.64 0.63 0.71 0.85 0.95 1.02 1.09 1.17 1.24 1.28 1.38 1.48 1.64 1.81 1.81 1.83 1.90 1.97 2.00 1.98 1.92
1.09 1.16 1.18 1.07 0.97 0.92 0.83 0.82 0.88 0.89 0.87 0.86 0.74 0.74 0.76 0.65 0.51 0.45 0.40 0.37 0.40 0.48 0.49 0.51 0.57 0.59 0.64 0.72 0.90 0.99 1.00 1.04 1.12 1.24 1.36 1.51 1.68 1.75 1.69 1.72 1.85 1.85 1.76 1.67
1.05 1.07 1.23 1.27 1.10 0.99 0.89 0.92 0.95 0.92 0.85 0.79 0.68 0.60 0.52 0.44 0.36 0.35 0.33 0.35 0.40 0.45 0.45 0.45 0.51 0.55 0.57 0.67 0.85 0.98 0.99 0.97 1.01 1.05 1.17 1.30 1.43 1.49 1.41 1.25 1.26 1.22 1.11 0.99
0.84 0.92 1.01 1.13 1.08 1.01 1.02 0.98 0.90 0.83 0.73 0.69 0.60 0.50 0.41 0.36 0.32 0.31 0.35 0.39 0.45 0.48 0.50 0.50 0.50 0.52 0.57 0.67 0.83 1.00 0.99 0.93 0.93 0.95 1.03 1.09 1.16 1.26 1.29 1.14 0.94 0.85 0.73 0.61
0.86 0.95 1.08 1.19 1.09 0.95 0.98 0.89 0.78 0.79 0.73 0.65 0.57 0.50 0.41 0.38 0.35 0.36 0.41 0.47 0.51 0.51 0.49 0.51 0.53 0.51 0.54 0.63 0.78 1.06 1.14 1.06 0.97 0.94 0.97 0.99 1.04 1.10 1.16 1.20 1.10 0.90 0.68 0.48
0.85 0.89 0.93 0.94 0.91 0.86 0.87 0.89 0.79 0.71 0.62 0.60 0.58 0.49 0.43 0.40 0.39 0.40 0.45 0.52 0.58 0.56 0.52 0.50 0.50 0.49 0.51 0.57 0.67 0.83 1.04 1.06 0.98 0.93 0.94 0.98 1.00 1.03 1.09 1.12 1.17 1.12 0.89 0.61
0.85 0.86 0.85 0.82 0.81 0.74 0.71 0.81 0.82 0.67 0.55 0.56 0.57 0.48 0.44 0.43 0.41 0.42 0.47 0.60 0.78 0.81 0.69 0.63 0.58 0.53 0.52 0.58 0.62 0.68 0.78 0.76 0.71 0.75 0.79 0.86 0.92 0.95 0.99 1.06 1.11 1.12 1.00 0.75
0.88 0.85 0.84 0.83 0.79 0.70 0.65 0.70 0.69 0.60 0.49 0.47 0.55 0.54 0.51 0.53 0.56 0.58 0.64 0.70 0.79 0.81 0.75 0.73 0.64 0.53 0.49 0.53 0.59 0.60 0.64 0.59 0.48 0.57 0.70 0.76 0.81 0.86 0.87 0.92 0.99 1.01 0.92 0.63
0.78 0.76 0.69 0.67 0.69 0.69 0.66 0.63 0.60 0.53 0.46 0.45 0.54 0.62 0.61 0.68 0.79 0.87 0.89 0.89 0.84 0.71 0.65 0.65 0.56 0.47 0.44 0.43 0.49 0.53 0.64 0.63 0.48 0.50 0.63 0.69 0.71 0.83 0.86 0.87 0.90 0.92 0.83 0.58
0.68 0.69 0.59 0.52 0.51 0.54 0.56 0.56 0.53 0.50 0.45 0.45 0.56 0.66 0.67 0.71 0.80 0.89 0.90 0.97 1.02 0.92 0.73 0.59 0.48 0.40 0.38 0.33 0.31 0.40 0.54 0.62 0.52 0.48 0.57 0.55 0.63 0.81 0.85 0.84 0.86 0.86 0.72 0.61
0.58 0.60 0.55 0.48 0.44 0.45 0.46 0.45 0.44 0.45 0.46 0.48 0.58 0.63 0.67 0.73 0.78 0.83 0.83 0.88 0.98 0.97 0.80 0.60 0.41 0.33 0.28 0.25 0.26 0.33 0.44 0.53 0.47 0.41 0.46 0.54 0.65 0.77 0.83 0.81 0.83 0.85 0.74 0.64
0.50 0.48 0.44 0.40 0.43 0.46 0.43 0.38 0.38 0.43 0.46 0.50 0.58 0.63 0.68 0.68 0.68 0.75 0.87 0.93 0.84 0.83 0.78 0.67 0.47 0.31 0.23 0.22 0.24 0.33 0.43 0.49 0.42 0.33 0.35 0.44 0.59 0.71 0.78 0.79 0.79 0.78 0.70 0.63
0.41 0.38 0.34 0.33 0.38 0.44 0.42 0.37 0.34 0.35 0.39 0.48 0.54 0.58 0.65 0.62 0.61 0.61 0.64 0.77 0.78 0.84 0.76 0.68 0.56 0.39 0.26 0.20 0.21 0.28 0.38 0.44 0.41 0.32 0.30 0.38 0.52 0.63 0.70 0.74 0.76 0.74 0.70 0.68
0.40 0.33 0.31 0.31 0.31 0.33 0.33 0.30 0.28 0.28 0.40 0.53 0.58 0.61 0.65 0.59 0.60 0.70 0.66 0.55 0.58 0.70 0.63 0.56 0.54 0.43 0.30 0.23 0.22 0.28 0.39 0.47 0.46 0.35 0.31 0.37 0.44 0.49 0.57 0.61 0.64 0.68 0.72 0.68
0.42 0.34 0.32 0.31 0.28 0.27 0.30 0.27 0.23 0.26 0.38 0.49 0.47 0.51 0.54 0.54 0.54 0.54 0.53 0.52 0.55 0.60 0.53 0.48 0.46 0.42 0.38 0.34 0.34 0.37 0.42 0.46 0.43 0.33 0.30 0.34 0.38 0.41 0.49 0.58 0.65 0.71 0.68 0.61
0.38 0.33 0.31 0.29 0.28 0.27 0.26 0.24 0.22 0.24 0.36 0.48 0.42 0.41 0.41 0.43 0.53 0.54 0.50 0.47 0.51 0.53 0.49 0.48 0.43 0.40 0.38 0.46 0.52 0.50 0.46 0.43 0.39 0.33 0.31 0.32 0.35 0.39 0.47 0.60 0.69 0.70 0.63 0.60
0.37 0.35 0.32 0.29 0.26 0.23 0.21 0.21 0.23 0.24 0.38 0.61 0.56 0.46 0.42 0.38 0.41 0.47 0.54 0.53 0.51 0.54 0.51 0.47 0.41 0.41 0.42 0.51 0.57 0.53 0.45 0.41 0.40 0.37 0.35 0.36 0.41 0.47 0.55 0.64 0.65 0.57 0.51 0.48
0.33 0.30 0.28 0.26 0.24 0.22 0.21 0.24 0.27 0.30 0.42 0.66 0.69 0.51 0.43 0.41 0.44 0.50 0.56 0.59 0.55 0.53 0.50 0.44 0.39 0.37 0.38 0.43 0.45 0.44 0.42 0.41 0.42 0.41 0.39 0.40 0.41 0.46 0.49 0.54 0.53 0.46 0.42 0.39

GEFSNGP_prec_meanprecacc_156.txt.gz
Total_Precipitation_Accumulation
0.05 0.10 0.16 0.19 0.15 0.13 0.10 0.10 0.12 0.14 0.23 0.29 0.40 0.39 0.31 0.31 0.34 0.28 0.29 0.26 0.24 0.27 0.20 0.18 0.18 0.20 0.21 0.23 0.27 0.29 0.34 0.42 0.47 0.56 0.63 0.69 0.76 0.80 0.87 0.91 0.87 0.93 1.01 1.00
0.06 0.10 0.12 0.13 0.16 0.12 0.08 0.07 0.08 0.11 0.20 0.30 0.35 0.40 0.38 0.31 0.29 0.34 0.38 0.31 0.31 0.33 0.29 0.25 0.23 0.22 0.21 0.25 0.34 0.41 0.49 0.52 0.53 0.59 0.67 0.67 0.72 0.76 0.87 0.92 0.97 1.06 1.13 1.14
0.15 0.15 0.15 0.16 0.15 0.11 0.09 0.10 0.11 0.12 0.18 0.27 0.37 0.42 0.45 0.44 0.37 0.38 0.49 0.47 0.54 0.60 0.48 0.36 0.31 0.30 0.29 0.34 0.41 0.48 0.57 0.69 0.72 0.74 0.78 0.81 0.85 0.88 0.93 1.07 1.14 1.14 1.13 1.15
0.21 0.24 0.28 0.18 0.14 0.13 0.11 0.13 0.14 0.18 0.25 0.31 0.43 0.49 0.54 0.61 0.59 0.52 0.48 0.50 0.58 0.62 0.62 0.56 0.51 0.47 0.48 0.52 0.57 0.67 0.79 0.89 0.98 1.03 1.09 1.15 1.21 1.17 1.20 1.27 1.34 1.32 1.27 1.28
0.32 0.38 0.32 0.24 0.21 0.20 0.21 0.25 0.27 0.36 0.49 0.55 0.58 0.68 0.78 0.71 0.61 0.58 0.57 0.56 0.66 0.65 0.63 0.62 0.71 0.71 0.67 0.69 0.73 0.87 1.02 1.13 1.19 1.25 1.34 1.39 1.37 1.43 1.53 1.63 1.65 1.65 1.60 1.62
0.39 0.44 0.45 0.40 0.36 0.35 0.42 0.68 0.58 0.63 0.65 0.60 0.61 0.81 0.79 0.61 0.55 0.55 0.56 0.62 0.69 0.73 0.71 0.75 0.89 0.89 0.88 0.92 0.98 1.01 1.03 1.13 1.30 1.48 1.58 1.57 1.58 1.70 1.88 2.03 2.00 1.98 1.99 1.99
0.46 0.48 0.44 0.44 0.42 0.49 0.81 1.05 0.89 0.83 0.78 0.73 0.80 0.83 0.80 0.66 0.54 0.52 0.52 0.57 0.64 0.69 0.74 0.76 0.87 0.96 1.07 1.19 1.21 1.21 1.25 1.32 1.42 1.58 1.73 1.75 1.81 1.86 1.98 2.10 2.11 2.07 1.99 1.92
0.69 0.77 0.75 0.51 0.55 0.81 1.00 0.85 0.89 1.00 1.03 1.01 0.94 0.82 0.71 0.62 0.56 0.49 0.46 0.46 0.53 0.65 0.73 0.77 0.89 1.09 1.21 1.32 1.39 1.45 1.52 1.66 1.68 1.74 1.74 1.70 1.81 1.91 2.00 2.10 2.07 2.02 2.04 1.92
0.88 0.95 0.84 0.67 0.73 0.72 0.70 0.80 0.87 0.93 1.06 1.06 0.97 0.98 0.84 0.74 0.69 0.58 0.51 0.49 0.53 0.61 0.71 0.77 0.85 1.00 1.25 1.31 1.35 1.42 1.52 1.61 1.70 1.73 1.76 1.76 1.82 1.90 2.03 2.07 2.04 1.96 1.98 1.99
0.99 0.99 0.89 0.82 0.81 0.75 0.68 0.72 0.77 0.86 0.92 0.94 0.91 0.99 0.94 0.78 0.64 0.57 0.52 0.47 0.50 0.59 0.69 0.74 0.70 0.76 0.89 0.99 1.06 1.13 1.22 1.30 1.35 1.44 1.53 1.68 1.85 1.87 1.92 1.99 2.05 2.06 2.02 1.97
1.11 1.19 1.20 1.10 1.00 0.94 0.84 0.83 0.88 0.91 0.91 0.91 0.78 0.79 0.81 0.70 0.57 0.49 0.44 0.39 0.43 0.54 0.57 0.59 0.64 0.63 0.66 0.73 0.91 1.03 1.05 1.09 1.17 1.29 1.40 1.55 1.72 1.80 1.74 1.77 1.90 1.89 1.81 1.73
1.08 1.11 1.27 1.30 1.14 1.02 0.92 0.94 0.97 0.95 0.88 0.81 0.70 0.63 0.55 0.47 0.40 0.39 0.36 0.38 0.42 0.48 0.49 0.49 0.55 0.57 0.58 0.68 0.86 1.00 1.03 1.02 1.05 1.08 1.20 1.34 1.47 1.54 1.46 1.30 1.31 1.26 1.16 1.06
0.88 0.96 1.05 1.17 1.12 1.06 1.06 1.03 0.95 0.88 0.78 0.72 0.62 0.52 0.43 0.39 0.35 0.34 0.38 0.43 0.48 0.51 0.52 0.52 0.53 0.54 0.58 0.68 0.84 1.02 1.01 0.95 0.96 0.98 1.05 1.11 1.19 1.29 1.32 1.18 0.98 0.88 0.77 0.65
0.89 0.99 1.13 1.24 1.14 1.02 1.05 0.95 0.84 0.85 0.80 0.71 0.62 0.53 0.44 0.41 0.39 0.40 0.45 0.51 0.54 0.53 0.51 0.53 0.54 0.52 0.54 0.64 0.79 1.07 1.16 1.08 0.99 0.96 0.99 1.01 1.05 1.12 1.20 1.24 1.13 0.93 0.70 0.51
0.88 0.93 0.99 1.00 0.98 0.94 0.95 0.95 0.85 0.76 0.68 0.66 0.63 0.53 0.47 0.44 0.42 0.43 0.48 0.55 0.61 0.59 0.54 0.51 0.51 0.50 0.52 0.58 0.68 0.84 1.05 1.07 0.99 0.94 0.95 0.99 1.01 1.06 1.13 1.16 1.21 1.15 0.92 0.64
0.89 0.90 0.89 0.87 0.88 0.83 0.79 0.87 0.88 0.74 0.60 0.60 0.62 0.53 0.49 0.48 0.46 0.45 0.49 0.62 0.80 0.82 0.71 0.64 0.59 0.54 0.53 0.59 0.63 0.68 0.79 0.77 0.72 0.76 0.81 0.88 0.93 0.96 1.00 1.08 1.13 1.14 1.02 0.77
0.91 0.89 0.88 0.87 0.83 0.75 0.70 0.75 0.75 0.66 0.52 0.50 0.59 0.59 0.55 0.58 0.59 0.61 0.66 0.71 0.80 0.82 0.76 0.74 0.66 0.55 0.50 0.54 0.60 0.60 0.65 0.60 0.49 0.58 0.71 0.77 0.83 0.87 0.89 0.94 1.00 1.02 0.93 0.64
0.81 0.81 0.74 0.70 0.71 0.71 0.69 0.67 0.64 0.58 0.50 0.49 0.57 0.65 0.64 0.71 0.82 0.89 0.90 0.90 0.85 0.72 0.66 0.66 0.57 0.49 0.45 0.45 0.50 0.54 0.65 0.63 0.49 0.51 0.65 0.70 0.73 0.84 0.87 0.88 0.91 0.93 0.85 0.60
0.73 0.75 0.63 0.56 0.54 0.56 0.59 0.61 0.58 0.54 0.49 0.49 0.60 0.70 0.70 0.73 0.81 0.90 0.91 0.98 1.03 0.93 0.74 0.60 0.49 0.40 0.39 0.34 0.33 0.41 0.55 0.63 0.54 0.49 0.58 0.57 0.65 0.84 0.88 0.86 0.87 0.87 0.74 0.63
0.63 0.64 0.59 0.52 0.48 0.50 0.50 0.51 0.51 0.52 0.51 0.54 0.62 0.66 0.69 0.75 0.79 0.84 0.84 0.88 0.98 0.98 0.81 0.61 0.41 0.33 0.28 0.26 0.27 0.35 0.45 0.55 0.49 0.42 0.46 0.55 0.67 0.79 0.85 0.82 0.84 0.86 0.76 0.66
0.53 0.52 0.47 0.43 0.46 0.50 0.47 0.42 0.44 0.50 0.54 0.55 0.62 0.66 0.70 0.69 0.69 0.76 0.88 0.93 0.85 0.83 0.79 0.68 0.48 0.32 0.24 0.24 0.26 0.33 0.44 0.50 0.43 0.34 0.35 0.45 0.60 0.72 0.79 0.81 0.81 0.80 0.71 0.65
0.45 0.43 0.38 0.35 0.41 0.48 0.46 0.41 0.39 0.40 0.44 0.52 0.56 0.60 0.67 0.64 0.63 0.62 0.65 0.77 0.80 0.85 0.78 0.70 0.57 0.41 0.28 0.22 0.22 0.28 0.38 0.45 0.41 0.32 0.30 0.38 0.52 0.63 0.71 0.75 0.78 0.76 0.72 0.70
0.44 0.39 0.35 0.35 0.34 0.36 0.37 0.36 0.33 0.33 0.43 0.56 0.60 0.62 0.66 0.60 0.62 0.71 0.67 0.55 0.59 0.72 0.65 0.58 0.56 0.45 0.31 0.24 0.22 0.28 0.39 0.47 0.46 0.36 0.31 0.37 0.45 0.50 0.57 0.61 0.64 0.68 0.72 0.69
0.48 0.40 0.37 0.36 0.32 0.31 0.34 0.32 0.27 0.29 0.41 0.52 0.50 0.52 0.56 0.56 0.56 0.55 0.54 0.52 0.55 0.61 0.54 0.50 0.47 0.42 0.38 0.34 0.34 0.37 0.42 0.46 0.43 0.33 0.30 0.34 0.38 0.41 0.49 0.58 0.65 0.72 0.68 0.61
0.42 0.38 0.35 0.34 0.33 0.31 0.31 0.28 0.25 0.26 0.38 0.51 0.45 0.43 0.43 0.45 0.53 0.54 0.51 0.48 0.51 0.53 0.50 0.49 0.44 0.40 0.39 0.46 0.52 0.50 0.46 0.43 0.39 0.33 0.31 0.32 0.35 0.39 0.47 0.60 0.69 0.70 0.63 0.61
0.42 0.40 0.37 0.34 0.30 0.27 0.25 0.25 0.25 0.26 0.40 0.63 0.58 0.48 0.43 0.40 0.42 0.48 0.54 0.53 0.52 0.55 0.52 0.48 0.42 0.41 0.42 0.51 0.57 0.53 0.45 0.42 0.40 0.37 0.35 0.36 0.41 0.47 0.55 0.64 0.65 0.57 0.51 0.48
0.39 0.36 0.32 0.31 0.29 0.26 0.25 0.27 0.29 0.32 0.44 0.67 0.70 0.52 0.44 0.43 0.45 0.50 0.57 0.59 0.55 0.53 0.50 0.44 0.39 0.37 0.38 0.43 0.45 0.44 0.42 0.42 0.43 0.42 0.39 0.40 0.41 0.46 0.49 0.54 0.53 0.46 0.42 0.40

GEFSNGP_prec_meanprecacc_162.txt.gz
Total_Precipitation_Accumulation
0.05 0.10 0.16 0.19 0.15 0.13 0.10 0.10 0.12 0.14 0.23 0.29 0.40 0.39 0.31 0.31 0.34 0.28 0.30 0.27 0.24 0.27 0.20 0.18 0.18 0.21 0.22 0.25 0.28 0.31 0.36 0.43 0.49 0.58 0.64 0.70 0.78 0.84 0.90 0.93 0.90 0.97 1.06 1.05
0.06 0.10 0.12 0.13 0.16 0.12 0.08 0.07 0.08 0.11 0.20 0.30 0.35 0.40 0.38 0.31 0.29 0.34 0.39 0.31 0.31 0.34 0.29 0.25 0.23 0.23 0.22 0.27 0.35 0.42 0.50 0.54 0.54 0.61 0.68 0.69 0.74 0.78 0.89 0.94 0.99 1.08 1.15 1.17
0.15 0.15 0.15 0.16 0.15 0.11 0.09 0.10 0.11 0.12 0.18 0.27 0.37 0.42 0.45 0.44 0.37 0.38 0.49 0.47 0.55 0.60 0.49 0.37 0.32 0.31 0.31 0.36 0.43 0.50 0.58 0.70 0.73 0.76 0.81 0.83 0.87 0.89 0.95 1.09 1.16 1.16 1.16 1.18
0.21 0.24 0.28 0.18 0.14 0.13 0.11 0.13 0.14 0.18 0.25 0.31 0.43 0.49 0.54 0.62 0.59 0.52 0.48 0.51 0.58 0.62 0.62 0.56 0.51 0.48 0.49 0.53 0.59 0.70 0.81 0.91 0.99 1.03 1.11 1.18 1.23 1.20 1.23 1.30 1.37 1.36 1.30 1.31
0.32 0.38 0.32 0.24 0.21 0.20 0.21 0.25 0.27 0.36 0.49 0.55 0.58 0.68 0.78 0.71 0.62 0.58 0.58 0.57 0.68 0.65 0.63 0.63 0.72 0.72 0.70 0.72 0.77 0.92 1.06 1.16 1.21 1.26 1.34 1.40 1.39 1.46 1.56 1.67 1.70 1.69 1.65 1.68
0.39 0.44 0.45 0.40 0.36 0.35 0.42 0.68 0.58 0.63 0.65 0.60 0.61 0.81 0.79 0.61 0.55 0.56 0.56 0.64 0.71 0.75 0.72 0.77 0.91 0.92 0.92 0.99 1.07 1.09 1.11 1.19 1.34 1.50 1.60 1.59 1.61 1.74 1.92 2.07 2.05 2.03 2.05 2.06
0.46 0.48 0.44 0.44 0.42 0.49 0.81 1.05 0.89 0.83 0.78 0.73 0.80 0.83 0.81 0.66 0.54 0.53 0.53 0.58 0.66 0.71 0.75 0.78 0.89 0.99 1.13 1.27 1.29 1.28 1.31 1.37 1.45 1.61 1.75 1.77 1.83 1.88 2.02 2.14 2.15 2.10 2.02 1.95
0.69 0.77 0.75 0.51 0.55 0.81 1.00 0.85 0.89 1.00 1.03 1.01 0.94 0.82 0.71 0.62 0.56 0.50 0.48 0.48 0.55 0.67 0.74 0.79 0.91 1.11 1.24 1.35 1.43 1.49 1.55 1.70 1.72 1.77 1.76 1.72 1.84 1.93 2.01 2.12 2.10 2.05 2.07 1.96
0.89 0.95 0.84 0.67 0.73 0.72 0.70 0.80 0.87 0.93 1.06 1.07 0.97 0.98 0.84 0.74 0.69 0.60 0.53 0.51 0.55 0.63 0.73 0.79 0.86 1.02 1.27 1.34 1.38 1.45 1.55 1.64 1.74 1.76 1.79 1.78 1.85 1.94 2.06 2.09 2.06 1.99 2.01 2.02
0.99 0.99 0.90 0.83 0.82 0.75 0.69 0.72 0.78 0.87 0.92 0.94 0.91 0.99 0.94 0.79 0.66 0.59 0.54 0.49 0.52 0.61 0.71 0.75 0.71 0.77 0.91 1.01 1.08 1.16 1.26 1.34 1.39 1.48 1.58 1.73 1.90 1.93 1.97 2.04 2.09 2.09 2.05 1.99
1.12 1.20 1.21 1.11 1.00 0.95 0.85 0.84 0.89 0.91 0.92 0.91 0.79 0.79 0.82 0.71 0.59 0.51 0.46 0.41 0.45 0.55 0.58 0.60 0.65 0.63 0.66 0.74 0.93 1.04 1.08 1.13 1.24 1.37 1.48 1.64 1.81 1.89 1.81 1.82 1.95 1.93 1.84 1.76
1.09 1.12 1.28 1.32 1.15 1.02 0.93 0.95 0.98 0.96 0.88 0.82 0.71 0.64 0.56 0.48 0.42 0.41 0.38 0.39 0.44 0.50 0.50 0.50 0.56 0.58 0.59 0.69 0.88 1.01 1.04 1.04 1.09 1.13 1.25 1.38 1.52 1.60 1.53 1.34 1.35 1.30 1.20 1.10
0.88 0.97 1.06 1.18 1.13 1.08 1.08 1.04 0.96 0.89 0.79 0.74 0.65 0.56 0.46 0.42 0.38 0.36 0.40 0.45 0.51 0.53 0.54 0.53 0.54 0.56 0.60 0.70 0.86 1.03 1.01 0.96 0.98 1.01 1.08 1.13 1.21 1.31 1.35 1.21 1.00 0.91 0.79 0.67
0.90 1.00 1.14 1.25 1.15 1.03 1.07 0.97 0.86 0.87 0.82 0.74 0.65 0.57 0.48 0.45 0.42 0.42 0.47 0.53 0.56 0.56 0.53 0.54 0.55 0.53 0.56 0.66 0.81 1.08 1.16 1.08 1.01 0.97 1.00 1.03 1.07 1.13 1.21 1.25 1.15 0.95 0.72 0.52
0.89 0.94 1.00 1.01 1.00 0.96 0.97 0.98 0.86 0.78 0.70 0.69 0.66 0.57 0.50 0.48 0.45 0.46 0.50 0.57 0.63 0.60 0.56 0.52 0.52 0.51 0.53 0.59 0.69 0.85 1.05 1.07 0.99 0.95 0.96 1.00 1.03 1.08 1.15 1.17 1.22 1.16 0.92 0.65
0.90 0.91 0.91 0.89 0.90 0.85 0.80 0.90 0.91 0.77 0.62 0.62 0.65 0.56 0.53 0.51 0.49 0.48 0.52 0.65 0.82 0.84 0.71 0.64 0.60 0.54 0.54 0.59 0.63 0.69 0.80 0.78 0.73 0.77 0.82 0.89 0.95 0.98 1.03 1.09 1.14 1.15 1.02 0.77
0.93 0.92 0.91 0.90 0.86 0.78 0.73 0.78 0.78 0.69 0.55 0.52 0.61 0.61 0.58 0.60 0.62 0.64 0.68 0.73 0.81 0.83 0.77 0.74 0.66 0.56 0.51 0.55 0.61 0.61 0.66 0.60 0.50 0.58 0.72 0.78 0.84 0.88 0.90 0.95 1.01 1.02 0.93 0.64
0.82 0.83 0.76 0.73 0.74 0.74 0.72 0.70 0.67 0.59 0.52 0.50 0.58 0.66 0.66 0.72 0.84 0.91 0.92 0.91 0.86 0.73 0.67 0.67 0.58 0.49 0.46 0.45 0.51 0.55 0.65 0.64 0.49 0.51 0.65 0.71 0.74 0.85 0.87 0.89 0.92 0.94 0.85 0.60
0.75 0.77 0.65 0.59 0.57 0.59 0.62 0.63 0.60 0.55 0.50 0.50 0.61 0.71 0.72 0.75 0.84 0.93 0.93 1.00 1.04 0.93 0.74 0.60 0.50 0.41 0.39 0.35 0.34 0.43 0.57 0.65 0.55 0.50 0.58 0.58 0.66 0.85 0.89 0.87 0.88 0.88 0.75 0.64
0.65 0.68 0.64 0.56 0.51 0.53 0.53 0.54 0.53 0.53 0.52 0.55 0.63 0.67 0.71 0.76 0.81 0.88 0.88 0.92 1.00 0.98 0.82 0.61 0.42 0.33 0.29 0.26 0.28 0.36 0.47 0.56 0.50 0.42 0.47 0.56 0.68 0.80 0.86 0.83 0.85 0.87 0.76 0.66
0.56 0.58 0.55 0.49 0.50 0.53 0.50 0.46 0.46 0.52 0.54 0.56 0.64 0.69 0.72 0.71 0.71 0.79 0.92 0.97 0.88 0.85 0.80 0.69 0.48 0.33 0.24 0.24 0.26 0.34 0.44 0.51 0.43 0.35 0.36 0.45 0.60 0.73 0.80 0.81 0.82 0.81 0.72 0.65
0.48 0.48 0.44 0.42 0.46 0.52 0.49 0.44 0.42 0.42 0.45 0.53 0.58 0.62 0.69 0.66 0.65 0.64 0.67 0.80 0.81 0.87 0.79 0.70 0.57 0.41 0.28 0.22 0.22 0.29 0.39 0.45 0.42 0.33 0.31 0.38 0.53 0.64 0.71 0.76 0.78 0.76 0.72 0.70
0.48 0.43 0.40 0.40 0.39 0.40 0.41 0.39 0.37 0.36 0.46 0.60 0.64 0.65 0.69 0.64 0.65 0.74 0.69 0.57 0.60 0.73 0.65 0.58 0.56 0.45 0.31 0.24 0.23 0.28 0.40 0.48 0.47 0.36 0.31 0.37 0.45 0.50 0.57 0.62 0.64 0.69 0.72 0.69
0.52 0.43 0.42 0.41 0.37 0.35 0.39 0.37 0.32 0.34 0.45 0.57 0.57 0.58 0.60 0.59 0.60 0.58 0.56 0.54 0.56 0.62 0.54 0.50 0.47 0.43 0.38 0.35 0.35 0.37 0.42 0.46 0.44 0.34 0.30 0.34 0.38 0.41 0.49 0.58 0.65 0.72 0.69 0.62
0.45 0.42 0.41 0.39 0.38 0.36 0.37 0.34 0.31 0.32 0.42 0.55 0.50 0.50 0.49 0.50 0.58 0.58 0.53 0.49 0.52 0.54 0.50 0.49 0.44 0.40 0.39 0.46 0.52 0.50 0.46 0.43 0.39 0.33 0.31 0.32 0.35 0.39 0.47 0.60 0.69 0.70 0.63 0.61
0.45 0.45 0.41 0.38 0.35 0.32 0.31 0.31 0.32 0.32 0.45 0.66 0.62 0.52 0.47 0.43 0.46 0.51 0.56 0.54 0.52 0.55 0.52 0.48 0.42 0.42 0.43 0.52 0.57 0.53 0.45 0.42 0.40 0.37 0.35 0.36 0.41 0.47 0.55 0.64 0.65 0.57 0.51 0.48
0.42 0.38 0.35 0.34 0.33 0.31 0.31 0.33 0.35 0.38 0.50 0.72 0.74 0.56 0.47 0.45 0.47 0.52 0.58 0.60 0.56 0.54 0.50 0.45 0.40 0.38 0.39 0.44 0.46 0.45 0.43 0.42 0.43 0.42 0.39 0.40 0.42 0.46 0.49 0.54 0.53 0.46 0.42 0.40

GEFSNGP_prec_meanprecacc_168.txt.gz
Total_Precipitation_Accumulation
0.05 0.10 0.16 0.19 0.15 0.13 0.10 0.10 0.12 0.14 0.23 0.29 0.40 0.39 0.31 0.31 0.34 0.28 0.30 0.27 0.25 0.28 0.20 0.18 0.19 0.21 0.22 0.25 0.29 0.32 0.38 0.47 0.53 0.62 0.67 0.72 0.82 0.88 0.95 0.98 0.95 1.04 1.14 1.15
0.06 0.10 0.12 0.13 0.16 0.12 0.08 0.07 0.08 0.11 0.20 0.30 0.35 0.40 0.38 0.31 0.29 0.34 0.39 0.31 0.32 0.35 0.30 0.25 0.23 0.23 0.22 0.27 0.36 0.43 0.52 0.57 0.59 0.66 0.73 0.72 0.77 0.82 0.93 0.99 1.04 1.15 1.21 1.23
0.15 0.15 0.15 0.16 0.15 0.11 0.09 0.10 0.11 0.12 0.18 0.27 0.38 0.42 0.45 0.44 0.37 0.38 0.49 0.48 0.55 0.60 0.49 0.39 0.33 0.32 0.32 0.37 0.44 0.51 0.60 0.72 0.78 0.82 0.85 0.87 0.90 0.93 0.98 1.12 1.21 1.21 1.22 1.24
0.21 0.24 0.28 0.18 0.14 0.13 0.11 0.13 0.14 0.18 0.26 0.32 0.44 0.49 0.54 0.62 0.59 0.52 0.49 0.51 0.59 0.63 0.63 0.58 0.52 0.49 0.51 0.55 0.60 0.71 0.83 0.94 1.04 1.08 1.14 1.21 1.27 1.24 1.28 1.35 1.43 1.43 1.36 1.37
0.32 0.38 0.32 0.24 0.21 0.20 0.21 0.25 0.27 0.36 0.50 0.59 0.59 0.68 0.78 0.71 0.62 0.59 0.58 0.57 0.68 0.66 0.64 0.64 0.73 0.73 0.71 0.74 0.79 0.94 1.09 1.21 1.27 1.32 1.39 1.43 1.44 1.51 1.61 1.73 1.76 1.77 1.72 1.75
0.39 0.44 0.45 0.40 0.36 0.35 0.42 0.68 0.58 0.63 0.65 0.61 0.61 0.81 0.80 0.61 0.55 0.56 0.57 0.64 0.71 0.75 0.73 0.78 0.92 0.93 0.94 1.02 1.09 1.12 1.14 1.23 1.40 1.56 1.66 1.65 1.67 1.79 1.97 2.11 2.09 2.09 2.11 2.11
0.46 0.49 0.45 0.44 0.42 0.49 0.82 1.09 0.89 0.84 0.79 0.74 0.81 0.84 0.82 0.66 0.54 0.53 0.53 0.59 0.67 0.72 0.77 0.80 0.92 1.01 1.15 1.30 1.33 1.32 1.34 1.40 1.50 1.65 1.80 1.82 1.87 1.92 2.05 2.17 2.18 2.14 2.06 1.99
0.69 0.77 0.77 0.52 0.55 0.82 1.02 0.86 0.89 1.00 1.04 1.01 0.95 0.82 0.71 0.62 0.57 0.51 0.49 0.49 0.56 0.69 0.77 0.82 0.95 1.14 1.27 1.38 1.46 1.52 1.58 1.72 1.75 1.81 1.81 1.76 1.87 1.95 2.04 2.14 2.13 2.09 2.11 1.99
0.90 0.96 0.86 0.68 0.74 0.72 0.70 0.80 0.87 0.93 1.06 1.07 0.97 0.99 0.85 0.75 0.70 0.60 0.53 0.52 0.56 0.65 0.75 0.82 0.90 1.05 1.30 1.37 1.41 1.47 1.57 1.65 1.76 1.79 1.81 1.82 1.89 1.98 2.09 2.12 2.08 2.02 2.04 2.04
1.01 1.01 0.91 0.85 0.85 0.78 0.69 0.72 0.78 0.87 0.92 0.94 0.92 1.00 0.95 0.80 0.67 0.60 0.55 0.51 0.54 0.62 0.72 0.77 0.73 0.79 0.93 1.03 1.10 1.18 1.27 1.36 1.42 1.53 1.62 1.77 1.94 1.96 2.02 2.09 2.13 2.12 2.08 2.02
1.13 1.22 1.24 1.15 1.05 0.97 0.86 0.84 0.89 0.92 0.92 0.92 0.80 0.80 0.82 0.72 0.59 0.52 0.47 0.43 0.47 0.57 0.59 0.62 0.66 0.64 0.67 0.75 0.94 1.06 1.10 1.17 1.27 1.39 1.50 1.67 1.86 1.94 1.86 1.88 2.00 1.97 1.88 1.80
1.12 1.15 1.31 1.34 1.16 1.05 0.94 0.95 0.98 0.96 0.89 0.83 0.72 0.64 0.57 0.49 0.43 0.42 0.39 0.42 0.47 0.53 0.53 0.51 0.58 0.59 0.60 0.71 0.90 1.03 1.06 1.08 1.12 1.15 1.26 1.39 1.54 1.63 1.56 1.37 1.39 1.34 1.24 1.13
0.91 0.98 1.07 1.19 1.14 1.08 1.09 1.05 0.96 0.90 0.81 0.76 0.66 0.56 0.47 0.43 0.39 0.39 0.43 0.48 0.54 0.57 0.57 0.56 0.56 0.58 0.62 0.72 0.89 1.06 1.03 0.98 0.99 1.02 1.10 1.15 1.22 1.32 1.36 1.22 1.03 0.94 0.82 0.69
0.92 1.02 1.15 1.26 1.16 1.04 1.08 0.98 0.87 0.89 0.84 0.76 0.66 0.58 0.49 0.46 0.43 0.44 0.50 0.56 0.60 0.60 0.58 0.59 0.59 0.56 0.58 0.68 0.84 1.11 1.18 1.10 1.02 0.99 1.02 1.04 1.08 1.14 1.22 1.26 1.16 0.96 0.73 0.53
0.91 0.95 1.02 1.03 1.00 0.96 0.99 0.99 0.88 0.81 0.72 0.70 0.68 0.58 0.51 0.49 0.47 0.49 0.54 0.61 0.68 0.65 0.59 0.56 0.55 0.54 0.55 0.61 0.71 0.87 1.06 1.08 1.00 0.96 0.97 1.01 1.03 1.09 1.16 1.18 1.23 1.17 0.93 0.65
0.92 0.93 0.92 0.90 0.91 0.86 0.83 0.92 0.93 0.80 0.65 0.65 0.66 0.59 0.56 0.53 0.52 0.52 0.57 0.71 0.89 0.89 0.75 0.68 0.63 0.57 0.56 0.61 0.65 0.71 0.81 0.80 0.74 0.78 0.82 0.90 0.95 0.99 1.03 1.10 1.15 1.15 1.03 0.78
0.94 0.93 0.92 0.91 0.88 0.80 0.75 0.80 0.80 0.71 0.58 0.54 0.63 0.63 0.60 0.63 0.65 0.68 0.72 0.78 0.88 0.89 0.82 0.78 0.70 0.58 0.53 0.56 0.63 0.64 0.68 0.63 0.53 0.61 0.74 0.79 0.84 0.89 0.91 0.96 1.02 1.04 0.94 0.65
0.84 0.85 0.78 0.75 0.76 0.76 0.74 0.72 0.69 0.62 0.55 0.53 0.60 0.68 0.68 0.75 0.86 0.93 0.94 0.94 0.89 0.77 0.70 0.70 0.61 0.52 0.47 0.47 0.52 0.57 0.67 0.67 0.52 0.54 0.67 0.73 0.75 0.85 0.88 0.90 0.92 0.94 0.85 0.60
0.77 0.78 0.67 0.60 0.59 0.63 0.65 0.66 0.62 0.58 0.53 0.53 0.63 0.73 0.74 0.77 0.86 0.95 0.95 1.01 1.06 0.96 0.77 0.62 0.52 0.43 0.41 0.37 0.35 0.44 0.58 0.66 0.56 0.50 0.59 0.59 0.66 0.85 0.89 0.87 0.89 0.89 0.75 0.64
0.67 0.70 0.66 0.57 0.53 0.58 0.59 0.59 0.57 0.56 0.56 0.58 0.66 0.70 0.74 0.79 0.84 0.91 0.91 0.94 1.03 1.00 0.83 0.62 0.43 0.34 0.30 0.26 0.28 0.36 0.48 0.57 0.51 0.43 0.48 0.57 0.68 0.81 0.87 0.85 0.86 0.88 0.77 0.67
0.57 0.60 0.57 0.52 0.53 0.56 0.55 0.50 0.50 0.55 0.57 0.59 0.66 0.71 0.76 0.75 0.75 0.83 0.96 1.00 0.91 0.88 0.82 0.71 0.49 0.34 0.25 0.25 0.27 0.34 0.45 0.51 0.44 0.35 0.36 0.46 0.61 0.73 0.80 0.82 0.83 0.81 0.72 0.65
0.49 0.50 0.48 0.47 0.51 0.55 0.54 0.49 0.46 0.45 0.48 0.56 0.60 0.64 0.72 0.70 0.69 0.69 0.72 0.84 0.85 0.90 0.82 0.73 0.60 0.44 0.31 0.24 0.23 0.29 0.39 0.46 0.42 0.33 0.31 0.39 0.53 0.64 0.71 0.76 0.78 0.76 0.72 0.70
0.51 0.46 0.44 0.47 0.45 0.45 0.46 0.44 0.42 0.40 0.50 0.63 0.66 0.67 0.71 0.67 0.68 0.77 0.72 0.60 0.63 0.76 0.69 0.61 0.60 0.49 0.35 0.27 0.24 0.29 0.41 0.48 0.47 0.36 0.32 0.38 0.45 0.50 0.58 0.62 0.64 0.69 0.73 0.69
0.56 0.47 0.46 0.48 0.43 0.41 0.45 0.43 0.39 0.39 0.49 0.60 0.59 0.60 0.62 0.62 0.63 0.60 0.58 0.56 0.59 0.65 0.57 0.53 0.50 0.45 0.41 0.37 0.37 0.39 0.44 0.48 0.44 0.34 0.31 0.34 0.38 0.41 0.49 0.58 0.66 0.72 0.69 0.62
0.51 0.48 0.47 0.48 0.46 0.43 0.45 0.43 0.40 0.38 0.45 0.58 0.53 0.53 0.53 0.55 0.65 0.64 0.57 0.52 0.55 0.56 0.52 0.51 0.46 0.42 0.40 0.47 0.53 0.51 0.46 0.43 0.39 0.33 0.31 0.32 0.36 0.39 0.47 0.60 0.69 0.70 0.63 0.61
0.52 0.52 0.51 0.48 0.43 0.38 0.38 0.39 0.40 0.38 0.49 0.69 0.64 0.56 0.53 0.51 0.55 0.61 0.65 0.61 0.58 0.59 0.55 0.50 0.45 0.44 0.44 0.53 0.58 0.53 0.46 0.42 0.40 0.37 0.36 0.36 0.41 0.47 0.55 0.64 0.65 0.57 0.51 0.48
0.50 0.46 0.43 0.42 0.41 0.39 0.37 0.39 0.40 0.43 0.54 0.75 0.77 0.59 0.52 0.52 0.55 0.60 0.66 0.68 0.63 0.59 0.54 0.48 0.42 0.40 0.41 0.45 0.46 0.45 0.43 0.42 0.43 0.42 0.39 0.40 0.42 0.47 0.49 0.54 0.53 0.46 0.42 0.40

GEFSNGP_prec_meanprecacc_174.txt.gz
Total_Precipitation_Accumulation
0.05 0.10 0.16 0.19 0.15 0.13 0.10 0.10 0.12 0.14 0.23 0.30 0.40 0.40 0.34 0.33 0.36 0.30 0.32 0.30 0.29 0.33 0.25 0.22 0.23 0.23 0.24 0.26 0.31 0.33 0.40 0.48 0.55 0.64 0.69 0.76 0.88 0.93 0.99 1.01 0.98 1.07 1.16 1.18
0.06 0.10 0.12 0.13 0.16 0.12 0.08 0.07 0.08 0.11 0.20 0.30 0.35 0.41 0.39 0.33 0.31 0.35 0.40 0.34 0.35 0.39 0.36 0.33 0.33 0.32 0.26 0.30 0.38 0.46 0.55 0.59 0.62 0.69 0.76 0.77 0.81 0.84 0.95 1.01 1.07 1.19 1.27 1.29
0.15 0.15 0.15 0.16 0.15 0.11 0.09 0.10 0.11 0.12 0.19 0.27 0.39 0.44 0.46 0.45 0.40 0.42 0.51 0.50 0.59 0.65 0.56 0.47 0.41 0.38 0.37 0.43 0.49 0.55 0.64 0.76 0.82 0.85 0.89 0.91 0.94 0.95 1.01 1.16 1.25 1.27 1.28 1.30
0.21 0.24 0.28 0.18 0.14 0.13 0.11 0.13 0.14 0.18 0.26 0.33 0.46 0.50 0.54 0.62 0.60 0.54 0.51 0.55 0.63 0.68 0.67 0.63 0.58 0.53 0.54 0.59 0.65 0.77 0.88 1.00 1.10 1.13 1.19 1.27 1.33 1.30 1.33 1.41 1.50 1.49 1.42 1.42
0.32 0.38 0.32 0.24 0.21 0.20 0.21 0.26 0.28 0.36 0.51 0.59 0.59 0.69 0.80 0.73 0.64 0.61 0.61 0.61 0.72 0.70 0.67 0.68 0.78 0.78 0.75 0.77 0.83 0.99 1.14 1.26 1.34 1.38 1.44 1.49 1.50 1.58 1.67 1.78 1.81 1.81 1.76 1.79
0.39 0.44 0.45 0.41 0.36 0.35 0.42 0.70 0.60 0.64 0.66 0.63 0.62 0.83 0.83 0.63 0.57 0.58 0.59 0.67 0.75 0.78 0.76 0.82 0.97 0.98 0.98 1.06 1.14 1.17 1.19 1.29 1.45 1.61 1.72 1.71 1.74 1.85 2.01 2.15 2.13 2.12 2.14 2.13
0.46 0.49 0.45 0.44 0.43 0.49 0.83 1.11 0.91 0.86 0.80 0.79 0.86 0.87 0.85 0.68 0.56 0.55 0.57 0.63 0.72 0.76 0.81 0.84 0.97 1.07 1.20 1.35 1.38 1.38 1.40 1.45 1.54 1.69 1.84 1.87 1.92 1.96 2.09 2.22 2.21 2.17 2.09 2.01
0.69 0.78 0.78 0.52 0.56 0.83 1.05 0.89 0.92 1.03 1.07 1.04 0.98 0.85 0.74 0.65 0.59 0.54 0.52 0.53 0.61 0.74 0.82 0.87 0.99 1.19 1.33 1.43 1.52 1.58 1.63 1.76 1.78 1.84 1.83 1.79 1.90 1.98 2.07 2.18 2.16 2.11 2.13 2.02
0.91 0.98 0.87 0.69 0.76 0.77 0.76 0.86 0.92 0.97 1.08 1.10 1.03 1.03 0.88 0.78 0.73 0.63 0.57 0.56 0.60 0.70 0.80 0.86 0.95 1.11 1.37 1.42 1.46 1.51 1.60 1.68 1.78 1.81 1.83 1.83 1.90 1.99 2.11 2.14 2.10 2.03 2.05 2.06
1.04 1.04 0.93 0.86 0.88 0.86 0.84 0.90 0.90 0.93 0.96 0.97 0.96 1.04 1.00 0.85 0.70 0.63 0.59 0.54 0.57 0.65 0.76 0.81 0.78 0.85 0.98 1.07 1.14 1.21 1.30 1.39 1.44 1.54 1.64 1.79 1.96 1.98 2.04 2.11 2.14 2.13 2.09 2.04
1.19 1.27 1.27 1.17 1.09 1.06 0.98 1.05 1.09 1.02 0.99 0.97 0.84 0.85 0.87 0.75 0.61 0.53 0.49 0.46 0.50 0.60 0.63 0.65 0.70 0.68 0.71 0.78 0.96 1.09 1.13 1.19 1.29 1.41 1.53 1.69 1.89 1.99 1.90 1.91 2.02 1.99 1.89 1.81
1.19 1.20 1.35 1.37 1.19 1.10 1.01 1.05 1.08 1.03 0.95 0.88 0.76 0.68 0.60 0.52 0.46 0.45 0.42 0.44 0.50 0.56 0.56 0.55 0.62 0.63 0.63 0.73 0.93 1.06 1.08 1.10 1.14 1.18 1.29 1.42 1.56 1.65 1.58 1.39 1.41 1.37 1.25 1.14
0.97 1.06 1.13 1.22 1.16 1.11 1.14 1.11 1.04 0.97 0.87 0.81 0.70 0.59 0.50 0.45 0.41 0.41 0.45 0.51 0.57 0.60 0.62 0.61 0.61 0.62 0.66 0.77 0.94 1.11 1.07 1.01 1.03 1.06 1.13 1.17 1.23 1.33 1.37 1.23 1.03 0.95 0.82 0.70
0.99 1.09 1.24 1.32 1.19 1.08 1.13 1.03 0.92 0.95 0.91 0.82 0.70 0.61 0.51 0.48 0.45 0.46 0.52 0.58 0.62 0.64 0.64 0.66 0.66 0.61 0.64 0.74 0.90 1.16 1.22 1.13 1.05 1.02 1.04 1.06 1.09 1.15 1.22 1.26 1.16 0.97 0.74 0.54
1.05 1.07 1.16 1.16 1.09 1.03 1.06 1.07 0.95 0.86 0.78 0.75 0.72 0.62 0.55 0.51 0.49 0.51 0.55 0.63 0.71 0.71 0.68 0.63 0.61 0.59 0.60 0.66 0.76 0.93 1.12 1.12 1.03 0.98 0.98 1.01 1.04 1.09 1.16 1.18 1.23 1.17 0.93 0.66
1.10 1.08 1.11 1.09 1.04 0.95 0.92 1.05 1.05 0.86 0.69 0.68 0.68 0.61 0.58 0.56 0.55 0.55 0.60 0.75 0.93 0.93 0.80 0.72 0.67 0.62 0.62 0.67 0.71 0.77 0.86 0.83 0.76 0.79 0.83 0.91 0.96 1.00 1.04 1.11 1.15 1.16 1.03 0.78
1.01 1.01 1.04 1.04 0.97 0.88 0.82 0.88 0.88 0.77 0.61 0.56 0.65 0.66 0.62 0.66 0.69 0.71 0.76 0.83 0.92 0.93 0.86 0.83 0.75 0.64 0.59 0.62 0.68 0.68 0.71 0.65 0.54 0.62 0.75 0.81 0.87 0.91 0.92 0.97 1.03 1.04 0.95 0.65
0.86 0.88 0.82 0.79 0.80 0.79 0.78 0.77 0.73 0.65 0.58 0.55 0.63 0.70 0.70 0.78 0.89 0.97 0.97 0.97 0.92 0.79 0.73 0.73 0.65 0.59 0.56 0.55 0.60 0.63 0.71 0.69 0.54 0.55 0.69 0.74 0.76 0.86 0.88 0.90 0.92 0.94 0.85 0.60
0.79 0.81 0.70 0.62 0.61 0.65 0.67 0.68 0.65 0.61 0.58 0.59 0.67 0.76 0.77 0.80 0.90 0.98 0.98 1.05 1.09 0.98 0.79 0.65 0.55 0.47 0.46 0.43 0.42 0.50 0.63 0.70 0.58 0.52 0.60 0.59 0.67 0.85 0.89 0.87 0.89 0.89 0.75 0.65
0.69 0.72 0.67 0.58 0.55 0.59 0.61 0.61 0.60 0.60 0.60 0.64 0.71 0.74 0.77 0.82 0.87 0.95 0.94 0.98 1.05 1.02 0.85 0.65 0.46 0.36 0.31 0.30 0.33 0.40 0.51 0.60 0.53 0.45 0.49 0.58 0.69 0.81 0.87 0.85 0.87 0.89 0.78 0.68
0.60 0.62 0.59 0.53 0.54 0.58 0.61 0.56 0.53 0.59 0.61 0.62 0.70 0.75 0.79 0.79 0.78 0.86 0.99 1.03 0.93 0.91 0.86 0.75 0.53 0.37 0.28 0.29 0.31 0.38 0.48 0.54 0.46 0.37 0.38 0.47 0.62 0.74 0.81 0.82 0.83 0.82 0.73 0.66
0.54 0.54 0.51 0.49 0.53 0.57 0.60 0.56 0.50 0.49 0.52 0.61 0.65 0.69 0.77 0.74 0.73 0.72 0.74 0.86 0.87 0.94 0.85 0.76 0.63 0.47 0.34 0.28 0.27 0.33 0.42 0.49 0.45 0.35 0.33 0.40 0.54 0.65 0.72 0.77 0.79 0.77 0.73 0.71
0.56 0.50 0.49 0.51 0.48 0.48 0.50 0.49 0.47 0.45 0.56 0.72 0.74 0.75 0.77 0.71 0.72 0.80 0.74 0.61 0.64 0.78 0.70 0.63 0.61 0.50 0.37 0.29 0.26 0.31 0.43 0.51 0.50 0.39 0.34 0.40 0.48 0.52 0.60 0.63 0.66 0.70 0.73 0.69
0.62 0.52 0.51 0.52 0.48 0.46 0.50 0.47 0.44 0.45 0.57 0.70 0.69 0.68 0.69 0.66 0.65 0.62 0.60 0.58 0.60 0.66 0.58 0.54 0.51 0.46 0.42 0.38 0.39 0.41 0.46 0.50 0.47 0.37 0.33 0.37 0.40 0.43 0.52 0.60 0.67 0.73 0.69 0.62
0.57 0.52 0.52 0.53 0.51 0.47 0.50 0.48 0.46 0.45 0.53 0.66 0.63 0.61 0.58 0.58 0.67 0.65 0.59 0.54 0.57 0.57 0.53 0.52 0.46 0.43 0.41 0.48 0.54 0.53 0.49 0.46 0.43 0.37 0.34 0.35 0.38 0.42 0.49 0.62 0.71 0.71 0.64 0.61
0.57 0.58 0.57 0.55 0.48 0.42 0.41 0.44 0.47 0.45 0.55 0.75 0.71 0.60 0.55 0.52 0.56 0.62 0.66 0.63 0.60 0.61 0.56 0.51 0.46 0.45 0.45 0.55 0.61 0.57 0.49 0.45 0.43 0.40 0.38 0.39 0.43 0.49 0.56 0.65 0.66 0.58 0.52 0.48
0.54 0.52 0.50 0.50 0.48 0.44 0.42 0.43 0.45 0.48 0.58 0.79 0.80 0.62 0.54 0.54 0.56 0.61 0.68 0.70 0.65 0.62 0.57 0.51 0.45 0.42 0.44 0.48 0.50 0.48 0.46 0.45 0.45 0.44 0.42 0.42 0.43 0.48 0.50 0.54 0.53 0.46 0.42 0.40

GEFSNGP_prec_meanprecacc_180.txt.gz
Total_Precipitation_Accumulation
0.05 0.10 0.16 0.19 0.15 0.13 0.10 0.10 0.12 0.14 0.23 0.30 0.40 0.40 0.34 0.33 0.36 0.30 0.32 0.30 0.29 0.33 0.26 0.24 0.24 0.25 0.25 0.28 0.32 0.35 0.41 0.50 0.56 0.65 0.70 0.78 0.91 0.96 1.03 1.06 1.02 1.10 1.20 1.22
0.06 0.10 0.12 0.13 0.16 0.12 0.08 0.07 0.08 0.11 0.20 0.30 0.35 0.41 0.39 0.34 0.32 0.36 0.41 0.34 0.35 0.39 0.36 0.34 0.35 0.33 0.28 0.33 0.41 0.48 0.57 0.61 0.64 0.70 0.77 0.79 0.84 0.87 0.99 1.06 1.13 1.25 1.32 1.34
0.15 0.15 0.15 0.16 0.15 0.11 0.09 0.10 0.11 0.12 0.19 0.27 0.39 0.44 0.46 0.46 0.41 0.43 0.52 0.51 0.59 0.66 0.58 0.49 0.44 0.40 0.40 0.46 0.53 0.60 0.68 0.80 0.85 0.89 0.94 0.96 0.98 0.99 1.05 1.20 1.30 1.33 1.33 1.34
0.21 0.24 0.28 0.18 0.14 0.13 0.11 0.13 0.14 0.18 0.26 0.33 0.46 0.51 0.55 0.63 0.61 0.55 0.52 0.55 0.64 0.69 0.70 0.66 0.62 0.58 0.60 0.63 0.71 0.83 0.94 1.05 1.16 1.21 1.26 1.32 1.38 1.36 1.38 1.45 1.54 1.54 1.46 1.47
0.32 0.38 0.32 0.24 0.21 0.20 0.21 0.26 0.28 0.36 0.51 0.60 0.60 0.70 0.80 0.73 0.64 0.61 0.62 0.61 0.73 0.72 0.71 0.71 0.82 0.83 0.80 0.82 0.88 1.04 1.22 1.33 1.42 1.49 1.54 1.56 1.55 1.63 1.71 1.80 1.83 1.83 1.78 1.81
0.39 0.44 0.45 0.41 0.36 0.35 0.43 0.70 0.60 0.64 0.66 0.63 0.63 0.84 0.83 0.63 0.57 0.58 0.60 0.69 0.78 0.82 0.80 0.85 1.01 1.03 1.04 1.12 1.20 1.25 1.29 1.37 1.54 1.68 1.78 1.77 1.79 1.89 2.04 2.17 2.15 2.14 2.15 2.15
0.47 0.49 0.45 0.44 0.43 0.49 0.83 1.12 0.92 0.86 0.81 0.79 0.87 0.88 0.86 0.69 0.57 0.57 0.59 0.67 0.77 0.81 0.84 0.88 1.01 1.13 1.29 1.44 1.49 1.51 1.54 1.57 1.64 1.76 1.89 1.91 1.97 2.01 2.12 2.24 2.23 2.19 2.11 2.03
0.69 0.78 0.78 0.52 0.56 0.83 1.05 0.89 0.92 1.04 1.08 1.05 1.00 0.87 0.75 0.66 0.61 0.56 0.56 0.58 0.66 0.79 0.87 0.92 1.06 1.29 1.46 1.59 1.71 1.79 1.80 1.88 1.87 1.91 1.88 1.83 1.95 2.05 2.12 2.21 2.17 2.13 2.14 2.03
0.91 0.98 0.87 0.69 0.76 0.77 0.76 0.87 0.93 0.98 1.09 1.12 1.05 1.05 0.90 0.81 0.76 0.67 0.61 0.60 0.64 0.74 0.85 0.92 1.01 1.21 1.51 1.56 1.59 1.63 1.71 1.76 1.83 1.86 1.87 1.88 1.95 2.04 2.15 2.16 2.11 2.04 2.06 2.07
1.05 1.05 0.94 0.87 0.89 0.87 0.85 0.91 0.91 0.95 0.98 1.01 0.99 1.08 1.05 0.90 0.75 0.67 0.62 0.58 0.61 0.70 0.80 0.86 0.83 0.91 1.06 1.18 1.26 1.31 1.37 1.43 1.47 1.57 1.66 1.81 1.99 2.01 2.07 2.14 2.16 2.14 2.10 2.05
1.21 1.30 1.30 1.20 1.12 1.09 1.00 1.06 1.11 1.04 1.02 1.05 0.94 0.95 0.97 0.83 0.68 0.58 0.53 0.49 0.53 0.64 0.67 0.69 0.74 0.73 0.76 0.84 1.03 1.15 1.18 1.22 1.33 1.46 1.58 1.74 1.93 2.03 1.96 1.95 2.06 2.02 1.91 1.82
1.21 1.24 1.38 1.41 1.24 1.14 1.04 1.08 1.11 1.07 0.99 0.93 0.85 0.81 0.73 0.62 0.54 0.52 0.49 0.49 0.53 0.59 0.59 0.58 0.65 0.66 0.67 0.78 0.97 1.10 1.11 1.13 1.19 1.24 1.34 1.46 1.60 1.68 1.61 1.42 1.43 1.38 1.26 1.14
1.00 1.09 1.16 1.27 1.20 1.15 1.18 1.16 1.09 1.01 0.91 0.86 0.75 0.71 0.66 0.58 0.50 0.49 0.53 0.57 0.61 0.63 0.64 0.64 0.64 0.66 0.70 0.81 0.98 1.14 1.11 1.07 1.10 1.13 1.19 1.22 1.28 1.37 1.40 1.26 1.06 0.97 0.84 0.70
1.03 1.13 1.28 1.36 1.23 1.12 1.16 1.07 0.98 1.00 0.95 0.87 0.75 0.66 0.58 0.55 0.54 0.55 0.62 0.66 0.67 0.67 0.66 0.68 0.68 0.65 0.67 0.78 0.95 1.21 1.29 1.21 1.11 1.08 1.09 1.09 1.12 1.18 1.26 1.29 1.18 0.98 0.74 0.54
1.09 1.10 1.20 1.21 1.14 1.07 1.10 1.10 0.99 0.92 0.83 0.80 0.78 0.67 0.59 0.56 0.56 0.58 0.62 0.68 0.74 0.73 0.69 0.65 0.64 0.62 0.64 0.69 0.80 0.98 1.19 1.19 1.10 1.04 1.04 1.07 1.08 1.13 1.20 1.22 1.26 1.19 0.94 0.66
1.14 1.11 1.16 1.16 1.11 1.01 0.97 1.09 1.11 0.94 0.76 0.74 0.73 0.65 0.62 0.60 0.58 0.57 0.63 0.77 0.94 0.94 0.82 0.74 0.70 0.65 0.65 0.70 0.74 0.82 0.91 0.89 0.82 0.86 0.89 0.95 1.00 1.03 1.07 1.14 1.18 1.17 1.04 0.79
1.05 1.05 1.10 1.15 1.10 0.98 0.90 0.96 0.98 0.87 0.70 0.63 0.70 0.69 0.65 0.68 0.70 0.73 0.78 0.86 0.94 0.95 0.88 0.85 0.77 0.66 0.62 0.65 0.71 0.72 0.74 0.69 0.59 0.66 0.78 0.83 0.88 0.93 0.94 0.98 1.04 1.05 0.95 0.66
0.87 0.89 0.84 0.84 0.89 0.90 0.87 0.84 0.80 0.71 0.64 0.60 0.67 0.73 0.71 0.79 0.91 0.99 1.00 1.00 0.95 0.81 0.75 0.74 0.66 0.60 0.57 0.57 0.63 0.67 0.74 0.72 0.58 0.59 0.72 0.77 0.78 0.88 0.90 0.91 0.93 0.95 0.86 0.61
0.80 0.82 0.71 0.64 0.64 0.69 0.71 0.73 0.69 0.65 0.62 0.62 0.69 0.78 0.78 0.81 0.91 1.00 1.00 1.08 1.12 1.00 0.80 0.67 0.57 0.48 0.47 0.44 0.44 0.53 0.67 0.74 0.62 0.55 0.63 0.62 0.69 0.87 0.90 0.88 0.90 0.90 0.76 0.66
0.70 0.73 0.69 0.60 0.56 0.61 0.63 0.64 0.64 0.64 0.64 0.67 0.74 0.76 0.79 0.83 0.88 0.96 0.96 1.00 1.08 1.05 0.87 0.66 0.47 0.37 0.33 0.31 0.35 0.42 0.53 0.63 0.56 0.48 0.51 0.60 0.71 0.83 0.88 0.86 0.87 0.90 0.79 0.69
0.62 0.64 0.61 0.55 0.56 0.60 0.63 0.58 0.56 0.62 0.64 0.65 0.72 0.77 0.81 0.80 0.80 0.88 1.02 1.07 0.97 0.93 0.88 0.77 0.55 0.38 0.30 0.30 0.33 0.40 0.51 0.58 0.51 0.41 0.42 0.50 0.65 0.77 0.83 0.84 0.84 0.83 0.74 0.67
0.56 0.56 0.53 0.51 0.55 0.60 0.62 0.59 0.53 0.51 0.54 0.63 0.67 0.71 0.79 0.77 0.77 0.77 0.79 0.92 0.92 0.96 0.87 0.77 0.64 0.48 0.36 0.29 0.28 0.34 0.45 0.52 0.48 0.39 0.36 0.43 0.57 0.68 0.74 0.79 0.81 0.78 0.74 0.72
0.58 0.52 0.51 0.53 0.50 0.50 0.52 0.52 0.49 0.48 0.59 0.75 0.77 0.78 0.81 0.75 0.77 0.86 0.80 0.66 0.69 0.81 0.72 0.64 0.62 0.51 0.38 0.30 0.27 0.32 0.44 0.52 0.51 0.40 0.35 0.42 0.50 0.55 0.63 0.67 0.68 0.72 0.75 0.71
0.67 0.55 0.53 0.54 0.50 0.49 0.53 0.50 0.46 0.48 0.61 0.74 0.73 0.72 0.74 0.71 0.70 0.68 0.66 0.63 0.64 0.69 0.60 0.55 0.52 0.47 0.43 0.39 0.40 0.42 0.47 0.51 0.48 0.38 0.34 0.38 0.42 0.46 0.54 0.63 0.70 0.76 0.72 0.65
0.63 0.57 0.54 0.55 0.53 0.50 0.53 0.50 0.48 0.48 0.57 0.69 0.66 0.65 0.63 0.62 0.70 0.69 0.62 0.58 0.61 0.62 0.56 0.54 0.48 0.44 0.42 0.49 0.55 0.54 0.49 0.47 0.44 0.38 0.36 0.37 0.40 0.44 0.52 0.65 0.75 0.76 0.68 0.65
0.61 0.62 0.60 0.57 0.50 0.44 0.43 0.46 0.49 0.49 0.59 0.79 0.74 0.63 0.59 0.56 0.59 0.64 0.69 0.65 0.62 0.63 0.58 0.53 0.47 0.46 0.46 0.56 0.62 0.58 0.50 0.46 0.44 0.42 0.40 0.41 0.46 0.52 0.60 0.69 0.70 0.61 0.55 0.51
0.57 0.55 0.53 0.52 0.50 0.46 0.44 0.46 0.47 0.51 0.61 0.82 0.83 0.64 0.56 0.56 0.58 0.63 0.70 0.72 0.67 0.63 0.58 0.52 0.46 0.43 0.45 0.49 0.51 0.49 0.47 0.46 0.47 0.46 0.44 0.45 0.47 0.51 0.54 0.58 0.57 0.48 0.44 0.41

GEFSNGP_prec_meanprecacc_186.txt.gz
Total_Precipitation_Accumulation
0.05 0.10 0.16 0.19 0.15 0.13 0.10 0.10 0.12 0.14 0.23 0.30 0.40 0.40 0.34 0.33 0.36 0.30 0.33 0.30 0.29 0.34 0.26 0.24 0.25 0.25 0.26 0.29 0.34 0.36 0.42 0.50 0.56 0.65 0.71 0.79 0.94 1.01 1.10 1.12 1.08 1.14 1.24 1.26
0.06 0.10 0.12 0.13 0.16 0.12 0.08 0.07 0.08 0.11 0.20 0.30 0.35 0.41 0.39 0.34 0.32 0.36 0.41 0.34 0.35 0.39 0.37 0.35 0.36 0.34 0.29 0.35 0.43 0.50 0.59 0.62 0.65 0.71 0.79 0.83 0.90 0.94 1.06 1.13 1.21 1.31 1.36 1.38
0.15 0.15 0.15 0.16 0.15 0.11 0.09 0.10 0.11 0.12 0.19 0.27 0.39 0.44 0.46 0.46 0.41 0.43 0.52 0.51 0.59 0.66 0.58 0.50 0.45 0.41 0.42 0.49 0.56 0.63 0.72 0.83 0.88 0.92 1.00 1.04 1.07 1.06 1.11 1.24 1.34 1.36 1.36 1.37
0.21 0.24 0.28 0.18 0.14 0.13 0.11 0.13 0.14 0.18 0.26 0.33 0.46 0.51 0.55 0.63 0.61 0.55 0.52 0.55 0.64 0.70 0.71 0.66 0.63 0.59 0.62 0.68 0.77 0.90 0.99 1.10 1.21 1.28 1.35 1.41 1.47 1.43 1.43 1.48 1.57 1.56 1.48 1.48
0.32 0.38 0.32 0.24 0.21 0.20 0.21 0.26 0.28 0.36 0.51 0.60 0.60 0.70 0.80 0.73 0.64 0.62 0.62 0.62 0.74 0.73 0.73 0.73 0.84 0.84 0.82 0.86 0.95 1.13 1.30 1.40 1.51 1.57 1.61 1.63 1.62 1.68 1.74 1.83 1.85 1.85 1.80 1.83
0.39 0.44 0.45 0.41 0.36 0.35 0.43 0.70 0.60 0.64 0.66 0.63 0.63 0.84 0.83 0.64 0.57 0.58 0.60 0.69 0.78 0.83 0.82 0.87 1.02 1.05 1.06 1.15 1.24 1.30 1.36 1.45 1.63 1.76 1.84 1.82 1.83 1.93 2.07 2.19 2.16 2.15 2.17 2.17
0.47 0.49 0.45 0.44 0.43 0.49 0.84 1.12 0.92 0.86 0.81 0.79 0.87 0.88 0.86 0.70 0.57 0.57 0.60 0.68 0.78 0.82 0.86 0.90 1.03 1.15 1.31 1.46 1.52 1.54 1.58 1.63 1.71 1.81 1.93 1.94 1.99 2.03 2.14 2.25 2.24 2.19 2.12 2.04
0.69 0.78 0.78 0.52 0.56 0.83 1.05 0.89 0.92 1.04 1.08 1.05 1.01 0.87 0.75 0.66 0.61 0.57 0.57 0.59 0.67 0.81 0.89 0.95 1.08 1.30 1.48 1.61 1.73 1.82 1.83 1.90 1.89 1.93 1.90 1.84 1.96 2.07 2.16 2.26 2.21 2.16 2.16 2.04
0.91 0.99 0.87 0.69 0.76 0.77 0.76 0.87 0.93 0.98 1.10 1.13 1.06 1.05 0.91 0.81 0.78 0.69 0.62 0.62 0.66 0.76 0.88 0.95 1.04 1.23 1.54 1.58 1.61 1.65 1.73 1.77 1.84 1.87 1.89 1.89 1.97 2.06 2.18 2.20 2.15 2.07 2.08 2.08
1.05 1.05 0.94 0.87 0.89 0.88 0.86 0.91 0.92 0.96 0.99 1.02 1.00 1.09 1.06 0.91 0.77 0.69 0.65 0.61 0.64 0.72 0.83 0.89 0.86 0.94 1.09 1.21 1.29 1.34 1.39 1.45 1.48 1.58 1.67 1.82 2.00 2.03 2.10 2.17 2.19 2.16 2.12 2.07
1.23 1.31 1.31 1.20 1.12 1.09 1.00 1.07 1.12 1.06 1.04 1.06 0.95 0.96 0.98 0.84 0.70 0.60 0.56 0.52 0.57 0.67 0.69 0.72 0.78 0.76 0.79 0.86 1.05 1.16 1.19 1.24 1.34 1.47 1.58 1.75 1.95 2.05 1.98 1.99 2.11 2.05 1.94 1.84
1.23 1.25 1.39 1.42 1.25 1.14 1.04 1.09 1.13 1.09 1.01 0.96 0.87 0.84 0.75 0.63 0.55 0.53 0.51 0.52 0.57 0.62 0.62 0.61 0.67 0.69 0.69 0.80 0.99 1.12 1.13 1.15 1.20 1.25 1.36 1.48 1.61 1.70 1.63 1.44 1.47 1.41 1.28 1.16
1.01 1.11 1.19 1.29 1.22 1.17 1.20 1.18 1.11 1.03 0.93 0.88 0.77 0.73 0.68 0.60 0.52 0.51 0.54 0.60 0.65 0.68 0.68 0.67 0.66 0.67 0.72 0.83 1.00 1.16 1.12 1.08 1.11 1.14 1.21 1.24 1.29 1.39 1.42 1.28 1.09 1.00 0.87 0.74
1.04 1.15 1.32 1.40 1.26 1.13 1.18 1.08 1.01 1.04 1.00 0.91 0.78 0.68 0.60 0.57 0.55 0.57 0.63 0.69 0.72 0.73 0.72 0.72 0.70 0.67 0.70 0.80 0.97 1.22 1.31 1.23 1.13 1.10 1.11 1.11 1.14 1.19 1.27 1.31 1.20 1.00 0.77 0.58
1.11 1.13 1.23 1.24 1.18 1.11 1.12 1.12 1.01 0.95 0.87 0.85 0.82 0.70 0.61 0.57 0.57 0.59 0.63 0.72 0.79 0.78 0.74 0.70 0.67 0.64 0.65 0.70 0.81 0.99 1.20 1.21 1.11 1.06 1.06 1.08 1.09 1.14 1.21 1.23 1.28 1.23 0.98 0.70
1.17 1.15 1.19 1.18 1.14 1.06 1.00 1.11 1.13 0.97 0.79 0.76 0.76 0.67 0.64 0.61 0.60 0.59 0.65 0.80 0.97 0.98 0.85 0.78 0.74 0.69 0.68 0.72 0.75 0.83 0.93 0.92 0.84 0.87 0.90 0.96 1.01 1.04 1.08 1.15 1.20 1.20 1.08 0.82
1.08 1.09 1.13 1.18 1.12 1.01 0.94 0.99 1.00 0.89 0.72 0.65 0.72 0.71 0.67 0.70 0.72 0.74 0.80 0.87 0.95 0.97 0.90 0.86 0.79 0.68 0.64 0.67 0.73 0.73 0.76 0.70 0.61 0.67 0.79 0.84 0.89 0.93 0.94 0.99 1.05 1.06 0.97 0.68
0.90 0.93 0.88 0.87 0.91 0.92 0.89 0.87 0.82 0.73 0.66 0.62 0.68 0.75 0.73 0.80 0.92 1.00 1.01 1.01 0.95 0.82 0.76 0.76 0.68 0.62 0.59 0.59 0.65 0.69 0.76 0.74 0.58 0.59 0.72 0.77 0.79 0.88 0.90 0.91 0.94 0.96 0.86 0.61
0.82 0.85 0.74 0.66 0.66 0.72 0.74 0.75 0.71 0.66 0.62 0.63 0.70 0.79 0.78 0.81 0.91 1.00 1.00 1.08 1.12 1.01 0.81 0.68 0.59 0.49 0.48 0.45 0.45 0.54 0.68 0.74 0.62 0.56 0.63 0.63 0.69 0.87 0.91 0.89 0.90 0.90 0.77 0.66
0.72 0.75 0.71 0.62 0.58 0.63 0.65 0.65 0.65 0.65 0.64 0.68 0.74 0.76 0.79 0.84 0.89 0.97 0.96 1.01 1.09 1.06 0.88 0.67 0.48 0.38 0.34 0.33 0.36 0.43 0.54 0.63 0.57 0.49 0.52 0.60 0.71 0.83 0.89 0.86 0.88 0.90 0.79 0.69
0.63 0.65 0.63 0.56 0.58 0.61 0.64 0.60 0.57 0.63 0.65 0.66 0.73 0.78 0.82 0.81 0.81 0.89 1.04 1.09 0.99 0.95 0.90 0.79 0.56 0.39 0.31 0.32 0.34 0.41 0.53 0.60 0.53 0.43 0.43 0.51 0.66 0.77 0.83 0.84 0.85 0.84 0.75 0.68
0.56 0.57 0.54 0.53 0.56 0.61 0.63 0.60 0.54 0.52 0.55 0.64 0.69 0.72 0.80 0.78 0.78 0.78 0.81 0.94 0.94 0.98 0.88 0.79 0.66 0.50 0.37 0.30 0.29 0.35 0.47 0.54 0.50 0.40 0.37 0.44 0.58 0.69 0.75 0.80 0.82 0.79 0.75 0.73
0.59 0.53 0.52 0.54 0.51 0.51 0.53 0.53 0.50 0.49 0.61 0.77 0.79 0.79 0.82 0.76 0.78 0.88 0.82 0.68 0.70 0.82 0.72 0.65 0.64 0.53 0.39 0.31 0.28 0.33 0.45 0.53 0.52 0.41 0.36 0.43 0.51 0.56 0.64 0.69 0.70 0.74 0.77 0.72
0.68 0.56 0.54 0.55 0.51 0.50 0.54 0.51 0.47 0.49 0.62 0.75 0.74 0.74 0.75 0.73 0.72 0.70 0.68 0.65 0.66 0.71 0.61 0.57 0.53 0.48 0.44 0.40 0.41 0.43 0.48 0.52 0.49 0.39 0.35 0.39 0.43 0.47 0.55 0.64 0.71 0.77 0.73 0.66
0.65 0.59 0.56 0.55 0.54 0.51 0.55 0.52 0.50 0.49 0.58 0.70 0.67 0.67 0.65 0.64 0.72 0.71 0.64 0.60 0.63 0.64 0.59 0.57 0.51 0.47 0.44 0.51 0.57 0.55 0.51 0.48 0.45 0.39 0.37 0.38 0.41 0.45 0.53 0.66 0.76 0.77 0.69 0.66
0.64 0.64 0.62 0.59 0.52 0.45 0.45 0.48 0.51 0.50 0.60 0.80 0.76 0.65 0.61 0.58 0.61 0.66 0.71 0.67 0.64 0.65 0.61 0.56 0.50 0.48 0.47 0.57 0.63 0.59 0.51 0.47 0.45 0.43 0.41 0.42 0.47 0.53 0.61 0.70 0.72 0.63 0.56 0.53
0.60 0.57 0.55 0.53 0.52 0.48 0.46 0.47 0.49 0.53 0.63 0.84 0.85 0.66 0.58 0.58 0.60 0.65 0.71 0.73 0.68 0.64 0.60 0.53 0.47 0.44 0.45 0.50 0.52 0.50 0.48 0.47 0.48 0.48 0.45 0.46 0.48 0.53 0.55 0.60 0.60 0.52 0.48 0.44

GEFSNGP_prec_meanprecacc_192.txt.gz
Total_Precipitation_Accumulation
0.05 0.10 0.16 0.19 0.15 0.13 0.10 0.10 0.12 0.14 0.24 0.32 0.41 0.40 0.34 0.33 0.36 0.31 0.33 0.30 0.30 0.34 0.26 0.25 0.25 0.26 0.27 0.30 0.34 0.36 0.43 0.51 0.57 0.66 0.72 0.80 0.95 1.04 1.14 1.20 1.13 1.17 1.27 1.29
0.06 0.10 0.12 0.13 0.16 0.12 0.08 0.07 0.08 0.11 0.22 0.33 0.36 0.42 0.39 0.34 0.32 0.36 0.41 0.34 0.35 0.40 0.37 0.35 0.36 0.34 0.29 0.35 0.44 0.51 0.59 0.63 0.66 0.74 0.82 0.85 0.92 0.96 1.12 1.19 1.25 1.33 1.40 1.42
0.15 0.15 0.15 0.16 0.15 0.11 0.09 0.10 0.11 0.13 0.19 0.30 0.40 0.45 0.46 0.46 0.41 0.43 0.52 0.51 0.59 0.66 0.59 0.50 0.45 0.42 0.42 0.49 0.57 0.64 0.73 0.84 0.90 0.95 1.04 1.07 1.09 1.08 1.13 1.27 1.37 1.39 1.40 1.42
0.21 0.24 0.28 0.18 0.14 0.13 0.11 0.13 0.14 0.19 0.26 0.34 0.47 0.51 0.55 0.63 0.61 0.55 0.52 0.56 0.65 0.70 0.71 0.67 0.63 0.59 0.63 0.69 0.78 0.91 1.00 1.11 1.23 1.30 1.36 1.43 1.49 1.46 1.47 1.51 1.60 1.59 1.50 1.51
0.32 0.38 0.32 0.24 0.21 0.20 0.22 0.28 0.28 0.36 0.51 0.60 0.60 0.70 0.81 0.73 0.65 0.62 0.62 0.62 0.75 0.74 0.73 0.74 0.84 0.85 0.83 0.87 0.95 1.14 1.31 1.42 1.52 1.59 1.63 1.65 1.65 1.71 1.77 1.86 1.87 1.86 1.82 1.85
0.39 0.44 0.45 0.41 0.36 0.35 0.43 0.72 0.60 0.64 0.66 0.63 0.63 0.84 0.85 0.64 0.58 0.59 0.61 0.70 0.79 0.84 0.83 0.88 1.03 1.06 1.07 1.16 1.25 1.31 1.37 1.47 1.65 1.79 1.86 1.83 1.85 1.95 2.09 2.21 2.17 2.16 2.18 2.19
0.47 0.49 0.45 0.45 0.43 0.49 0.84 1.13 0.92 0.86 0.81 0.79 0.88 0.89 0.87 0.73 0.62 0.61 0.62 0.69 0.78 0.83 0.88 0.92 1.06 1.16 1.32 1.47 1.53 1.55 1.58 1.64 1.72 1.83 1.94 1.95 2.00 2.04 2.15 2.26 2.26 2.21 2.13 2.05
0.69 0.78 0.79 0.53 0.56 0.84 1.07 0.90 0.92 1.04 1.08 1.06 1.01 0.87 0.75 0.67 0.62 0.58 0.58 0.60 0.68 0.83 0.92 0.99 1.11 1.33 1.50 1.63 1.75 1.83 1.84 1.92 1.91 1.95 1.91 1.85 1.98 2.08 2.17 2.27 2.23 2.18 2.18 2.06
0.92 1.00 0.89 0.69 0.77 0.78 0.77 0.88 0.93 0.98 1.10 1.13 1.06 1.06 0.91 0.82 0.78 0.69 0.63 0.63 0.68 0.79 0.90 0.98 1.06 1.26 1.57 1.61 1.63 1.68 1.75 1.79 1.86 1.88 1.90 1.91 1.98 2.07 2.19 2.21 2.18 2.11 2.11 2.10
1.05 1.06 0.96 0.88 0.89 0.88 0.86 0.92 0.92 0.96 0.99 1.02 1.00 1.09 1.06 0.91 0.77 0.70 0.65 0.63 0.66 0.74 0.85 0.92 0.88 0.97 1.12 1.25 1.33 1.37 1.42 1.47 1.50 1.60 1.69 1.84 2.01 2.04 2.11 2.18 2.20 2.19 2.15 2.10
1.23 1.32 1.32 1.21 1.13 1.10 1.01 1.08 1.13 1.06 1.04 1.07 0.95 0.97 0.99 0.84 0.71 0.62 0.58 0.55 0.59 0.70 0.73 0.76 0.82 0.80 0.83 0.90 1.08 1.19 1.22 1.26 1.35 1.48 1.59 1.76 1.96 2.06 1.99 2.00 2.13 2.07 1.96 1.87
1.26 1.27 1.42 1.45 1.26 1.15 1.05 1.09 1.13 1.09 1.02 0.96 0.88 0.85 0.76 0.65 0.57 0.55 0.53 0.55 0.60 0.66 0.65 0.64 0.71 0.72 0.73 0.83 1.01 1.14 1.14 1.17 1.21 1.26 1.37 1.48 1.62 1.70 1.64 1.45 1.48 1.42 1.29 1.17
1.05 1.15 1.24 1.34 1.24 1.18 1.21 1.19 1.12 1.04 0.94 0.88 0.78 0.74 0.69 0.62 0.54 0.53 0.56 0.61 0.67 0.70 0.70 0.69 0.67 0.69 0.75 0.85 1.02 1.18 1.14 1.10 1.12 1.14 1.22 1.25 1.30 1.39 1.43 1.29 1.10 1.01 0.88 0.74
1.06 1.16 1.34 1.43 1.29 1.15 1.19 1.09 1.01 1.05 1.00 0.91 0.78 0.69 0.60 0.58 0.56 0.57 0.65 0.71 0.74 0.75 0.74 0.74 0.73 0.70 0.72 0.82 0.98 1.23 1.32 1.24 1.14 1.11 1.12 1.12 1.14 1.20 1.27 1.31 1.21 1.01 0.78 0.59
1.12 1.14 1.24 1.26 1.20 1.13 1.13 1.13 1.02 0.96 0.88 0.86 0.83 0.70 0.61 0.58 0.58 0.60 0.64 0.73 0.81 0.79 0.76 0.73 0.71 0.68 0.69 0.72 0.83 1.01 1.21 1.22 1.13 1.07 1.08 1.10 1.11 1.16 1.22 1.25 1.29 1.24 1.00 0.71
1.20 1.17 1.21 1.21 1.18 1.10 1.02 1.13 1.15 0.98 0.80 0.77 0.76 0.67 0.64 0.62 0.60 0.60 0.66 0.81 0.99 1.00 0.87 0.80 0.77 0.71 0.70 0.74 0.77 0.85 0.95 0.94 0.86 0.89 0.91 0.97 1.02 1.05 1.09 1.16 1.20 1.21 1.09 0.83
1.12 1.13 1.18 1.23 1.17 1.06 0.98 1.02 1.03 0.91 0.73 0.66 0.72 0.72 0.67 0.70 0.73 0.75 0.81 0.88 0.97 0.99 0.92 0.88 0.81 0.71 0.66 0.69 0.74 0.75 0.78 0.73 0.63 0.69 0.81 0.85 0.90 0.94 0.96 1.00 1.05 1.07 0.97 0.68
0.91 0.96 0.92 0.92 0.97 0.99 0.95 0.91 0.85 0.76 0.67 0.63 0.69 0.75 0.73 0.80 0.92 1.00 1.02 1.02 0.97 0.85 0.79 0.78 0.70 0.64 0.61 0.61 0.67 0.72 0.78 0.76 0.60 0.62 0.75 0.79 0.80 0.89 0.91 0.92 0.94 0.96 0.87 0.62
0.83 0.87 0.77 0.70 0.71 0.77 0.80 0.80 0.74 0.69 0.64 0.64 0.71 0.79 0.79 0.82 0.92 1.01 1.01 1.09 1.14 1.02 0.83 0.69 0.60 0.51 0.50 0.48 0.48 0.57 0.70 0.77 0.65 0.58 0.65 0.64 0.70 0.88 0.92 0.90 0.91 0.91 0.78 0.67
0.72 0.76 0.73 0.64 0.61 0.67 0.69 0.69 0.68 0.67 0.66 0.69 0.75 0.77 0.80 0.84 0.90 0.97 0.98 1.03 1.11 1.09 0.91 0.69 0.50 0.39 0.35 0.35 0.39 0.46 0.56 0.65 0.58 0.50 0.54 0.62 0.72 0.85 0.90 0.88 0.89 0.91 0.81 0.71
0.64 0.66 0.65 0.59 0.60 0.63 0.66 0.62 0.59 0.65 0.66 0.67 0.75 0.79 0.83 0.82 0.82 0.90 1.05 1.11 1.02 0.98 0.92 0.81 0.57 0.40 0.32 0.33 0.36 0.43 0.55 0.63 0.56 0.46 0.46 0.55 0.69 0.80 0.86 0.86 0.87 0.85 0.77 0.70
0.58 0.58 0.56 0.54 0.58 0.63 0.65 0.62 0.56 0.54 0.57 0.66 0.71 0.74 0.83 0.80 0.79 0.80 0.82 0.96 0.96 1.00 0.90 0.80 0.67 0.51 0.38 0.31 0.29 0.36 0.49 0.56 0.53 0.43 0.40 0.47 0.61 0.71 0.78 0.83 0.84 0.82 0.77 0.75
0.62 0.56 0.54 0.56 0.54 0.54 0.56 0.55 0.52 0.52 0.63 0.79 0.81 0.82 0.85 0.79 0.80 0.89 0.84 0.70 0.72 0.83 0.74 0.66 0.65 0.55 0.41 0.32 0.29 0.35 0.47 0.55 0.55 0.44 0.39 0.46 0.54 0.59 0.66 0.70 0.72 0.76 0.79 0.75
0.73 0.59 0.58 0.58 0.54 0.54 0.58 0.56 0.51 0.53 0.64 0.77 0.76 0.77 0.79 0.76 0.75 0.72 0.70 0.67 0.68 0.72 0.63 0.58 0.55 0.50 0.45 0.41 0.43 0.46 0.50 0.54 0.51 0.40 0.37 0.40 0.44 0.47 0.56 0.65 0.72 0.78 0.75 0.67
0.72 0.64 0.60 0.60 0.59 0.57 0.59 0.56 0.53 0.53 0.61 0.73 0.70 0.69 0.68 0.67 0.74 0.73 0.67 0.63 0.65 0.66 0.60 0.58 0.52 0.47 0.45 0.53 0.58 0.56 0.52 0.49 0.47 0.40 0.38 0.39 0.42 0.45 0.53 0.66 0.77 0.78 0.71 0.68
0.70 0.70 0.68 0.65 0.57 0.51 0.50 0.52 0.54 0.53 0.63 0.84 0.78 0.67 0.63 0.60 0.62 0.68 0.73 0.69 0.65 0.67 0.62 0.57 0.51 0.49 0.48 0.57 0.64 0.60 0.52 0.48 0.46 0.44 0.43 0.44 0.48 0.53 0.62 0.71 0.73 0.65 0.58 0.55
0.66 0.63 0.60 0.58 0.56 0.53 0.52 0.53 0.53 0.55 0.66 0.87 0.87 0.68 0.60 0.60 0.62 0.67 0.74 0.75 0.69 0.65 0.61 0.54 0.48 0.45 0.46 0.51 0.53 0.51 0.49 0.48 0.49 0.48 0.46 0.47 0.48 0.53 0.56 0.61 0.60 0.53 0.49 0.46

GEFSNGP_prec_meanprecacc_198.txt.gz
Total_Precipitation_Accumulation
0.05 0.10 0.16 0.19 0.15 0.13 0.10 0.10 0.12 0.15 0.24 0.32 0.41 0.42 0.36 0.35 0.39 0.38 0.40 0.36 0.33 0.36 0.28 0.26 0.26 0.27 0.28 0.31 0.35 0.37 0.43 0.51 0.58 0.67 0.73 0.83 0.98 1.07 1.18 1.23 1.17 1.20 1.30 1.32
0.06 0.10 0.12 0.13 0.16 0.12 0.08 0.07 0.08 0.11 0.22 0.35 0.38 0.43 0.42 0.36 0.34 0.38 0.44 0.43 0.46 0.46 0.40 0.38 0.38 0.36 0.31 0.37 0.45 0.52 0.60 0.64 0.68 0.75 0.85 0.89 0.96 1.01 1.15 1.23 1.28 1.37 1.43 1.45
0.15 0.15 0.15 0.16 0.15 0.11 0.09 0.10 0.11 0.13 0.20 0.32 0.41 0.47 0.50 0.50 0.44 0.45 0.56 0.58 0.66 0.70 0.62 0.54 0.48 0.44 0.45 0.52 0.58 0.65 0.74 0.86 0.92 0.97 1.07 1.09 1.12 1.12 1.16 1.30 1.40 1.43 1.43 1.45
0.21 0.24 0.28 0.18 0.14 0.13 0.12 0.13 0.16 0.23 0.28 0.36 0.49 0.53 0.58 0.68 0.65 0.58 0.55 0.59 0.69 0.76 0.75 0.69 0.65 0.63 0.70 0.74 0.80 0.92 1.02 1.14 1.25 1.31 1.38 1.45 1.51 1.48 1.49 1.53 1.62 1.61 1.53 1.54
0.32 0.38 0.32 0.24 0.21 0.20 0.22 0.29 0.30 0.37 0.53 0.62 0.61 0.72 0.83 0.76 0.66 0.64 0.64 0.66 0.82 0.82 0.78 0.79 0.90 0.92 0.91 0.93 0.99 1.16 1.34 1.45 1.56 1.62 1.65 1.67 1.67 1.72 1.78 1.87 1.88 1.88 1.83 1.87
0.39 0.44 0.45 0.41 0.37 0.35 0.43 0.75 0.63 0.65 0.67 0.64 0.64 0.87 0.91 0.68 0.60 0.61 0.64 0.75 0.87 0.92 0.91 0.98 1.20 1.23 1.23 1.26 1.32 1.37 1.41 1.52 1.69 1.82 1.89 1.85 1.86 1.97 2.10 2.22 2.19 2.18 2.20 2.20
0.47 0.49 0.45 0.45 0.43 0.49 0.85 1.19 0.98 0.88 0.83 0.81 0.89 0.90 0.89 0.76 0.64 0.62 0.64 0.72 0.82 0.86 0.92 0.98 1.14 1.26 1.48 1.60 1.62 1.63 1.66 1.69 1.76 1.86 1.97 1.97 2.02 2.07 2.17 2.28 2.28 2.23 2.14 2.07
0.70 0.79 0.80 0.53 0.56 0.85 1.09 0.95 0.98 1.07 1.11 1.08 1.03 0.88 0.77 0.69 0.67 0.62 0.59 0.62 0.71 0.87 0.97 1.06 1.21 1.42 1.60 1.73 1.85 1.93 1.92 1.98 1.96 1.99 1.95 1.89 2.03 2.13 2.21 2.32 2.25 2.19 2.20 2.07
0.94 1.03 0.92 0.70 0.77 0.79 0.78 0.92 0.99 1.03 1.13 1.17 1.10 1.10 0.94 0.85 0.82 0.75 0.69 0.67 0.71 0.82 0.96 1.04 1.13 1.33 1.64 1.69 1.71 1.76 1.82 1.86 1.92 1.92 1.94 1.95 2.03 2.11 2.23 2.25 2.20 2.13 2.13 2.11
1.09 1.11 0.99 0.91 0.92 0.91 0.89 0.95 0.96 1.00 1.03 1.06 1.05 1.13 1.09 0.94 0.80 0.73 0.70 0.71 0.76 0.83 0.93 1.00 0.95 1.04 1.21 1.34 1.42 1.45 1.49 1.52 1.54 1.63 1.71 1.86 2.04 2.07 2.14 2.21 2.23 2.21 2.16 2.11
1.30 1.40 1.37 1.26 1.17 1.13 1.04 1.11 1.16 1.09 1.07 1.11 0.99 1.01 1.02 0.87 0.73 0.64 0.61 0.59 0.66 0.81 0.81 0.83 0.89 0.89 0.93 0.99 1.15 1.26 1.30 1.33 1.40 1.51 1.62 1.78 1.97 2.08 2.00 2.01 2.14 2.08 1.97 1.88
1.33 1.36 1.50 1.51 1.31 1.19 1.09 1.13 1.17 1.12 1.04 0.99 0.91 0.90 0.81 0.69 0.60 0.58 0.56 0.57 0.62 0.69 0.68 0.67 0.74 0.75 0.77 0.89 1.08 1.20 1.21 1.22 1.25 1.28 1.38 1.49 1.63 1.71 1.65 1.46 1.50 1.43 1.30 1.18
1.13 1.23 1.34 1.45 1.34 1.26 1.28 1.26 1.18 1.10 0.99 0.93 0.83 0.78 0.72 0.64 0.56 0.54 0.58 0.64 0.70 0.73 0.72 0.71 0.69 0.70 0.76 0.87 1.04 1.21 1.17 1.12 1.13 1.15 1.22 1.26 1.31 1.40 1.44 1.30 1.11 1.02 0.89 0.75
1.22 1.32 1.51 1.62 1.46 1.29 1.31 1.20 1.12 1.16 1.08 0.97 0.82 0.72 0.63 0.60 0.58 0.59 0.66 0.73 0.77 0.77 0.76 0.76 0.75 0.72 0.76 0.86 1.03 1.29 1.37 1.28 1.16 1.13 1.14 1.14 1.17 1.22 1.29 1.33 1.23 1.02 0.79 0.60
1.31 1.31 1.40 1.41 1.35 1.26 1.26 1.25 1.15 1.09 0.95 0.89 0.85 0.73 0.63 0.60 0.60 0.62 0.66 0.75 0.83 0.81 0.78 0.75 0.73 0.71 0.74 0.79 0.88 1.06 1.27 1.27 1.18 1.12 1.13 1.14 1.15 1.19 1.26 1.28 1.32 1.26 1.01 0.71
1.34 1.30 1.36 1.36 1.30 1.21 1.14 1.24 1.25 1.08 0.87 0.81 0.79 0.69 0.66 0.64 0.63 0.62 0.67 0.82 1.00 1.01 0.88 0.81 0.78 0.73 0.73 0.77 0.81 0.90 1.00 0.99 0.92 0.94 0.97 1.02 1.06 1.09 1.12 1.18 1.22 1.22 1.10 0.84
1.19 1.23 1.31 1.38 1.30 1.14 1.07 1.14 1.13 0.99 0.80 0.71 0.77 0.75 0.70 0.72 0.74 0.77 0.82 0.90 0.98 1.00 0.93 0.89 0.82 0.72 0.68 0.71 0.78 0.79 0.83 0.77 0.67 0.74 0.85 0.90 0.95 0.98 0.98 1.02 1.07 1.08 0.99 0.69
0.96 1.02 0.99 1.02 1.05 1.04 1.00 0.98 0.94 0.86 0.77 0.70 0.74 0.79 0.76 0.83 0.93 1.01 1.03 1.03 0.98 0.85 0.80 0.79 0.70 0.65 0.62 0.62 0.69 0.75 0.82 0.79 0.64 0.65 0.78 0.82 0.83 0.92 0.93 0.93 0.96 0.97 0.88 0.64
0.88 0.91 0.82 0.76 0.76 0.81 0.84 0.85 0.79 0.76 0.72 0.72 0.78 0.84 0.82 0.84 0.94 1.02 1.03 1.10 1.15 1.03 0.83 0.69 0.61 0.51 0.51 0.49 0.50 0.60 0.73 0.79 0.67 0.60 0.68 0.67 0.73 0.91 0.94 0.91 0.93 0.93 0.80 0.69
0.76 0.79 0.76 0.69 0.65 0.71 0.74 0.75 0.74 0.73 0.72 0.75 0.82 0.81 0.83 0.87 0.92 0.99 0.99 1.04 1.12 1.10 0.92 0.70 0.50 0.40 0.36 0.36 0.41 0.47 0.58 0.67 0.61 0.54 0.58 0.67 0.77 0.89 0.94 0.91 0.92 0.93 0.83 0.73
0.68 0.70 0.70 0.65 0.65 0.68 0.70 0.66 0.64 0.70 0.72 0.73 0.79 0.82 0.86 0.84 0.83 0.91 1.06 1.12 1.03 1.00 0.94 0.82 0.59 0.42 0.33 0.34 0.37 0.43 0.56 0.64 0.57 0.48 0.49 0.58 0.72 0.83 0.88 0.88 0.89 0.87 0.79 0.72
0.63 0.63 0.61 0.60 0.64 0.68 0.69 0.65 0.60 0.59 0.61 0.72 0.76 0.78 0.86 0.83 0.82 0.82 0.84 0.97 0.97 1.01 0.90 0.81 0.68 0.52 0.39 0.32 0.30 0.37 0.49 0.56 0.54 0.45 0.42 0.50 0.64 0.74 0.82 0.86 0.89 0.86 0.81 0.78
0.69 0.61 0.58 0.60 0.59 0.59 0.59 0.59 0.55 0.55 0.67 0.83 0.85 0.85 0.89 0.83 0.83 0.93 0.87 0.72 0.73 0.84 0.74 0.67 0.67 0.57 0.43 0.35 0.31 0.36 0.48 0.56 0.56 0.45 0.42 0.49 0.57 0.61 0.69 0.73 0.74 0.77 0.81 0.76
0.78 0.64 0.61 0.61 0.58 0.58 0.63 0.60 0.55 0.57 0.69 0.81 0.80 0.81 0.84 0.83 0.81 0.77 0.74 0.70 0.69 0.73 0.64 0.60 0.56 0.51 0.46 0.43 0.44 0.46 0.51 0.55 0.52 0.41 0.38 0.42 0.46 0.49 0.57 0.66 0.73 0.79 0.76 0.68
0.79 0.70 0.65 0.64 0.63 0.62 0.65 0.62 0.59 0.58 0.66 0.78 0.75 0.74 0.72 0.71 0.80 0.78 0.71 0.66 0.68 0.68 0.62 0.60 0.53 0.48 0.47 0.54 0.59 0.57 0.53 0.50 0.47 0.41 0.39 0.40 0.43 0.46 0.54 0.67 0.78 0.79 0.72 0.68
0.79 0.78 0.74 0.70 0.61 0.54 0.53 0.56 0.59 0.58 0.69 0.89 0.84 0.72 0.67 0.63 0.66 0.71 0.76 0.71 0.68 0.70 0.64 0.59 0.52 0.51 0.49 0.58 0.65 0.61 0.53 0.49 0.47 0.45 0.43 0.45 0.49 0.55 0.63 0.73 0.74 0.66 0.59 0.56
0.75 0.71 0.67 0.64 0.60 0.56 0.56 0.56 0.56 0.59 0.69 0.91 0.94 0.74 0.64 0.63 0.65 0.70 0.76 0.77 0.72 0.68 0.63 0.56 0.50 0.47 0.48 0.53 0.55 0.53 0.51 0.50 0.51 0.50 0.48 0.48 0.49 0.54 0.57 0.62 0.61 0.53 0.50 0.46

GEFSNGP_prec_meanprecacc_204.txt.gz
Total_Precipitation_Accumulation
0.05 0.10 0.16 0.19 0.15 0.13 0.10 0.10 0.12 0.15 0.24 0.32 0.41 0.42 0.36 0.36 0.40 0.39 0.41 0.36 0.33 0.37 0.30 0.29 0.31 0.30 0.32 0.36 0.41 0.40 0.45 0.53 0.59 0.68 0.75 0.84 1.00 1.12 1.23 1.29 1.20 1.23 1.33 1.34
0.06 0.10 0.12 0.13 0.16 0.12 0.08 0.07 0.08 0.11 0.22 0.35 0.38 0.43 0.42 0.36 0.35 0.39 0.45 0.43 0.47 0.47 0.43 0.45 0.43 0.39 0.39 0.46 0.49 0.54 0.62 0.66 0.69 0.77 0.86 0.90 0.98 1.04 1.19 1.26 1.31 1.39 1.46 1.47
0.15 0.15 0.15 0.16 0.15 0.11 0.09 0.10 0.11 0.13 0.20 0.32 0.41 0.47 0.51 0.50 0.44 0.45 0.57 0.59 0.67 0.71 0.66 0.61 0.53 0.47 0.48 0.54 0.61 0.68 0.77 0.89 0.95 1.00 1.11 1.13 1.15 1.14 1.18 1.32 1.41 1.44 1.45 1.46
0.21 0.24 0.28 0.18 0.14 0.13 0.12 0.13 0.16 0.23 0.28 0.37 0.49 0.53 0.58 0.68 0.65 0.58 0.56 0.60 0.70 0.78 0.80 0.73 0.68 0.66 0.73 0.78 0.84 0.96 1.06 1.19 1.32 1.38 1.45 1.50 1.55 1.51 1.51 1.55 1.63 1.62 1.54 1.55
0.32 0.38 0.32 0.25 0.22 0.20 0.22 0.29 0.30 0.37 0.53 0.62 0.61 0.72 0.84 0.76 0.67 0.64 0.65 0.67 0.83 0.83 0.82 0.81 0.92 0.94 0.95 0.99 1.06 1.22 1.40 1.52 1.63 1.68 1.72 1.73 1.71 1.75 1.80 1.89 1.90 1.90 1.86 1.90
0.39 0.44 0.45 0.41 0.37 0.35 0.43 0.75 0.63 0.65 0.67 0.64 0.64 0.87 0.92 0.69 0.60 0.62 0.65 0.76 0.88 0.94 0.93 1.00 1.22 1.25 1.26 1.30 1.38 1.44 1.49 1.60 1.77 1.88 1.94 1.89 1.88 1.99 2.13 2.25 2.21 2.21 2.23 2.23
0.47 0.49 0.45 0.45 0.43 0.49 0.85 1.20 0.98 0.88 0.83 0.81 0.89 0.90 0.90 0.76 0.65 0.63 0.65 0.73 0.83 0.88 0.94 1.00 1.16 1.29 1.52 1.66 1.70 1.74 1.76 1.77 1.82 1.90 2.01 2.01 2.06 2.09 2.21 2.32 2.31 2.27 2.19 2.11
0.70 0.79 0.80 0.53 0.57 0.85 1.09 0.96 0.99 1.08 1.11 1.09 1.04 0.90 0.78 0.70 0.68 0.63 0.60 0.63 0.73 0.89 0.99 1.09 1.25 1.47 1.65 1.79 1.91 1.99 1.97 2.03 2.01 2.03 1.98 1.93 2.06 2.17 2.26 2.37 2.32 2.26 2.26 2.13
0.94 1.03 0.92 0.71 0.78 0.79 0.79 0.92 1.00 1.04 1.15 1.19 1.13 1.12 0.96 0.87 0.84 0.77 0.71 0.69 0.73 0.85 0.99 1.09 1.19 1.40 1.71 1.76 1.78 1.81 1.86 1.89 1.94 1.95 1.97 1.99 2.06 2.15 2.26 2.29 2.26 2.19 2.20 2.19
1.10 1.12 1.00 0.93 0.93 0.92 0.90 0.97 0.97 1.01 1.06 1.09 1.08 1.16 1.11 0.96 0.82 0.75 0.72 0.73 0.79 0.86 0.97 1.04 1.01 1.11 1.28 1.41 1.48 1.51 1.53 1.56 1.56 1.66 1.74 1.89 2.07 2.09 2.16 2.23 2.26 2.26 2.21 2.15
1.31 1.42 1.40 1.28 1.20 1.15 1.06 1.14 1.18 1.11 1.10 1.14 1.02 1.04 1.05 0.89 0.75 0.66 0.63 0.62 0.69 0.84 0.85 0.89 0.96 0.96 0.99 1.04 1.19 1.29 1.32 1.35 1.41 1.53 1.63 1.80 1.99 2.10 2.02 2.03 2.17 2.10 1.99 1.89
1.34 1.38 1.52 1.54 1.34 1.23 1.13 1.18 1.20 1.15 1.07 1.02 0.94 0.92 0.84 0.72 0.62 0.60 0.59 0.61 0.66 0.72 0.72 0.71 0.79 0.80 0.81 0.92 1.10 1.21 1.22 1.23 1.25 1.28 1.39 1.50 1.64 1.73 1.67 1.48 1.52 1.45 1.32 1.20
1.16 1.26 1.39 1.50 1.38 1.30 1.31 1.30 1.23 1.15 1.05 0.99 0.88 0.83 0.77 0.68 0.60 0.59 0.63 0.68 0.74 0.78 0.77 0.76 0.74 0.75 0.80 0.90 1.06 1.22 1.19 1.15 1.16 1.17 1.24 1.27 1.32 1.42 1.46 1.33 1.15 1.06 0.92 0.79
1.27 1.40 1.63 1.73 1.53 1.37 1.39 1.28 1.21 1.25 1.21 1.09 0.91 0.79 0.69 0.68 0.65 0.66 0.74 0.82 0.86 0.86 0.84 0.82 0.80 0.77 0.79 0.90 1.06 1.31 1.39 1.32 1.21 1.17 1.18 1.18 1.21 1.27 1.36 1.40 1.29 1.07 0.83 0.63
1.41 1.47 1.55 1.53 1.44 1.37 1.37 1.36 1.29 1.24 1.13 1.07 0.98 0.82 0.71 0.66 0.67 0.70 0.75 0.84 0.93 0.92 0.88 0.82 0.78 0.76 0.78 0.83 0.92 1.08 1.29 1.31 1.21 1.16 1.18 1.21 1.22 1.29 1.37 1.38 1.41 1.32 1.05 0.74
1.43 1.42 1.48 1.45 1.39 1.31 1.24 1.32 1.33 1.16 0.98 0.95 0.93 0.81 0.76 0.71 0.68 0.67 0.73 0.89 1.07 1.08 0.95 0.86 0.82 0.77 0.78 0.82 0.84 0.92 1.02 1.01 0.95 0.98 1.02 1.08 1.14 1.18 1.23 1.29 1.32 1.28 1.13 0.86
1.27 1.32 1.41 1.47 1.38 1.26 1.19 1.25 1.22 1.05 0.85 0.77 0.85 0.84 0.79 0.80 0.82 0.85 0.90 0.97 1.06 1.08 1.01 0.95 0.87 0.77 0.72 0.74 0.80 0.81 0.85 0.79 0.71 0.77 0.88 0.94 1.01 1.06 1.07 1.09 1.12 1.11 1.01 0.71
1.01 1.07 1.06 1.08 1.14 1.16 1.11 1.08 1.05 0.97 0.85 0.77 0.80 0.84 0.82 0.89 1.00 1.09 1.12 1.11 1.05 0.94 0.89 0.87 0.77 0.69 0.65 0.65 0.71 0.76 0.84 0.81 0.66 0.67 0.81 0.85 0.86 0.95 0.95 0.96 0.98 1.00 0.90 0.65
0.93 0.96 0.87 0.83 0.85 0.90 0.94 0.93 0.86 0.82 0.78 0.79 0.84 0.89 0.86 0.90 0.99 1.07 1.07 1.15 1.20 1.09 0.89 0.73 0.65 0.54 0.53 0.51 0.52 0.62 0.75 0.81 0.69 0.62 0.70 0.70 0.76 0.94 0.97 0.95 0.97 0.97 0.83 0.72
0.85 0.86 0.83 0.76 0.73 0.78 0.80 0.82 0.79 0.78 0.76 0.79 0.86 0.86 0.87 0.91 0.97 1.04 1.03 1.08 1.15 1.13 0.94 0.72 0.53 0.42 0.38 0.38 0.42 0.48 0.59 0.69 0.62 0.55 0.60 0.69 0.80 0.93 1.00 0.98 0.99 1.00 0.88 0.77
0.76 0.78 0.78 0.74 0.73 0.76 0.76 0.71 0.69 0.75 0.76 0.77 0.83 0.87 0.90 0.88 0.87 0.95 1.10 1.14 1.05 1.02 0.96 0.85 0.61 0.44 0.34 0.35 0.38 0.44 0.57 0.65 0.58 0.49 0.50 0.59 0.75 0.87 0.94 0.94 0.93 0.90 0.82 0.74
0.74 0.73 0.69 0.69 0.73 0.76 0.76 0.70 0.64 0.62 0.64 0.74 0.78 0.81 0.90 0.87 0.85 0.86 0.87 1.00 0.99 1.03 0.93 0.83 0.70 0.55 0.42 0.34 0.32 0.38 0.50 0.57 0.54 0.45 0.43 0.50 0.64 0.76 0.84 0.88 0.90 0.87 0.82 0.79
0.78 0.69 0.64 0.66 0.66 0.68 0.67 0.64 0.60 0.59 0.69 0.85 0.87 0.88 0.92 0.86 0.87 0.96 0.90 0.75 0.76 0.88 0.77 0.70 0.70 0.60 0.45 0.36 0.33 0.38 0.50 0.57 0.57 0.46 0.43 0.50 0.58 0.63 0.71 0.74 0.76 0.79 0.83 0.77
0.83 0.70 0.66 0.65 0.63 0.65 0.69 0.63 0.58 0.61 0.73 0.85 0.83 0.84 0.88 0.86 0.85 0.81 0.78 0.73 0.73 0.76 0.66 0.62 0.59 0.53 0.48 0.45 0.46 0.48 0.53 0.56 0.53 0.43 0.40 0.44 0.48 0.52 0.60 0.69 0.77 0.82 0.78 0.70
0.82 0.74 0.69 0.69 0.67 0.65 0.70 0.66 0.62 0.63 0.71 0.82 0.79 0.78 0.75 0.75 0.84 0.83 0.75 0.70 0.72 0.72 0.65 0.62 0.55 0.50 0.49 0.56 0.61 0.59 0.54 0.51 0.49 0.43 0.42 0.43 0.45 0.48 0.57 0.71 0.82 0.82 0.74 0.71
0.82 0.81 0.78 0.74 0.65 0.57 0.56 0.60 0.63 0.61 0.72 0.93 0.87 0.75 0.70 0.66 0.69 0.75 0.79 0.74 0.71 0.73 0.67 0.61 0.54 0.53 0.51 0.60 0.66 0.63 0.56 0.52 0.50 0.48 0.46 0.47 0.50 0.56 0.65 0.75 0.78 0.69 0.61 0.58
0.79 0.74 0.70 0.67 0.63 0.59 0.58 0.58 0.58 0.61 0.71 0.94 0.97 0.76 0.66 0.65 0.68 0.73 0.79 0.80 0.75 0.71 0.65 0.58 0.52 0.49 0.50 0.55 0.57 0.55 0.53 0.51 0.52 0.52 0.49 0.49 0.50 0.55 0.59 0.64 0.63 0.55 0.51 0.48